ECMWFFLT2_250_spd_000.txt.gz
Wind_Speed
60 61 61 60 60 60 61 61 61 60 60 60 60 60 61 61 61 62 62 62 62 62 61 61 61 61 61 61 61 61 61 61 62 62 63 63 64 65 66 66 66 66 67 68 68 68 68 68 69 69 70 71
61 61 61 61 61 61 62 62 62 61 61 61 61 61 62 62 62 63 63 63 62 63 63 63 63 63 63 63 63 63 64 64 64 65 65 66 67 68 69 69 69 70 70 71 71 71 72 72 71 72 72 73
62 62 62 62 62 63 63 63 63 62 62 62 62 62 63 63 63 63 63 63 63 64 64 64 64 65 65 65 65 66 66 67 67 67 68 69 70 71 72 72 72 73 74 74 74 75 75 75 75 75 75 75
63 63 64 64 64 64 64 64 64 63 63 63 63 64 64 64 64 64 65 65 65 65 65 66 66 67 67 68 68 68 69 69 70 70 71 72 72 74 75 75 75 76 77 78 78 78 78 78 78 78 78 79
64 65 65 65 65 65 65 65 65 65 65 65 65 65 65 65 65 65 66 66 66 67 67 68 68 69 69 70 71 71 71 72 72 73 74 74 75 77 77 77 78 79 80 80 81 82 82 82 82 81 81 81
66 66 66 67 67 67 67 67 67 67 67 67 67 67 67 67 67 67 67 67 68 68 69 70 70 71 72 72 73 74 74 75 75 76 76 77 78 79 79 79 80 81 81 82 83 84 85 85 85 85 85 85
67 67 68 69 69 69 69 69 69 69 69 69 68 68 68 68 69 69 69 69 70 71 71 72 72 73 74 75 76 76 77 77 78 79 79 80 80 81 82 82 82 83 83 84 84 85 86 87 88 88 89 89
69 70 70 71 71 71 72 72 72 72 71 71 70 70 71 71 71 71 71 72 73 73 74 74 75 75 76 77 78 79 80 80 81 81 82 83 83 84 85 85 85 86 86 86 86 87 87 88 88 89 90 92
71 72 73 73 73 73 74 74 74 74 74 74 73 73 73 73 73 74 74 75 75 76 76 77 77 78 79 80 80 81 82 83 84 84 85 86 86 87 87 88 88 89 89 89 89 89 89 89 89 90 91 92
74 74 75 76 76 76 76 77 77 77 77 76 76 76 76 76 75 76 76 77 78 78 79 79 80 80 81 82 83 84 84 85 86 87 88 88 89 90 90 91 91 92 92 92 92 92 91 91 91 92 92 93
76 77 78 78 79 79 79 79 79 79 79 79 79 79 78 78 78 78 79 79 80 80 81 81 82 82 83 84 84 85 86 87 88 89 89 90 91 92 93 93 94 94 94 94 94 94 94 94 94 94 94 94
79 81 81 82 82 82 81 81 81 81 81 81 81 81 81 81 81 81 81 82 82 82 82 83 83 84 84 85 86 87 87 88 89 90 91 92 93 94 95 95 96 96 96 96 96 96 96 96 95 95 96 96
83 84 85 85 85 84 84 84 84 83 83 83 84 84 84 84 84 84 84 84 84 84 84 85 85 86 87 87 88 88 89 90 91 92 93 94 95 96 97 97 98 98 98 98 98 98 97 97 97 97 97 97
87 88 88 88 87 87 87 86 86 86 86 86 87 87 87 87 88 87 87 87 87 87 88 88 88 89 90 90 91 91 92 93 94 95 96 96 97 98 99 99 99 99 100 100 100 100 99 98 98 98 98 98
91 91 91 90 90 90 90 90 90 90 90 90 90 91 91 91 91 91 91 91 91 91 92 92 92 93 94 94 95 95 95 96 97 98 98 99 100 100 101 101 101 101 101 101 101 101 100 100 99 99 99 99
94 94 94 94 94 94 94 94 94 94 94 95 95 94 94 94 94 95 95 95 95 95 96 96 97 97 98 98 98 98 99 99 100 100 101 101 102 102 102 102 102 102 102 102 102 102 101 101 100 100 100 100
98 98 98 97 97 98 98 97 97 97 98 98 98 98 97 98 98 98 99 99 99 99 99 100 100 101 101 101 100 101 102 102 102 102 102 103 103 103 103 103 103 103 103 103 103 102 102 102 101 101 101 101
101 101 101 101 101 101 101 100 100 100 101 101 101 102 102 102 102 102 103 103 103 103 102 103 103 103 103 102 102 102 103 104 104 104 104 104 104 104 104 104 103 103 103 103 103 103 103 102 102 102 102 102
104 104 105 105 105 104 104 103 103 104 105 105 105 106 106 107 107 106 106 106 106 105 105 105 105 105 104 103 103 103 104 104 105 105 105 105 105 105 104 104 104 104 104 104 103 103 103 103 103 103 103 103
108 109 109 109 109 109 108 108 108 108 109 109 109 110 110 110 110 109 109 108 108 107 107 106 106 106 105 104 104 104 104 105 105 105 106 106 105 105 105 105 104 104 104 104 104 104 104 103 103 103 103 103
113 114 114 114 114 114 113 113 112 113 113 112 113 113 113 113 112 111 111 110 110 109 108 107 107 107 106 106 105 105 105 106 106 106 106 106 105 105 105 105 105 105 104 104 104 105 104 104 104 104 104 104
117 117 118 118 118 117 117 116 116 116 115 115 115 115 115 114 114 113 112 112 111 110 109 109 109 108 108 108 107 106 106 107 107 107 106 106 106 106 106 106 106 106 105 105 105 105 105 105 104 104 104 105
119 119 119 119 119 119 118 118 117 117 117 116 116 116 116 116 115 115 114 114 113 112 111 111 111 110 110 109 108 108 107 108 108 107 107 106 106 107 107 107 107 106 106 106 106 106 106 105 105 105 105 105
120 120 120 119 119 118 118 118 118 118 117 117 117 117 117 117 117 116 116 115 114 113 113 113 112 112 111 110 109 109 108 109 108 108 107 107 107 107 107 107 107 107 106 106 106 106 106 106 105 105 105 105
120 120 120 120 119 119 119 119 119 119 119 119 119 119 119 118 118 117 117 116 115 115 114 114 113 112 112 111 110 109 109 109 108 107 107 106 106 106 106 106 106 106 106 105 105 106 105 105 104 104 104 104
121 121 121 121 121 121 121 121 121 121 121 121 121 121 120 120 119 118 118 117 116 115 115 115 114 113 112 111 110 109 108 108 108 107 106 105 105 105 105 105 105 105 104 104 104 104 104 104 103 103 103 103
123 123 123 123 122 122 122 122 122 122 122 122 122 121 121 120 119 119 118 117 116 115 115 115 114 113 112 112 111 110 108 108 107 107 106 105 104 104 104 104 104 104 103 103 103 103 102 103 103 102 102 101
122 122 122 122 122 122 121 122 122 122 122 122 121 120 120 119 119 118 118 117 116 115 115 115 114 113 112 112 111 110 109 108 107 107 105 105 104 103 102 103 103 103 103 103 102 101 101 102 102 101 101 100
119 119 119 120 120 120 120 120 120 120 120 120 119 118 118 118 118 117 117 116 115 114 114 113 113 112 112 111 111 110 108 107 107 106 105 105 104 102 101 102 103 103 103 102 101 101 100 101 100 100 100 99
118 118 118 118 118 118 118 118 118 118 118 118 117 116 116 116 116 115 115 114 113 112 111 111 111 111 110 110 109 109 107 106 105 105 104 104 102 101 101 102 102 103 103 102 101 101 100 99 99 99 100 99
116 116 116 116 116 116 116 116 116 116 116 115 115 114 114 114 114 113 113 112 112 111 110 108 108 108 108 108 107 107 105 104 103 102 102 101 100 99 99 100 101 102 102 102 101 101 100 99 99 99 99 98

ECMWFFLT2_250_spd_006.txt.gz
Wind_Speed
91 91 90 90 90 90 90 90 90 90 90 90 91 91 91 91 91 91 90 90 90 89 88 88 87 86 85 84 83 82 82 81 80 79 79 78 78 78 77 77 77 77 78 79 79 79 79 78 78 78 78 78
93 93 92 92 91 91 91 90 90 90 90 90 90 90 90 90 90 90 90 89 89 88 88 87 86 85 84 84 83 82 81 80 80 79 78 78 78 78 78 77 77 78 79 79 80 80 80 79 79 79 79 79
93 92 91 91 91 91 90 90 89 89 89 89 89 89 89 89 89 88 88 87 87 86 86 86 85 84 83 82 81 81 80 79 79 78 78 78 78 78 78 78 78 78 79 80 80 80 80 81 81 80 80 80
91 91 90 90 90 89 89 88 88 87 87 87 87 87 87 87 87 86 86 85 85 85 84 84 83 82 81 81 80 79 79 78 78 78 78 78 78 78 78 78 78 79 79 80 80 80 81 82 82 82 82 82
90 90 89 89 88 88 87 86 86 85 85 86 86 85 85 86 86 85 85 85 84 84 83 82 82 81 80 80 79 78 78 78 78 78 78 78 78 78 78 78 78 79 79 80 81 81 82 83 83 83 83 83
87 87 87 86 86 86 85 85 85 85 85 85 85 85 86 86 86 86 85 85 84 84 83 82 82 81 80 80 79 78 78 78 78 78 78 79 79 79 78 78 79 79 80 80 81 82 82 83 84 84 84 84
83 83 84 84 84 83 83 83 84 85 85 86 86 86 87 87 86 86 86 85 85 84 83 82 82 81 80 80 79 79 78 78 78 79 79 79 79 79 79 79 79 80 80 81 82 82 83 83 84 85 85 85
80 81 81 81 81 81 82 83 84 85 85 86 87 87 87 87 86 86 86 85 85 84 83 82 82 81 80 80 79 79 79 79 79 79 80 80 80 80 80 80 81 81 82 82 82 83 83 84 85 86 86 86
79 80 80 80 81 81 82 83 84 85 86 87 88 88 87 86 86 86 85 85 84 84 83 82 82 81 80 80 80 80 80 80 80 80 81 81 81 81 81 81 82 82 82 83 83 84 84 85 86 87 88 88
80 81 81 81 82 82 83 84 85 86 87 89 89 88 87 86 86 86 85 85 85 84 83 82 82 81 81 81 81 81 81 81 82 82 82 82 83 83 83 83 83 84 84 84 85 85 86 87 87 88 89 90
82 83 84 84 85 85 86 87 88 89 90 90 90 89 88 88 87 87 86 86 85 85 84 83 83 82 82 82 82 83 83 83 84 84 84 84 84 84 84 84 85 85 86 86 87 87 88 88 89 90 90 91
84 86 87 88 88 89 90 90 90 91 92 91 90 89 89 89 89 89 88 88 87 86 85 85 85 84 84 84 85 85 86 86 86 86 85 85 85 85 86 86 87 87 88 89 89 90 90 90 91 91 92 93
87 88 89 89 90 90 91 91 91 93 93 92 91 90 91 91 91 91 90 89 89 88 87 87 87 86 86 87 87 88 88 88 88 87 87 87 87 87 87 88 88 89 90 91 91 92 93 93 93 93 94 94
88 89 90 90 91 91 91 91 91 92 92 92 92 91 92 93 93 92 91 91 91 90 90 89 89 89 89 90 90 90 90 90 89 88 88 88 89 89 89 89 90 91 92 92 93 94 95 95 95 95 95 96
89 90 91 91 92 92 92 92 92 93 93 92 92 93 94 94 94 93 93 93 93 92 92 91 91 91 92 92 92 92 92 91 90 90 90 90 91 91 91 91 91 91 92 93 94 95 96 97 97 97 98 98
91 91 92 92 93 93 93 93 93 94 94 93 93 94 95 95 95 95 95 95 94 94 93 93 93 93 94 94 94 93 92 92 92 92 92 92 92 92 92 91 91 91 91 92 93 95 96 97 98 99 100 100
92 92 93 93 94 94 94 94 95 95 95 94 94 95 95 96 95 96 96 96 95 95 94 93 93 94 94 95 94 94 93 93 93 93 93 93 93 93 92 92 92 91 91 91 92 93 94 96 98 99 100 101
95 95 95 95 95 96 96 96 96 96 96 95 95 96 96 97 97 97 97 96 96 95 94 93 93 94 95 95 95 95 94 94 94 94 94 94 94 93 93 93 93 92 92 92 92 93 93 94 95 97 99 100
99 99 99 99 98 98 98 98 98 98 98 97 97 97 97 98 98 98 98 98 97 96 94 94 94 95 96 97 97 96 96 96 95 95 95 95 95 95 95 95 95 95 95 95 94 94 93 93 94 95 97 99
105 105 104 104 104 103 103 103 103 102 101 100 100 100 100 101 101 101 101 100 100 99 97 97 97 98 98 99 99 99 98 99 98 98 98 98 98 98 98 98 98 98 97 96 96 95 94 94 94 95 97 97
111 111 110 109 109 109 109 108 108 108 107 105 105 104 104 105 105 105 104 104 104 103 102 101 101 101 101 102 103 102 102 102 102 102 101 101 102 102 101 101 100 99 99 97 97 96 96 96 96 97 97 98
117 116 116 115 114 114 114 113 113 113 112 111 110 109 109 109 110 109 109 109 108 107 106 106 105 105 105 106 106 106 106 106 105 105 105 105 104 103 103 102 102 101 100 99 98 98 98 99 99 99 99 99
122 121 120 120 120 119 119 118 118 117 116 116 115 114 114 114 114 114 114 114 113 112 111 110 110 109 109 109 109 109 109 109 109 108 108 107 106 105 104 104 104 103 103 102 101 101 102 102 103 103 102 101
124 124 124 124 123 123 123 123 122 121 121 120 120 119 119 119 119 119 119 119 118 116 115 115 114 114 113 113 113 113 113 113 112 111 110 108 108 107 107 107 107 107 106 106 105 106 107 107 107 107 106 105
121 122 124 124 125 125 126 126 126 125 125 124 124 124 124 124 124 124 124 123 123 121 120 120 119 118 117 117 118 117 117 116 115 114 113 112 112 112 112 111 111 111 111 110 110 110 111 110 109 109 108 108
116 117 118 119 121 122 123 124 125 125 126 127 127 128 128 128 128 128 128 128 127 126 125 124 123 122 122 122 122 122 121 120 119 118 118 117 117 117 117 116 115 115 115 114 113 113 112 111 111 111 110 110
115 115 115 115 115 116 118 119 120 121 122 123 125 126 127 128 129 129 129 130 130 129 129 127 126 126 126 126 126 126 126 124 123 123 123 123 123 122 121 119 118 118 118 117 116 115 114 113 113 113 113 113
112 113 114 114 113 114 115 116 117 117 118 119 120 121 123 124 125 126 127 128 129 129 128 127 127 126 127 128 128 129 128 127 126 126 127 127 126 125 124 123 122 121 120 119 118 118 118 116 115 116 115 116
107 108 110 110 111 111 112 113 115 116 117 117 118 118 119 120 121 121 122 124 126 126 125 124 124 125 126 127 127 127 127 126 126 127 127 127 127 126 126 124 123 122 122 121 121 121 120 118 118 117 117 117
102 103 105 106 106 107 108 109 111 112 114 115 116 117 118 119 119 119 119 121 123 123 121 119 120 121 122 124 125 125 125 124 124 124 124 125 124 124 124 123 122 121 121 121 121 121 120 119 118 118 117 117
100 100 101 102 103 104 105 106 107 109 110 111 113 114 115 116 117 117 118 120 121 122 120 118 117 117 117 119 121 123 123 122 122 122 122 122 122 122 122 121 120 119 119 119 119 119 119 119 118 117 117 117

ECMWFFLT2_250_spd_009.txt.gz
Wind_Speed
92 91 91 90 90 90 90 91 91 91 91 91 91 91 91 90 89 89 89 88 88 88 88 88 88 88 88 88 88 87 88 87 87 87 87 87 87 87 88 89 90 90 89 89 89 89 89 90 90 91 91 91
97 96 95 95 94 93 93 93 93 93 93 93 93 93 93 92 92 92 91 91 91 91 90 90 90 90 90 90 90 89 89 89 89 89 89 88 88 88 88 89 90 90 90 91 91 90 90 91 91 91 91 91
101 100 99 99 98 97 96 95 95 95 95 95 95 94 94 94 94 94 93 93 93 93 92 92 92 92 92 92 92 92 91 91 91 91 90 90 89 89 89 89 90 91 92 92 92 91 91 91 92 92 92 92
105 105 104 103 102 101 99 98 98 97 97 96 96 96 95 95 94 94 94 94 94 94 94 94 93 93 93 94 93 93 93 93 93 93 92 92 91 91 90 90 91 92 93 93 93 92 92 92 92 92 91 91
108 108 108 107 106 104 103 102 101 99 98 98 97 97 96 96 95 95 95 95 95 95 95 95 95 94 95 95 95 95 95 95 95 95 94 94 93 92 92 92 92 92 93 94 94 93 93 92 92 92 91 91
109 109 109 109 108 107 107 105 104 103 101 100 99 98 98 97 97 96 96 96 96 96 96 96 95 96 96 96 96 96 96 96 96 96 95 95 94 93 92 92 92 93 94 94 94 93 93 93 92 92 91 91
107 107 107 107 107 107 108 108 107 106 105 104 102 101 99 99 98 98 97 97 96 96 96 96 96 96 96 96 96 96 96 95 95 95 94 94 93 92 92 92 92 93 94 94 94 93 93 93 93 92 92 91
99 100 100 101 101 102 103 104 105 106 106 107 106 105 103 102 101 100 99 97 97 97 96 96 95 95 94 94 94 94 94 93 93 93 92 92 92 92 91 91 92 93 93 94 93 93 93 93 93 92 92 91
90 91 92 93 94 95 96 97 98 100 102 103 104 105 105 105 104 103 102 100 99 99 98 97 96 95 94 94 93 93 93 92 92 92 91 91 91 91 91 91 92 93 93 93 93 93 93 93 93 92 92 92
85 86 87 88 89 90 91 92 93 94 95 97 98 100 101 102 102 102 102 101 101 101 100 99 99 97 96 95 95 94 94 93 93 93 92 92 92 92 91 92 92 93 93 93 93 93 93 93 93 93 93 92
82 83 85 86 87 88 89 90 91 92 93 93 95 96 97 98 98 99 99 98 99 100 100 99 99 99 98 97 97 97 96 96 95 94 93 93 93 93 92 92 93 93 94 94 94 94 93 93 93 93 93 93
82 83 85 86 86 87 88 90 90 91 92 93 94 95 96 96 96 97 97 96 97 99 98 98 97 97 97 97 98 98 98 97 97 96 95 95 94 94 94 93 94 94 94 95 95 94 94 94 94 94 94 94
84 85 86 87 87 88 89 90 91 91 93 94 94 95 96 97 97 97 97 97 97 98 98 97 97 97 97 97 98 99 99 98 98 97 96 95 95 95 95 95 95 95 95 96 96 95 95 95 95 95 95 95
87 88 89 89 90 90 91 91 92 93 94 96 96 96 97 98 98 98 99 98 98 99 99 99 98 98 98 98 99 100 100 100 99 97 96 96 96 96 96 96 96 96 97 97 97 97 97 97 97 97 96 96
90 90 91 92 92 93 93 94 95 95 96 97 98 97 98 99 100 100 100 100 100 100 100 101 100 100 100 100 101 101 101 101 100 98 97 97 97 97 97 98 98 98 98 98 99 99 99 99 98 98 98 98
94 94 94 94 95 95 96 96 96 97 98 99 99 99 99 101 102 102 102 103 103 102 102 103 102 102 102 102 103 103 103 102 100 99 98 97 98 98 99 99 99 100 100 100 100 101 100 101 100 100 100 100
99 99 99 99 99 98 98 98 98 99 99 100 100 100 100 101 103 103 104 104 104 104 104 104 104 104 104 104 104 103 103 101 100 99 98 98 99 99 100 100 101 102 102 102 102 103 102 102 102 102 102 102
104 104 103 103 103 103 102 102 101 101 101 101 101 101 100 101 102 103 104 104 104 104 104 104 104 103 103 104 103 103 102 100 99 99 98 99 100 100 101 101 102 103 104 103 103 104 104 103 103 103 103 102
110 110 109 109 108 107 107 106 106 105 105 104 104 104 103 102 102 103 103 103 102 102 102 102 102 102 102 102 102 101 101 100 98 98 98 99 100 101 102 102 103 104 105 104 104 104 104 104 103 103 103 102
116 116 115 114 114 113 112 111 111 110 109 109 108 107 106 105 105 105 105 104 103 102 102 102 101 100 101 100 100 100 100 99 97 97 98 99 100 102 102 103 104 104 105 105 104 104 104 103 102 102 102 102
121 121 120 120 119 118 118 117 116 115 114 114 113 112 111 110 109 108 108 108 107 105 104 103 103 102 101 101 100 100 99 98 96 96 97 98 100 102 103 104 104 104 105 105 103 103 102 102 101 101 101 101
123 124 124 124 124 123 122 122 121 120 120 119 118 117 116 115 113 112 112 112 111 109 107 107 106 106 104 103 102 102 101 99 98 97 97 99 101 103 104 104 104 104 104 104 103 102 102 102 102 101 101 101
121 123 125 126 126 126 126 126 125 125 124 124 123 122 121 120 119 118 116 116 115 114 112 111 110 110 109 107 106 106 104 102 101 100 100 102 104 104 105 104 104 104 104 104 103 103 102 101 101 101 100 99
119 121 122 124 126 127 127 128 127 127 127 126 126 126 126 125 124 123 122 121 120 119 117 116 115 115 114 112 111 111 109 107 106 105 105 106 106 107 107 107 107 107 106 106 105 104 103 102 102 102 101 99
116 118 120 121 123 124 126 127 127 127 127 127 127 128 128 128 128 127 126 126 125 124 123 121 120 119 119 117 116 116 115 113 112 111 110 110 110 110 111 111 111 111 110 109 107 106 106 105 105 104 103 102
111 114 117 119 121 122 123 124 125 125 126 126 127 127 128 128 129 129 129 129 129 128 127 126 125 124 123 123 122 121 121 119 117 116 114 114 114 115 116 116 116 116 114 112 111 111 111 110 109 108 107 106
107 109 112 115 118 120 122 122 123 123 124 124 124 125 126 126 127 128 129 130 130 130 130 129 128 127 127 127 127 127 126 125 123 121 119 119 119 120 121 121 120 120 118 117 116 116 115 114 113 112 111 110
106 107 109 111 113 116 118 120 121 122 122 122 122 123 124 124 125 126 127 128 129 130 130 130 130 129 129 129 130 130 130 129 128 126 125 124 124 125 125 125 124 123 122 121 121 120 119 118 117 116 115 115
106 107 108 109 110 112 114 116 118 120 120 121 120 121 122 123 124 124 125 125 126 127 128 129 129 129 129 130 130 130 131 132 131 130 129 128 128 128 129 128 127 126 125 125 124 123 123 122 121 121 120 120
104 105 106 107 107 108 110 112 114 116 118 118 118 119 120 121 122 123 124 124 125 125 126 126 127 128 128 127 128 129 130 131 132 131 131 130 130 131 131 131 129 128 127 127 126 126 125 126 126 125 124 123
101 102 103 104 104 104 106 108 109 111 114 115 116 116 117 118 120 121 122 123 124 124 125 125 126 127 127 126 126 127 128 129 130 130 130 130 130 132 132 131 130 129 128 128 128 128 128 128 128 127 126 125

ECMWFFLT2_250_spd_012.txt.gz
Wind_Speed
96 96 96 95 95 95 95 95 95 94 94 94 94 94 95 95 95 96 96 96 96 96 96 96 96 96 96 95 95 95 95 94 94 94 94 93 92 92 92 91 91 91 91 90 90 91 91 91 91 92 92 92
100 100 99 99 99 98 98 98 98 98 97 97 97 97 97 97 97 97 97 97 97 97 96 96 96 96 96 96 96 95 95 95 95 95 94 94 93 92 92 91 92 91 90 89 89 90 90 90 90 90 90 91
103 103 103 103 103 102 102 101 101 100 100 100 100 100 100 100 99 99 99 99 99 98 98 97 97 96 96 96 96 95 95 95 95 95 95 94 93 93 92 92 93 93 91 89 90 90 91 90 90 90 90 91
107 107 106 106 106 106 105 105 104 104 103 103 103 103 103 103 103 102 102 102 102 101 101 100 99 98 98 97 96 96 95 95 95 95 95 94 93 93 92 92 93 94 92 90 90 91 91 91 91 91 91 92
110 110 110 110 109 109 108 108 108 107 107 106 106 106 106 106 106 105 105 105 105 105 104 103 103 102 101 100 99 98 98 97 97 96 96 95 94 94 93 93 94 95 94 93 92 92 92 93 93 93 93 93
113 113 113 113 112 112 112 111 111 111 110 110 110 109 109 109 108 108 108 108 108 108 107 106 106 105 104 103 103 102 101 100 99 99 98 97 97 96 95 95 96 97 96 95 95 94 94 94 94 94 95 95
113 114 115 115 115 115 115 115 115 114 114 114 114 113 113 112 112 111 110 110 110 110 110 109 109 109 108 107 106 105 105 104 103 102 101 100 100 99 98 97 98 98 98 98 97 96 96 96 96 96 96 96
106 108 110 112 113 114 115 116 116 116 116 116 116 116 116 116 116 115 114 113 112 112 112 112 112 112 111 110 110 109 108 107 106 105 104 103 102 102 101 101 101 100 100 100 100 99 98 98 98 98 98 98
96 98 100 102 104 106 108 110 111 113 114 115 115 116 117 118 118 118 117 116 115 114 114 113 113 113 113 113 112 112 111 110 109 108 107 106 105 104 103 103 102 102 102 102 102 102 101 101 101 100 100 100
89 90 91 93 95 97 99 101 103 105 106 108 109 111 113 114 115 116 116 116 116 116 116 115 114 113 113 113 113 113 113 113 113 111 110 109 108 106 106 105 103 103 103 103 103 103 103 104 103 103 102 102
86 86 87 88 89 91 92 94 96 97 99 100 102 103 105 107 108 110 111 112 113 113 114 114 114 114 113 112 112 111 112 112 113 113 112 112 111 110 109 108 106 106 106 105 105 104 105 105 105 104 104 104
88 88 87 87 87 88 88 90 91 92 94 95 97 98 99 100 102 103 105 106 107 107 109 111 111 112 113 112 111 110 110 109 109 110 111 111 111 111 111 110 109 108 108 107 107 106 106 106 106 106 105 105
92 92 91 90 90 89 89 89 89 90 91 92 94 95 96 96 97 99 100 101 103 103 104 107 108 108 109 110 110 110 109 109 108 107 108 109 109 109 109 109 109 108 108 108 108 107 107 107 107 106 106 106
97 96 96 95 94 94 93 92 91 91 91 91 92 93 94 94 95 96 97 98 101 101 101 103 104 104 105 106 107 108 108 109 109 108 107 107 107 108 108 107 107 107 107 107 107 107 107 107 107 106 106 106
101 100 100 100 99 98 98 97 96 95 94 93 93 93 93 94 94 95 96 97 98 99 99 100 101 101 102 104 104 105 105 107 108 108 107 107 107 107 107 107 106 106 106 106 106 106 106 106 106 105 106 105
106 105 104 104 103 103 102 102 101 100 99 98 97 96 96 95 95 95 96 96 97 98 98 98 100 100 101 101 102 103 103 105 106 106 106 106 106 107 107 107 106 106 106 106 106 106 106 106 106 106 106 105
111 110 109 109 108 107 107 106 106 105 105 104 102 101 100 99 98 97 97 98 98 99 98 98 99 100 100 100 101 102 103 103 104 104 105 104 104 105 106 106 106 106 106 106 107 107 106 107 107 107 107 107
115 114 114 113 113 112 112 111 110 110 110 109 108 107 106 105 103 102 100 101 101 100 100 99 99 99 100 100 101 102 103 103 103 103 103 103 103 104 105 106 106 105 106 106 106 106 106 107 107 107 108 107
119 119 118 117 117 117 116 116 115 114 114 114 113 112 111 110 109 107 105 104 105 104 103 101 100 100 101 101 102 103 103 103 103 102 103 103 102 103 104 105 105 105 106 106 106 106 107 107 108 108 108 108
120 121 121 121 120 120 120 120 119 119 119 118 118 117 116 115 114 113 111 109 109 109 107 105 103 102 103 103 103 103 104 104 103 103 103 103 102 103 104 105 105 105 105 106 107 107 108 108 109 109 109 109
120 121 122 123 123 123 123 123 122 122 122 122 122 122 121 120 119 118 117 114 113 113 112 110 108 106 105 106 106 105 105 105 105 104 104 103 103 104 105 105 105 105 106 107 108 108 109 109 109 109 109 109
120 121 122 123 124 124 124 124 124 124 124 125 125 125 125 125 124 123 122 120 118 117 117 115 113 111 109 109 109 108 107 106 106 106 105 104 103 104 106 107 107 106 107 108 108 108 109 109 109 109 109 109
117 119 121 122 124 124 125 125 126 125 126 126 126 126 127 127 127 127 126 125 124 122 121 120 119 116 114 113 112 112 111 109 108 107 106 105 104 105 106 108 108 108 108 109 109 109 109 110 110 108 108 108
111 113 116 119 121 123 124 125 126 126 127 127 128 128 128 129 129 130 130 129 128 127 125 124 123 122 120 118 117 116 115 113 112 111 110 109 108 107 107 107 108 107 107 107 109 109 109 109 109 108 108 108
107 109 111 113 116 118 121 123 125 126 127 128 128 129 129 130 131 131 131 132 131 131 130 128 127 127 125 123 122 120 119 118 117 116 114 113 112 110 109 108 108 108 107 107 108 108 109 109 108 109 109 109
106 108 109 111 113 115 117 119 122 124 125 127 128 129 130 131 131 132 132 133 133 133 133 132 131 130 129 128 127 125 123 122 122 121 119 117 116 114 113 112 111 111 109 108 108 109 110 109 108 108 109 107
105 106 108 109 111 113 115 117 119 121 123 125 127 128 130 130 131 132 133 133 134 134 134 134 133 132 132 132 131 129 127 126 126 125 124 122 120 119 118 117 116 114 112 111 111 112 112 110 109 109 109 108
103 104 105 107 109 111 113 114 116 118 120 122 125 127 128 129 130 131 132 133 134 134 135 134 134 133 133 133 133 132 130 129 128 128 128 127 125 124 122 121 120 118 117 116 115 115 115 113 112 111 111 111
101 101 102 104 106 108 110 111 113 115 117 120 122 124 126 127 129 129 131 132 133 134 134 135 135 134 133 134 134 134 133 131 129 129 130 130 129 128 127 125 125 124 122 120 119 118 118 117 115 114 115 116
98 98 98 100 101 103 104 106 108 110 113 115 118 121 123 124 126 128 129 130 131 132 133 133 134 134 134 134 134 134 134 133 131 130 130 131 132 131 130 130 130 128 126 125 123 122 122 121 120 119 120 120
97 96 96 97 97 97 98 100 101 104 107 110 113 116 119 120 122 124 126 128 130 131 131 131 132 133 134 134 134 134 134 134 132 131 130 131 133 134 133 133 132 130 129 128 127 126 126 126 125 124 124 124

ECMWFFLT2_250_spd_015.txt.gz
Wind_Speed
99 99 99 99 98 98 97 97 97 97 96 96 96 96 95 96 97 98 98 99 99 99 99 99 99 99 99 98 98 97 96 96 95 95 94 94 94 94 94 94 95 95 96 96 94 94 94 94 94 94 94 93
102 102 102 102 102 101 101 100 100 99 99 99 99 98 98 97 98 98 99 99 100 100 101 101 101 100 100 99 98 98 97 97 97 96 96 95 95 95 94 95 96 97 98 97 95 96 97 96 96 95 95 95
105 105 105 105 105 104 104 104 103 102 102 102 101 101 101 100 100 100 100 100 100 101 101 102 102 102 101 100 100 99 99 99 98 98 98 97 97 96 96 96 97 98 99 97 96 98 99 98 98 97 97 97
108 108 108 108 108 108 108 107 107 106 105 105 104 104 104 103 103 103 103 102 102 102 102 102 102 102 102 102 102 101 101 101 101 100 100 99 99 98 97 97 98 99 99 98 97 98 99 99 99 99 99 99
111 111 111 111 111 111 111 110 110 110 109 109 108 107 107 106 106 106 106 106 105 105 104 104 103 103 103 103 103 103 103 103 103 103 102 101 101 100 99 99 100 101 101 100 99 99 100 99 100 100 99 99
113 113 114 114 114 114 114 113 113 113 113 112 112 111 110 110 109 109 109 109 108 108 107 107 106 106 105 104 104 104 104 105 105 104 104 103 103 102 100 101 103 102 102 102 101 100 100 100 101 100 99 100
109 111 112 114 115 116 116 116 116 116 115 115 115 114 114 113 112 112 112 112 111 111 110 110 109 109 108 107 107 107 106 106 106 105 105 105 104 103 102 103 105 104 103 103 103 101 100 101 102 101 100 100
98 101 102 105 108 110 112 114 115 116 117 117 117 117 117 116 116 115 115 115 114 114 113 113 113 112 112 111 111 110 110 109 108 107 106 106 106 105 104 105 107 106 105 105 105 103 101 102 103 102 102 102
91 93 94 95 97 99 101 104 106 109 111 113 115 117 118 118 119 118 118 118 117 117 117 116 116 115 115 114 114 113 113 112 112 110 109 108 108 107 106 107 108 107 107 107 108 106 103 104 105 104 104 104
91 92 92 92 92 93 94 95 96 98 100 102 105 108 111 114 116 118 119 120 120 120 120 119 119 118 118 118 117 116 116 115 115 114 113 112 111 110 109 109 109 109 109 109 110 109 106 105 106 106 105 105
95 95 95 94 94 94 94 93 93 93 93 94 96 98 100 103 106 109 113 116 118 120 121 121 122 122 121 121 120 119 118 118 118 117 116 116 115 114 113 113 112 111 111 112 112 111 109 108 108 108 107 107
100 100 99 99 98 98 97 96 95 95 94 93 93 94 95 95 97 99 102 105 109 112 116 118 121 123 123 123 123 122 121 121 120 119 119 118 118 117 117 117 116 115 114 114 114 113 112 111 111 110 110 110
105 104 104 103 102 102 101 100 99 98 97 96 96 95 95 95 94 94 95 97 99 102 106 109 113 116 119 121 123 123 122 122 122 122 121 121 120 119 119 119 119 118 117 116 116 115 114 113 113 113 112 112
109 108 108 107 107 106 106 105 104 103 101 100 99 99 99 98 97 95 94 94 95 96 98 100 103 107 110 114 117 120 120 121 123 123 123 123 122 121 121 121 121 120 119 118 118 117 116 116 115 114 114 114
113 113 112 112 111 110 110 109 108 107 106 105 104 103 102 102 101 100 98 96 96 96 95 95 97 100 102 105 108 112 114 116 119 121 122 122 122 122 122 122 122 121 121 120 120 119 118 118 117 116 115 115
117 117 116 116 115 114 114 113 112 111 110 109 108 107 106 106 105 104 103 101 100 99 97 96 96 97 98 99 102 104 106 109 112 115 118 119 119 119 120 121 121 121 121 121 121 121 120 119 119 118 117 116
119 119 119 119 119 118 117 117 116 115 114 114 113 112 111 110 109 108 107 106 105 104 102 100 99 98 98 98 99 101 101 102 105 108 111 113 114 115 116 117 118 119 119 120 120 120 120 120 120 119 118 117
121 121 121 121 121 121 120 120 119 119 118 117 117 116 115 115 114 113 112 110 109 108 107 105 103 101 100 100 100 100 100 100 100 102 105 107 109 110 112 113 114 115 116 117 118 118 119 119 119 119 119 118
121 122 122 123 123 123 122 122 122 121 121 120 120 120 119 119 118 117 116 115 114 113 112 110 108 106 104 103 103 103 102 101 100 99 100 102 104 106 108 109 111 112 113 115 115 116 117 118 118 118 118 118
121 122 123 123 124 124 124 123 123 123 123 122 122 122 122 122 121 121 120 119 118 117 116 115 113 111 109 108 107 106 105 105 103 100 99 99 100 102 104 106 108 110 111 112 113 114 116 116 117 117 117 117
121 122 123 123 123 124 124 124 124 124 124 124 124 124 124 124 124 124 124 123 122 121 120 119 118 116 115 113 111 109 109 108 108 105 102 100 100 100 101 103 105 107 109 111 112 113 114 115 116 116 116 116
120 121 122 123 123 124 124 125 125 125 125 125 125 126 126 125 125 125 126 126 126 125 124 123 122 120 119 118 116 114 113 111 111 111 108 105 102 101 100 101 103 105 107 109 111 112 113 114 115 115 115 115
119 120 121 122 123 124 125 125 126 126 126 126 126 126 127 127 127 127 127 128 127 127 126 125 125 124 123 122 121 119 118 116 114 114 113 110 107 105 103 102 103 104 106 108 109 110 111 112 113 113 113 113
118 119 120 121 122 123 124 125 126 127 127 127 127 127 127 127 128 129 129 129 129 128 128 127 127 127 127 126 125 124 122 121 119 117 116 115 113 110 108 107 106 106 107 108 108 108 109 110 110 111 111 112
116 117 117 118 119 120 121 122 124 126 127 127 128 127 127 127 127 128 129 130 130 130 129 128 128 128 129 129 129 128 126 125 123 121 119 119 118 117 113 111 109 109 109 110 108 107 108 109 109 110 110 111
112 113 114 115 116 116 117 118 121 123 125 126 127 128 128 128 127 127 129 130 130 130 130 130 130 129 129 131 131 131 130 129 128 126 124 122 122 122 119 116 114 113 113 112 110 110 110 110 109 109 109 109
109 108 108 109 110 111 112 114 117 119 121 122 124 126 127 128 128 128 128 129 130 131 130 130 131 131 130 131 132 132 132 132 132 130 129 126 125 125 124 122 119 118 116 115 115 115 114 111 110 109 108 107
105 103 102 102 103 103 105 108 111 114 116 118 120 123 125 127 128 128 129 129 130 131 131 131 131 132 133 133 133 133 133 133 134 133 133 131 129 128 128 127 125 122 120 120 119 119 117 114 113 111 108 108
100 99 98 97 97 97 98 101 104 108 110 113 115 118 120 123 125 127 128 129 129 130 131 132 132 132 133 134 134 134 134 134 134 135 135 135 133 132 131 131 130 128 126 125 124 123 121 119 117 113 112 113
97 96 94 94 93 92 93 97 100 103 105 107 109 111 114 117 121 124 126 127 128 129 129 131 133 133 133 133 135 136 136 136 136 136 136 136 136 135 134 134 134 133 131 129 128 127 126 124 121 118 118 118
93 92 91 91 90 89 90 93 95 99 101 102 104 106 108 111 115 119 122 124 125 127 128 129 131 133 133 133 134 135 137 137 138 138 138 138 138 137 136 136 137 137 136 134 132 131 130 128 126 125 123 122

ECMWFFLT2_250_spd_018.txt.gz
Wind_Speed
104 104 104 104 104 104 103 103 103 103 102 102 102 101 101 101 101 101 102 103 102 102 101 101 100 101 101 100 100 99 99 98 98 98 97 97 97 97 96 96 97 98 99 98 96 96 96 96 95 94 93 94
106 106 106 106 107 106 106 106 106 106 106 105 105 104 103 102 102 102 103 104 103 103 103 103 103 102 103 102 102 102 101 101 101 101 101 101 100 100 99 98 99 101 102 100 99 99 99 99 98 97 96 96
109 109 109 109 109 109 109 109 109 109 108 108 107 107 106 105 105 104 104 105 105 104 104 105 105 105 105 104 104 103 103 103 103 103 103 104 104 103 103 102 103 104 105 104 102 103 102 102 101 100 99 99
111 111 111 111 111 112 112 112 111 111 111 111 110 110 109 109 108 107 107 107 107 106 105 106 106 106 106 106 106 105 105 104 105 105 105 106 106 106 105 105 105 107 109 107 104 105 105 104 104 103 102 101
112 113 113 114 114 114 114 114 114 114 114 113 113 113 112 111 111 111 110 110 110 109 108 107 107 107 107 107 107 107 106 106 106 107 107 107 107 107 107 107 107 108 110 108 105 106 106 106 105 105 104 103
115 115 115 115 116 116 116 116 117 116 116 116 116 116 115 114 114 114 114 113 113 112 111 110 110 109 109 108 108 108 108 108 108 108 108 108 108 108 108 108 109 110 111 110 107 106 107 107 106 105 105 104
118 118 118 118 118 119 119 119 119 119 119 119 119 118 118 117 117 117 116 116 116 115 115 113 113 113 112 111 110 110 110 110 110 110 110 109 109 108 108 109 110 111 111 112 110 108 107 107 106 105 104 105
116 117 118 119 120 121 121 121 122 122 122 122 121 121 120 120 119 119 119 119 118 118 117 117 116 116 116 115 113 113 112 112 112 112 112 111 110 109 109 111 111 111 112 113 112 110 108 108 107 106 106 106
108 111 112 114 115 117 119 120 121 122 123 124 124 123 123 123 122 122 121 121 121 120 120 119 119 119 118 118 117 116 115 115 114 114 114 113 112 111 111 112 112 112 112 113 113 112 110 109 108 108 108 108
103 104 105 107 108 109 111 112 114 116 118 120 122 123 124 125 125 124 124 124 123 123 122 122 121 121 121 121 120 120 119 118 118 117 116 115 114 113 113 114 114 113 114 114 114 113 112 110 109 110 110 110
103 103 104 105 105 106 106 107 108 109 110 112 114 116 118 120 122 123 125 125 125 125 125 125 124 124 124 123 123 122 122 121 121 120 119 118 117 116 116 116 115 115 116 116 115 115 114 112 111 111 112 112
108 108 107 107 107 107 107 107 107 107 107 108 109 110 111 112 114 116 118 120 122 123 125 126 126 126 126 126 126 125 124 124 124 123 123 121 120 119 119 119 118 118 118 118 117 116 116 114 113 113 114 114
113 113 113 112 112 111 111 110 110 109 109 108 108 108 108 108 109 110 111 112 114 116 119 121 123 126 127 127 128 128 127 126 126 126 126 125 123 123 122 122 121 121 121 120 120 119 117 116 115 115 115 115
117 117 117 117 117 116 116 115 115 114 113 112 111 111 110 109 109 109 108 108 109 109 110 113 115 118 121 123 126 127 128 128 128 128 128 128 126 126 125 125 125 124 124 123 122 121 120 119 118 117 117 117
120 120 120 121 121 120 120 120 119 119 118 117 116 115 114 113 113 112 111 110 109 108 107 108 109 110 112 115 117 121 123 126 127 128 129 130 129 128 128 128 127 127 126 125 125 124 123 122 121 121 120 120
121 121 122 122 123 123 123 123 123 122 122 121 121 120 119 118 117 116 115 113 112 111 109 108 108 107 107 108 109 112 115 118 121 124 126 128 130 130 130 130 129 129 128 128 127 127 127 126 125 124 124 123
120 121 121 122 123 124 124 125 125 125 125 125 124 124 123 123 122 121 120 118 117 116 114 112 110 110 109 108 107 109 110 111 113 116 118 120 124 127 129 130 131 131 131 131 130 130 130 130 128 127 127 126
120 121 121 122 122 123 124 124 125 126 126 127 127 126 126 126 126 125 124 123 121 120 119 117 115 113 112 111 110 111 111 110 110 110 110 112 115 119 122 126 129 131 132 133 133 133 133 132 132 131 130 129
121 121 122 122 123 123 123 124 124 125 125 126 127 127 128 128 128 128 128 127 126 124 123 122 120 118 117 115 115 114 113 112 112 111 109 109 109 111 114 117 120 124 128 130 132 133 134 134 134 133 133 132
121 122 122 123 124 124 124 124 124 125 125 125 126 126 127 128 129 130 130 129 129 128 127 126 124 123 121 120 119 118 117 116 116 114 113 111 109 108 108 110 112 115 119 123 127 130 132 134 134 134 134 134
122 122 123 124 124 125 125 124 124 125 125 126 126 126 126 127 128 129 130 131 131 131 131 130 129 127 126 125 123 122 120 120 119 118 117 115 113 111 109 108 108 109 111 114 118 122 125 129 131 133 134 135
123 123 124 124 125 126 126 125 125 125 125 126 126 127 127 127 128 129 129 130 131 131 131 132 132 131 130 129 128 126 124 123 122 122 121 119 117 115 113 111 109 108 108 109 111 114 117 121 124 127 130 133
123 124 125 125 126 126 127 127 126 126 126 126 126 127 127 128 128 129 129 129 130 130 131 132 132 133 132 131 131 130 128 127 126 125 124 123 122 120 118 115 112 111 111 110 110 111 112 114 116 119 123 125
123 124 124 124 125 126 126 127 127 127 127 127 126 126 127 128 128 129 129 129 129 130 130 130 131 132 133 133 132 132 131 130 130 129 127 126 125 125 123 120 117 115 115 114 113 112 112 111 112 113 115 118
119 120 120 121 122 123 124 125 126 127 127 127 127 127 127 127 128 128 128 128 128 129 129 129 130 131 132 132 133 132 132 133 132 132 131 129 128 128 127 125 122 119 118 118 117 115 114 112 112 111 112 112
114 115 115 116 116 117 118 120 121 122 124 125 126 127 128 128 128 129 128 128 128 129 129 129 129 129 130 131 132 132 133 133 134 134 133 133 132 131 130 128 126 124 123 121 120 118 117 117 116 114 112 111
108 108 109 110 110 111 112 113 114 115 116 118 121 123 126 128 128 128 129 128 128 129 129 129 129 129 129 130 130 131 132 133 134 135 135 135 135 134 133 131 130 129 127 125 123 123 122 121 120 117 115 111
104 104 105 106 106 106 107 107 108 108 109 110 113 116 119 123 125 126 128 128 128 128 129 130 130 129 129 129 129 130 131 132 133 135 136 136 136 137 136 135 134 132 131 129 128 127 126 125 123 120 116 113
103 104 105 105 104 103 103 103 103 103 103 104 106 109 112 116 118 120 123 126 127 127 128 129 130 130 130 129 128 129 130 131 132 133 135 136 137 138 138 137 136 135 134 133 132 131 130 128 126 123 119 117
101 102 102 102 101 101 101 101 100 100 99 100 101 103 106 109 112 114 116 119 123 125 126 127 128 130 131 131 130 129 129 130 131 132 134 135 137 138 138 139 139 138 137 136 136 135 133 131 129 126 124 123
97 97 97 97 96 96 97 98 98 98 98 98 99 99 100 102 105 108 110 112 116 121 123 124 125 127 130 131 131 130 129 129 130 131 133 134 136 137 138 139 139 139 139 139 138 138 136 134 132 130 128 127

ECMWFFLT2_250_spd_021.txt.gz
Wind_Speed
111 110 110 109 109 108 108 107 106 106 106 106 106 105 104 103 102 102 102 102 102 103 102 102 101 100 100 100 99 99 98 98 97 96 94 93 93 94 93 93 94 95 97 98 95 94 95 95 94 94 93 93
113 113 113 113 112 112 111 111 110 109 109 109 109 109 107 106 105 104 104 104 104 104 104 103 103 102 102 102 101 101 100 100 99 98 97 96 96 96 96 95 95 97 99 101 98 97 97 98 98 97 97 96
116 115 116 115 115 115 115 114 113 113 112 112 112 112 111 110 109 108 107 106 106 106 106 105 104 105 105 104 103 103 103 102 101 101 99 98 98 98 98 97 97 97 100 103 101 99 100 100 100 100 100 99
116 117 117 117 117 118 117 117 117 116 116 115 115 115 114 114 112 112 111 110 109 109 109 108 107 107 107 106 105 105 105 104 103 103 101 100 100 100 100 99 98 98 101 104 103 101 103 103 103 103 103 102
117 117 118 118 119 119 119 119 119 119 119 119 118 118 117 117 116 115 114 114 113 112 112 111 110 110 109 108 107 107 106 106 106 106 104 103 102 102 102 101 100 100 102 104 104 103 104 105 105 105 105 104
119 119 119 119 120 120 121 121 121 121 121 121 121 121 121 120 119 119 118 117 116 116 115 114 113 113 113 112 110 110 109 108 108 108 107 106 105 104 104 103 102 102 104 105 107 106 105 106 106 106 106 106
120 121 121 121 122 122 122 123 123 123 123 123 124 123 123 123 122 122 121 120 120 119 119 118 117 116 116 115 114 113 112 111 111 110 110 109 107 106 106 105 104 105 107 107 109 109 107 106 107 107 108 108
122 123 123 123 124 124 124 125 125 125 125 126 126 126 126 125 125 124 124 123 123 122 122 121 121 120 119 119 118 117 116 115 114 113 112 112 109 108 108 107 107 108 109 109 111 112 109 107 108 109 109 109
121 123 124 125 126 126 127 127 127 128 128 128 128 128 128 128 127 127 126 125 125 125 125 124 124 123 122 122 121 120 119 118 118 117 116 115 112 110 110 109 109 111 112 111 112 113 111 109 110 111 111 111
115 118 121 124 126 127 128 129 130 130 130 130 130 131 131 130 130 129 129 128 127 127 127 127 126 126 125 124 124 124 123 122 121 120 120 118 116 113 112 111 111 112 114 114 114 114 114 112 112 112 113 113
111 113 115 118 120 123 126 128 130 131 132 132 132 133 133 133 132 132 131 130 130 129 129 129 128 128 128 127 127 127 126 125 124 123 123 122 120 117 116 114 113 114 115 116 116 116 116 115 114 114 114 115
114 114 114 115 116 118 120 122 125 127 130 131 133 134 134 135 134 134 133 133 132 131 131 131 131 131 130 130 129 129 129 128 127 126 126 125 123 121 119 118 117 117 117 118 117 117 117 117 116 115 115 116
119 119 118 118 118 118 118 119 120 122 124 126 128 130 132 133 135 135 135 135 135 134 134 133 133 133 132 132 132 132 131 131 130 129 129 128 127 125 123 122 120 120 120 120 119 119 118 118 118 117 117 117
122 122 122 122 122 122 122 121 121 121 121 122 123 124 125 127 129 131 132 133 134 135 135 135 135 135 135 134 134 134 134 133 133 132 132 131 130 128 127 125 124 123 123 123 122 121 120 120 119 118 118 118
122 123 124 125 126 126 126 125 125 124 124 124 123 123 123 123 123 124 126 127 128 129 131 132 134 135 135 136 137 137 136 136 135 135 134 133 132 131 130 129 127 126 126 126 125 124 123 122 121 120 119 119
120 122 123 125 126 127 128 128 128 128 128 128 127 127 126 126 125 124 124 123 124 124 124 125 127 128 130 132 134 136 137 137 138 138 137 136 135 134 133 131 130 129 129 128 128 128 127 126 125 123 122 122
120 121 122 123 124 126 127 128 129 130 131 131 131 131 130 130 129 128 127 125 125 124 123 123 122 123 123 124 126 128 131 132 135 137 137 137 137 136 135 134 133 132 131 131 131 131 130 130 128 127 126 126
122 122 122 123 124 124 125 126 127 129 130 131 131 132 132 132 132 132 131 130 128 127 126 125 124 123 122 122 122 122 124 125 127 129 132 133 135 136 136 136 136 135 134 134 134 133 133 133 132 131 130 129
124 124 124 124 124 124 124 124 125 126 127 128 129 130 131 133 133 134 134 133 132 131 130 129 128 127 126 124 123 122 122 122 122 123 125 126 128 130 132 133 135 136 136 136 136 136 135 135 135 134 133 132
125 125 126 125 125 125 125 125 125 125 125 126 127 128 129 130 132 132 133 134 134 134 134 133 132 131 130 129 127 126 125 124 122 122 122 123 124 125 125 126 128 131 133 135 137 138 138 138 138 137 136 135
125 126 126 126 127 127 127 127 127 126 126 126 126 126 127 128 129 130 131 132 133 133 134 134 134 134 133 133 132 130 129 128 126 124 123 123 123 123 123 123 123 124 126 128 131 135 138 139 139 139 139 138
126 126 127 127 127 127 127 127 127 127 127 126 126 126 127 127 128 128 129 130 131 132 132 133 134 135 135 135 135 134 133 132 131 129 127 126 125 125 124 124 123 121 121 123 125 127 131 134 137 139 140 141
126 126 127 126 126 125 125 125 125 125 126 127 127 128 129 129 129 129 129 130 130 131 131 131 132 133 135 136 136 136 136 136 135 133 131 130 129 128 127 126 125 123 121 121 122 123 124 127 130 134 137 139
122 123 123 123 123 123 123 123 124 124 125 126 128 129 130 131 131 131 131 131 131 131 131 131 131 131 133 134 135 136 136 137 137 137 136 134 133 132 131 130 128 127 125 123 123 123 123 124 126 127 130 132
117 117 118 118 119 119 120 121 121 122 123 125 126 128 129 130 131 131 131 132 132 132 132 131 131 131 131 132 134 135 135 136 137 137 138 137 136 135 134 133 132 131 130 128 126 126 126 125 125 124 125 125
112 112 112 112 113 114 115 116 116 117 119 121 124 125 127 128 129 130 130 131 132 132 133 133 132 132 131 131 132 133 134 135 135 136 137 138 138 138 137 136 136 135 134 133 130 129 129 129 128 126 124 123
107 107 106 106 106 107 108 109 109 110 111 115 118 120 122 124 126 127 129 130 131 131 132 134 134 134 133 132 131 131 132 133 134 134 135 136 137 138 138 138 138 138 138 136 134 133 133 133 132 130 127 124
102 101 100 100 101 101 102 103 104 105 107 110 113 115 117 118 120 122 125 126 128 130 131 132 134 134 133 132 132 132 131 131 132 133 134 135 135 136 137 138 139 140 141 140 138 137 137 136 136 134 130 127
97 96 94 94 95 95 97 98 100 102 105 108 110 112 114 115 117 118 120 122 124 126 128 130 131 131 131 130 130 131 132 131 131 131 132 133 134 135 136 137 138 140 141 142 141 141 141 140 138 136 134 131
94 92 90 89 89 90 92 94 97 100 103 105 107 109 111 112 113 115 116 118 120 122 124 126 127 128 128 127 127 128 129 131 132 131 131 132 132 133 134 135 137 138 140 141 142 143 143 143 141 138 137 137
89 88 86 85 86 87 91 94 96 98 100 100 102 104 105 107 108 110 111 113 115 118 119 121 122 124 125 125 125 125 125 127 130 132 132 132 132 132 132 133 134 136 138 140 141 143 144 144 143 141 140 140

ECMWFFLT2_250_spd_027.txt.gz
Wind_Speed
116 116 116 115 115 115 114 115 115 115 116 116 115 114 112 111 111 111 110 109 108 107 106 106 106 106 106 106 105 104 102 101 100 98 97 96 96 94 93 92 91 90 91 95 96 95 93 90 87 85 83 83
120 119 119 119 119 119 118 118 118 118 118 118 118 118 116 115 115 115 114 113 112 111 109 108 108 108 108 108 108 107 106 104 103 102 100 99 99 97 96 94 93 92 93 95 98 98 96 94 91 89 87 86
122 122 122 122 122 122 122 121 121 121 121 121 121 121 119 119 119 119 118 117 116 114 113 112 111 110 109 109 109 109 108 107 106 105 104 103 102 101 99 98 96 95 94 96 99 100 99 97 95 93 91 90
123 124 124 124 125 125 124 124 124 124 123 123 123 123 122 122 121 122 121 121 120 118 116 115 114 113 112 111 111 111 110 110 109 108 107 106 105 104 103 101 100 98 97 97 100 102 102 100 98 97 95 93
121 122 123 124 125 125 126 126 126 126 126 125 125 125 125 124 124 124 124 124 123 122 120 119 117 116 115 114 114 112 112 112 111 111 110 109 108 107 106 105 103 102 101 100 102 104 105 104 102 100 99 96
118 119 120 121 121 122 123 124 125 126 126 126 126 126 126 126 126 125 126 126 126 125 124 123 121 120 118 117 116 115 114 114 113 113 112 111 110 109 109 108 106 105 104 103 104 106 107 107 106 103 102 100
118 118 118 118 118 119 119 120 121 123 124 125 126 126 127 127 127 127 127 127 127 127 126 126 125 124 122 121 119 118 117 117 116 114 114 114 112 111 110 110 109 108 107 106 106 108 110 111 109 107 105 103
120 120 120 119 119 119 118 118 118 119 120 122 123 125 126 127 127 127 127 127 128 128 128 128 127 126 125 124 123 121 120 119 118 117 116 116 115 114 112 112 111 110 109 108 108 109 112 113 112 110 108 107
122 122 122 122 122 122 121 120 119 118 119 119 120 121 123 125 127 128 128 128 128 128 129 129 129 128 128 127 126 125 123 122 121 120 119 118 118 116 115 114 113 111 110 110 110 111 113 115 115 113 112 110
122 122 123 124 124 124 124 123 123 122 121 120 119 119 120 122 124 126 128 129 129 129 129 129 130 130 130 129 128 128 127 125 124 123 122 121 120 119 117 116 115 113 112 111 112 112 113 116 116 116 114 113
121 122 123 123 124 125 126 126 126 125 125 124 122 121 121 121 121 123 125 127 129 129 130 130 130 130 131 131 130 130 129 128 127 126 125 124 122 121 120 119 117 116 115 114 113 113 114 116 117 118 117 115
121 122 123 123 124 124 125 126 127 127 127 127 126 125 124 123 122 122 122 124 126 128 129 130 131 131 131 131 131 131 131 130 129 129 128 127 125 124 123 121 120 118 117 116 116 115 115 116 117 119 118 117
120 121 122 123 124 125 125 126 126 127 128 129 129 128 128 127 126 125 124 123 124 125 126 128 130 132 132 133 133 132 132 132 132 131 130 129 128 127 126 124 123 121 120 119 118 118 117 117 118 119 119 118
120 120 121 122 124 125 126 126 126 127 127 128 129 130 130 130 129 128 127 126 125 124 124 125 127 129 131 133 134 134 133 133 133 133 132 131 130 130 129 127 126 124 122 122 121 120 120 119 119 120 120 120
121 121 121 121 122 123 125 126 127 128 128 128 128 129 130 131 131 131 130 130 128 127 125 125 125 126 128 130 133 134 135 135 135 134 133 133 132 132 131 130 128 127 125 124 123 122 122 122 121 121 122 121
121 121 122 122 122 122 123 124 126 127 128 128 128 128 129 129 130 131 132 132 131 130 129 127 126 125 125 127 129 131 133 135 135 136 135 135 134 134 133 132 131 129 128 126 126 125 124 124 124 123 124 124
120 121 122 123 123 124 124 124 124 125 126 127 128 128 129 129 129 130 130 131 132 132 132 130 129 128 127 126 126 128 129 132 134 135 136 136 136 136 135 134 133 131 130 129 128 127 126 126 125 125 126 126
120 120 121 122 123 124 124 124 124 124 124 124 126 127 128 129 129 129 129 130 130 131 132 132 132 131 130 129 128 127 127 128 130 132 134 136 137 137 137 136 135 134 132 132 131 130 129 128 128 128 127 127
121 121 121 121 122 122 123 124 124 125 125 125 125 125 126 128 129 129 130 129 129 129 130 131 132 132 132 132 131 130 129 129 128 129 130 132 134 136 137 138 137 136 135 134 133 132 131 130 130 129 129 129
120 121 121 122 122 122 122 123 124 125 126 126 126 127 127 127 127 128 129 130 130 130 130 130 130 131 132 133 133 133 132 131 131 130 130 130 131 133 135 137 138 138 138 137 136 135 134 133 132 132 131 131
119 119 120 121 122 122 122 123 123 124 125 126 127 127 128 127 127 127 128 129 130 131 131 131 130 130 131 132 133 134 134 134 134 133 132 132 131 131 132 134 136 138 138 139 138 137 137 136 135 134 133 133
117 117 118 119 120 121 122 122 122 123 124 125 126 126 127 127 127 127 127 128 128 129 130 131 131 131 131 131 132 133 134 135 136 136 136 135 134 133 132 132 133 135 136 138 139 139 139 139 138 137 136 136
113 115 116 117 118 119 119 120 120 121 122 123 123 124 125 126 126 127 127 127 128 128 128 129 130 131 132 132 132 132 133 134 135 136 137 137 137 136 135 134 133 133 134 135 136 138 139 140 140 139 139 139
110 111 112 113 114 115 116 117 117 118 119 120 121 122 122 122 123 124 125 126 127 127 128 128 128 129 130 131 132 132 132 133 133 134 136 137 137 138 137 137 136 135 134 133 134 135 137 139 140 141 141 141
107 108 109 109 110 110 111 112 113 114 115 116 117 118 119 119 120 121 122 124 125 126 127 127 127 128 128 129 130 130 131 132 133 133 134 134 136 137 138 138 138 138 136 135 134 134 135 136 137 138 140 141
104 105 106 106 106 106 106 106 107 108 110 111 112 113 114 115 115 116 119 121 123 123 125 125 126 127 127 127 128 128 129 130 131 132 133 133 134 135 136 138 139 140 139 138 137 136 136 135 135 135 136 138
100 101 102 101 101 101 101 101 102 103 104 106 107 108 109 110 111 112 115 118 119 120 121 123 123 124 125 126 127 127 128 128 129 130 132 133 133 134 134 135 137 139 140 140 140 139 138 137 137 136 135 135
97 98 98 98 97 97 97 97 98 99 100 102 103 104 104 105 106 108 111 115 116 117 118 119 120 121 121 123 124 126 127 127 128 129 131 132 132 133 134 134 135 137 138 139 140 141 141 140 139 138 137 136
95 96 96 95 94 94 95 95 96 97 97 98 99 100 101 101 102 104 107 111 113 114 115 116 117 117 118 119 121 123 124 125 127 129 130 131 132 133 133 134 134 135 136 137 137 139 140 141 142 141 139 139
93 94 94 93 93 93 93 92 92 94 95 95 96 97 98 99 100 102 104 107 109 110 110 112 113 114 115 117 119 120 122 123 125 127 129 131 132 133 133 133 134 134 135 136 136 136 137 139 140 141 141 141
88 89 89 90 90 89 89 88 89 91 93 93 94 95 96 97 98 100 102 104 106 106 107 109 109 111 112 114 116 117 119 121 123 125 127 129 131 132 133 133 133 133 134 136 136 136 136 136 138 139 140 141

ECMWFFLT2_250_spd_030.txt.gz
Wind_Speed
117 117 116 115 115 115 115 115 115 114 114 113 113 113 112 112 111 110 108 107 106 105 104 103 103 103 103 103 103 103 103 103 102 102 101 100 100 100 100 99 97 95 93 92 92 92 91 91 90 88 87 87
121 121 120 119 118 118 118 117 117 117 117 116 116 116 115 115 114 113 112 111 110 109 107 107 106 106 106 106 106 106 106 105 105 104 103 103 102 102 101 101 100 99 97 96 95 95 95 94 93 91 90 89
126 125 125 124 123 122 121 121 121 120 120 119 119 119 118 118 117 116 115 115 114 113 111 110 109 109 109 109 108 108 108 108 107 107 106 105 105 104 104 103 103 102 101 100 98 98 98 97 96 94 92 91
128 129 129 128 127 127 126 125 124 124 124 123 123 122 122 121 121 120 119 118 117 116 115 114 113 113 112 112 111 111 110 109 109 109 108 107 107 107 107 106 105 104 103 103 102 102 102 101 100 98 96 94
130 131 131 131 131 131 130 129 128 128 127 127 127 126 125 125 125 124 123 122 121 120 119 118 118 117 116 115 115 114 114 113 112 111 110 109 109 109 109 109 108 107 106 105 105 105 105 104 103 101 99 98
130 131 132 133 133 133 133 133 133 132 131 131 130 130 129 129 128 128 127 126 124 123 122 121 122 122 121 119 118 118 117 116 115 114 113 112 111 110 111 111 110 110 109 108 108 107 107 107 107 105 103 101
130 131 132 132 133 134 134 135 135 135 135 134 134 134 133 133 132 132 131 130 128 127 126 124 124 125 125 124 123 122 121 120 119 118 117 115 114 112 112 112 112 112 111 111 110 109 108 109 109 109 107 105
129 130 131 132 133 133 134 135 135 136 136 137 137 137 137 136 136 135 135 133 132 131 129 128 127 128 128 128 127 126 125 124 123 122 120 119 117 115 114 113 113 113 113 113 112 112 111 111 112 111 110 108
126 128 130 131 132 133 133 134 134 135 136 136 137 138 139 139 139 139 138 137 136 135 134 132 130 130 130 130 130 130 129 128 127 125 124 123 121 119 117 116 115 115 115 114 113 113 113 113 114 114 113 112
123 125 127 129 130 132 133 134 134 135 135 135 136 137 138 139 140 141 141 140 139 138 137 136 134 133 132 132 132 133 132 131 130 129 128 126 125 123 121 119 118 117 117 116 114 114 114 115 116 116 116 115
122 124 125 126 128 130 131 132 134 135 135 135 136 136 136 137 138 139 140 141 141 141 140 139 138 137 135 134 134 134 134 134 133 132 131 130 128 127 125 123 121 120 119 118 117 115 115 116 117 118 118 118
121 123 124 126 127 128 129 131 132 133 134 135 136 136 137 137 137 138 138 139 139 140 140 140 140 139 138 137 136 136 136 136 135 135 134 133 132 130 128 126 125 123 122 121 119 118 117 117 117 119 119 120
121 122 124 125 126 127 129 130 131 132 133 134 135 135 136 137 137 138 138 137 137 137 137 138 138 138 138 138 137 137 137 136 136 136 136 135 135 133 132 130 128 126 125 124 122 120 120 119 119 120 120 121
123 124 124 125 126 127 128 129 130 131 132 132 133 134 135 136 137 137 137 137 137 137 136 136 135 135 136 136 137 136 136 137 137 136 136 136 136 136 134 133 131 129 127 126 125 124 122 121 121 121 121 122
126 126 126 127 127 128 128 129 130 131 131 132 132 133 134 135 135 136 136 136 137 137 136 136 135 134 134 134 134 134 134 135 135 135 135 136 137 137 136 135 133 132 130 128 127 126 125 124 123 122 123 123
127 128 128 128 128 129 129 130 130 131 132 132 132 133 133 133 134 134 134 135 135 135 135 135 135 135 135 134 133 132 132 132 133 133 133 134 136 137 136 136 135 134 132 130 129 128 127 126 125 124 125 125
128 128 128 129 129 129 129 130 130 131 132 132 133 133 133 133 133 133 133 133 133 134 134 134 134 135 135 135 134 133 132 131 131 131 131 132 134 135 136 136 135 135 133 132 131 130 129 128 127 126 126 127
127 128 128 128 129 129 129 130 130 131 131 132 133 133 134 134 134 133 133 132 132 133 133 133 133 134 134 135 135 135 134 133 132 131 130 131 132 133 134 135 135 135 134 133 132 132 131 129 128 128 128 128
125 126 127 127 127 128 128 129 130 130 130 131 132 133 134 134 134 134 134 134 133 133 133 133 133 133 133 134 134 135 135 135 134 133 132 131 131 131 132 133 134 135 135 135 134 133 132 131 130 129 128 129
122 123 124 125 126 127 127 128 129 129 129 130 130 131 133 133 134 135 135 135 135 134 134 133 133 133 133 134 134 134 134 135 135 135 135 134 133 133 132 132 132 133 134 135 135 134 134 133 132 130 130 130
119 121 122 124 125 126 127 127 128 128 129 129 129 130 131 131 133 134 135 135 136 136 135 135 134 133 133 133 134 134 134 134 135 136 136 136 136 135 135 134 133 132 132 133 134 135 135 135 134 133 132 131
115 117 119 121 122 124 125 126 126 127 128 128 129 129 129 130 130 131 133 134 135 136 136 136 136 135 134 134 133 133 134 134 135 135 136 137 137 138 137 136 135 134 132 132 132 133 134 135 135 135 134 134
110 112 114 116 118 120 121 122 123 124 125 126 127 128 128 129 129 129 130 131 133 134 135 136 136 136 136 135 134 133 133 133 134 134 135 135 136 138 139 139 138 137 135 134 133 132 133 134 135 135 136 136
104 106 108 110 112 114 116 117 119 120 121 123 124 126 127 128 128 128 129 129 130 131 133 134 135 136 137 136 136 135 134 133 133 133 134 135 135 136 138 139 140 140 139 137 135 134 133 133 133 134 135 136
99 101 103 105 107 109 110 112 114 116 117 118 119 121 124 126 127 127 128 128 128 129 130 132 133 134 135 136 136 136 135 134 133 133 133 133 134 135 136 137 138 140 141 140 139 137 136 134 134 133 133 134
94 96 98 100 102 103 105 107 109 111 113 114 115 116 118 121 124 125 126 126 127 127 128 129 131 132 133 134 135 136 135 135 135 134 133 133 133 134 135 136 137 138 140 141 141 140 139 137 136 135 134 133
90 92 94 96 97 99 101 103 105 107 109 110 112 113 114 116 118 121 122 124 125 125 126 127 128 129 130 131 132 133 134 135 135 135 134 134 133 133 134 135 136 136 137 139 140 141 141 140 140 138 137 135
88 90 92 94 95 97 99 100 102 103 104 106 108 110 111 112 113 115 117 119 121 123 124 126 127 127 127 128 129 131 132 133 134 134 135 135 134 134 134 134 135 136 137 137 138 139 140 141 142 141 140 138
84 86 89 91 92 94 96 97 98 100 101 103 105 107 108 109 110 111 113 115 117 119 121 123 125 126 125 125 126 127 129 130 131 132 133 134 134 134 134 134 134 135 136 136 137 138 138 140 141 141 141 141
80 82 85 87 88 90 91 92 93 95 96 98 101 103 104 104 105 107 108 111 113 115 117 119 122 123 123 123 123 124 125 127 128 130 131 132 133 134 134 134 135 135 135 136 137 138 138 138 139 139 140 141
77 78 80 82 84 86 88 89 90 91 92 94 96 97 98 98 99 101 102 104 107 110 112 115 117 119 120 119 120 120 122 123 125 126 128 129 131 132 133 134 134 134 135 136 136 137 137 138 138 138 139 140

ECMWFFLT2_250_spd_033.txt.gz
Wind_Speed
125 124 123 122 121 121 121 120 119 118 117 117 117 116 115 114 114 113 112 111 111 110 110 109 108 106 104 104 103 102 100 98 96 95 93 92 93 95 96 97 98 98 97 97 97 96 95 93 91 90 88 87
129 129 128 127 125 124 124 123 122 121 120 120 120 119 119 118 116 115 115 114 113 113 112 111 110 109 108 107 106 105 104 101 99 98 96 95 95 96 98 99 100 101 100 99 98 99 99 98 96 94 92 91
133 132 132 131 130 129 128 127 126 125 124 123 122 122 121 121 120 119 118 117 116 115 115 114 113 112 111 110 109 108 107 105 103 101 100 99 98 98 99 101 102 103 103 101 100 100 101 101 100 98 96 95
135 135 135 134 134 133 132 131 130 129 128 126 126 125 124 124 123 122 121 120 119 118 118 117 116 114 114 113 112 111 110 108 106 105 103 103 102 101 101 102 103 105 105 104 102 102 102 103 103 102 100 99
136 136 137 137 137 136 136 135 134 133 132 130 129 128 128 127 126 126 125 124 122 122 121 120 118 117 117 116 115 114 113 111 109 108 107 106 106 105 104 104 105 106 107 107 106 105 105 105 105 104 103 102
134 136 137 138 138 138 138 138 137 136 136 134 133 132 131 131 130 129 128 127 126 125 125 123 122 121 120 120 119 118 116 114 113 112 111 110 109 108 107 107 107 107 108 109 108 109 109 108 107 106 106 105
131 133 135 136 137 138 139 139 139 139 139 138 137 136 135 134 134 133 132 131 130 129 128 127 126 125 124 123 123 121 118 117 116 116 115 113 112 111 110 110 110 109 110 110 110 111 112 111 110 109 108 107
128 129 131 133 135 136 138 139 140 140 140 140 140 139 139 138 137 136 136 134 133 132 131 130 130 128 127 127 127 124 122 120 120 119 118 116 116 114 113 113 112 111 111 112 112 112 113 113 112 112 111 110
126 127 128 129 131 133 135 137 138 139 140 141 141 141 141 140 140 140 139 138 137 136 135 134 133 132 131 131 130 128 125 124 123 123 121 120 119 117 116 116 114 113 113 114 114 114 114 114 114 114 114 113
125 126 127 128 129 130 132 133 135 137 138 139 141 141 142 142 142 142 141 141 140 139 138 137 136 136 135 135 133 131 129 127 127 126 125 123 122 121 119 118 117 116 115 115 116 116 115 116 116 116 116 116
123 125 126 127 128 129 129 130 132 133 135 136 138 140 141 142 142 143 143 143 143 142 141 140 140 139 139 139 137 134 132 131 131 130 129 128 126 124 123 121 120 119 118 117 117 116 116 117 118 118 118 117
123 123 124 126 127 128 129 130 130 131 132 133 135 136 138 140 141 142 143 144 144 144 143 143 143 142 142 142 140 138 136 135 134 133 133 132 130 128 127 125 124 122 121 120 119 118 117 117 118 119 119 119
125 124 125 125 126 127 128 129 130 131 131 132 132 133 135 137 138 139 140 142 143 144 145 145 145 145 144 144 143 141 140 139 138 136 136 136 135 133 131 129 128 126 125 124 122 120 119 119 119 119 119 120
128 127 127 127 127 127 128 129 130 131 131 132 132 132 133 134 135 136 137 139 141 142 144 145 145 146 146 146 145 144 142 142 141 140 139 138 138 137 135 134 132 130 129 128 126 124 123 122 121 120 120 120
130 130 130 130 129 129 130 130 130 131 132 132 132 132 133 133 134 134 135 136 138 140 142 143 144 145 146 147 147 146 145 144 143 142 142 141 141 140 139 138 137 135 133 132 130 128 127 126 125 124 123 122
131 132 132 132 132 132 132 132 132 132 133 133 133 133 134 134 134 134 134 134 136 137 139 141 142 144 145 146 146 146 146 146 145 145 144 143 143 143 142 142 141 140 138 136 135 133 131 130 129 128 127 125
130 131 133 133 134 134 134 134 134 134 134 134 134 135 135 135 135 134 134 134 135 136 137 138 140 141 143 144 145 146 146 146 146 146 145 145 145 145 144 144 143 143 142 140 139 137 135 134 132 132 131 129
126 129 131 133 134 135 135 136 136 136 136 136 136 136 136 136 136 135 135 135 135 135 136 137 138 139 140 142 143 144 145 145 145 145 146 146 146 146 146 145 145 145 145 144 142 141 139 138 136 135 134 133
121 124 127 130 132 134 135 136 137 137 137 137 137 137 137 137 137 137 136 136 136 136 136 137 137 138 139 140 141 142 143 144 144 145 145 145 146 146 146 146 146 146 146 146 145 144 142 141 140 139 137 136
116 119 122 125 128 131 133 135 136 137 137 137 137 137 137 137 138 138 138 137 137 137 137 137 137 138 138 139 140 140 141 142 143 144 144 144 145 145 146 146 146 146 146 146 146 146 145 144 143 142 140 139
110 113 116 120 123 126 129 131 134 135 136 136 137 137 137 138 138 139 139 139 139 138 138 138 138 138 138 139 139 140 140 141 141 142 143 143 144 144 145 145 145 145 145 146 146 146 146 146 145 144 143 142
103 106 110 113 116 120 123 126 129 131 133 134 136 136 137 137 138 139 140 140 140 140 140 139 139 139 138 139 139 140 140 141 141 141 142 142 142 143 144 145 145 144 145 145 145 145 146 146 146 145 145 144
96 99 102 106 109 113 116 120 123 125 128 131 133 134 135 136 137 138 139 140 141 141 141 141 141 140 139 139 139 139 140 141 141 141 141 141 141 142 142 143 144 144 144 144 144 144 144 145 146 145 145 145
91 94 97 100 103 106 110 113 116 119 122 125 128 129 131 133 135 136 137 138 139 139 140 140 141 141 140 140 140 140 140 141 141 141 141 141 141 141 142 142 143 143 144 144 144 144 144 144 145 145 144 144
87 90 92 95 98 101 104 107 109 112 116 119 122 124 126 128 130 132 134 135 136 136 136 137 138 139 140 140 141 141 141 141 141 141 141 141 142 142 142 141 142 142 143 143 143 144 144 144 144 145 144 143
82 85 88 91 93 96 99 101 103 106 109 112 115 117 120 122 125 128 130 132 133 134 134 134 135 136 137 138 140 140 141 141 141 141 141 141 142 142 142 142 142 142 142 142 142 143 143 144 144 145 145 143
77 80 83 87 90 93 95 96 98 100 103 106 108 111 113 115 118 121 124 127 129 131 132 133 133 134 135 136 137 138 139 140 141 141 141 141 141 141 142 142 142 142 141 141 141 141 142 142 143 144 145 145
73 75 79 83 86 89 91 93 95 97 99 101 103 105 108 110 112 115 118 121 123 126 129 131 132 133 134 135 136 136 137 137 139 139 140 141 141 141 141 141 142 142 142 141 141 140 140 141 142 143 144 145
69 72 76 79 81 83 86 88 91 94 96 99 101 102 105 107 108 111 113 116 119 121 124 127 129 131 133 134 135 136 136 135 136 137 138 139 140 141 141 141 141 141 142 142 141 140 140 140 140 141 143 144
64 68 72 75 77 79 82 84 87 90 93 95 98 100 102 104 105 106 108 111 114 117 120 123 126 128 129 131 133 134 135 135 135 135 135 136 138 139 139 140 140 140 141 141 141 141 141 140 140 140 141 142
58 62 66 70 73 76 78 81 83 86 89 92 95 96 98 100 101 102 104 106 109 112 115 118 121 124 126 127 129 130 132 133 133 134 135 135 135 136 137 138 139 139 140 140 140 141 141 141 141 140 140 141

ECMWFFLT2_250_spd_036.txt.gz
Wind_Speed
132 131 129 128 127 127 126 125 124 123 123 122 121 120 119 118 116 114 113 113 112 111 110 109 108 107 106 105 103 101 99 98 96 94 93 92 92 92 92 92 91 90 88 86 86 87 87 87 87 86 86 87
134 134 132 131 130 130 129 129 128 127 126 125 124 123 123 122 120 118 117 116 115 114 113 112 111 110 110 109 107 105 104 103 101 99 97 96 96 96 95 95 94 93 91 90 89 89 90 90 90 89 89 89
135 135 135 134 133 133 132 132 131 131 130 129 128 127 126 125 124 122 121 120 118 117 115 115 114 114 113 112 111 109 108 107 105 103 102 101 100 99 98 98 97 96 95 93 92 91 92 93 93 93 92 91
134 135 135 135 135 135 135 134 134 134 133 132 131 130 130 129 128 126 125 124 122 120 118 118 117 117 116 114 114 113 112 110 109 108 106 105 103 102 101 101 100 99 98 97 95 94 94 95 96 96 95 94
131 132 134 135 135 136 136 136 136 136 136 136 135 134 133 132 131 130 129 128 126 124 122 121 120 120 118 117 117 116 115 114 112 111 110 109 108 106 104 104 103 103 102 101 99 98 97 97 98 98 98 98
128 130 131 132 134 135 136 136 137 137 138 138 138 137 136 135 134 133 132 132 131 128 126 125 124 123 121 120 119 119 119 117 115 113 112 112 111 110 108 107 106 106 105 104 103 102 100 100 100 100 101 101
126 128 129 130 131 133 134 136 137 137 138 139 139 139 139 138 137 136 135 135 134 133 131 129 128 126 125 124 123 122 121 120 118 116 115 115 114 113 112 111 110 109 108 107 107 105 104 103 103 102 102 102
123 125 127 128 129 130 132 134 135 137 138 138 139 139 140 140 140 139 138 138 137 136 135 133 132 130 129 128 127 125 124 123 121 119 118 118 117 116 115 113 112 112 111 110 110 109 107 106 106 104 104 104
119 122 124 126 127 128 129 131 132 134 136 137 138 139 140 141 141 141 141 140 140 139 138 137 136 134 133 132 131 129 127 126 125 123 121 121 121 119 118 116 115 114 113 113 112 111 110 109 108 107 106 106
118 119 121 123 125 126 127 128 130 131 133 135 136 138 139 140 141 142 142 142 142 142 141 140 139 138 137 136 134 133 131 130 128 127 125 124 124 123 121 119 118 116 115 115 114 114 113 111 110 109 109 108
119 119 120 121 122 124 126 127 128 130 131 133 134 136 137 138 140 141 142 143 143 143 143 143 142 141 140 139 138 137 135 134 132 131 129 128 127 126 124 122 121 119 119 118 116 116 115 113 112 111 111 110
118 118 119 120 121 122 123 125 127 128 130 131 132 133 135 137 138 139 140 142 143 144 144 144 144 144 143 142 141 140 139 137 136 134 133 131 130 129 127 125 124 123 122 121 119 118 117 115 114 114 113 113
119 118 119 120 121 122 123 124 126 127 128 130 131 131 133 135 136 137 138 140 141 142 144 145 145 145 145 144 144 143 142 141 139 138 136 135 134 133 131 129 128 126 125 124 122 120 119 117 116 116 116 115
121 121 121 121 121 122 123 124 125 126 127 129 130 130 131 133 135 135 136 137 139 140 142 144 145 146 146 146 146 145 144 144 143 141 140 139 137 136 135 133 131 129 128 128 126 124 121 120 118 118 118 118
122 122 123 122 122 123 123 124 125 126 127 128 129 130 131 132 133 133 135 136 137 138 140 142 143 145 146 147 147 147 146 146 145 144 144 142 141 140 139 137 135 133 132 130 129 127 124 123 121 121 120 120
119 121 122 123 124 124 124 125 125 126 126 127 128 129 130 132 132 133 133 134 136 137 138 139 141 142 144 146 147 148 148 147 147 147 146 146 145 144 143 141 139 137 135 133 132 130 128 127 125 124 123 123
113 116 118 120 122 123 124 124 125 126 126 127 127 129 130 131 132 133 133 133 134 136 137 138 139 140 142 144 146 147 147 148 149 149 148 148 148 147 146 145 143 140 138 137 136 134 133 131 129 128 126 125
106 109 112 114 117 120 121 123 125 126 126 127 128 128 129 130 131 132 133 134 134 135 136 137 138 139 140 141 143 145 146 148 149 149 149 149 149 149 149 148 146 144 141 140 139 138 137 135 133 131 130 128
99 102 105 108 111 114 117 120 122 124 126 127 128 129 129 130 131 132 133 134 134 135 135 136 136 138 139 139 140 142 143 146 147 149 149 150 151 151 150 150 149 147 145 143 142 141 140 139 137 135 133 132
93 97 100 103 106 110 113 116 119 122 124 126 127 129 130 131 131 133 134 134 135 135 136 136 136 137 137 138 139 140 141 143 145 146 148 149 150 151 151 151 151 150 148 147 145 144 143 142 141 139 137 135
87 91 95 98 101 105 108 111 115 118 121 123 126 128 129 131 132 133 134 135 136 136 136 137 137 137 137 137 137 138 139 141 142 143 145 147 149 150 150 151 151 151 150 149 148 147 146 145 144 143 141 139
82 86 90 93 96 99 101 104 108 111 115 119 122 125 127 129 131 133 135 136 137 137 137 137 138 138 138 138 137 137 138 139 141 142 143 144 146 147 148 149 150 151 151 151 150 149 148 147 146 146 145 143
78 81 84 88 91 95 97 100 103 105 109 112 116 119 122 125 128 131 134 135 137 138 139 139 139 138 139 139 138 138 138 138 139 141 141 142 143 144 145 146 148 149 150 150 151 150 150 150 149 148 147 147
73 76 80 83 86 90 93 96 99 102 104 107 110 112 115 118 122 126 130 132 134 136 138 140 140 140 139 139 139 139 139 139 139 140 141 141 142 142 143 144 145 146 148 149 149 150 150 150 150 150 149 149
70 72 76 78 81 85 88 92 95 97 100 103 105 108 111 114 116 119 123 127 130 133 136 138 139 140 140 141 140 141 141 141 141 141 141 141 141 141 141 142 143 144 145 146 147 148 149 149 150 150 150 150
65 69 71 74 77 80 84 88 91 93 95 98 101 103 106 110 113 115 117 120 124 128 131 134 136 138 140 141 141 141 142 142 142 142 142 142 141 141 141 141 142 143 143 143 144 145 146 147 148 149 150 150
59 62 66 70 73 77 81 84 87 89 91 94 97 99 102 105 109 112 114 116 119 122 125 128 131 134 137 139 140 141 142 142 143 143 143 143 143 142 142 141 141 142 142 142 142 143 144 144 146 147 148 149
54 56 59 63 68 73 77 81 84 86 88 90 93 96 99 102 105 108 110 112 115 118 120 123 126 129 132 135 137 138 140 141 142 143 143 143 143 143 143 142 142 143 142 142 141 142 142 142 143 145 146 147
50 52 53 57 62 66 71 76 80 83 85 87 89 92 95 98 101 104 106 108 111 113 116 119 122 125 128 130 132 134 136 138 140 141 142 143 143 143 143 143 144 144 144 143 142 142 141 141 142 142 143 145
46 48 50 53 57 61 64 69 74 77 80 83 86 88 91 94 97 100 102 105 107 109 111 114 117 121 124 127 129 131 133 135 137 139 141 142 142 142 142 143 143 144 145 145 144 143 142 141 141 141 142 143
43 44 46 50 53 57 60 63 67 70 74 78 81 85 88 90 93 96 98 101 103 105 107 109 113 115 118 122 125 127 130 132 134 137 138 140 141 141 142 142 142 143 144 145 145 145 144 143 143 142 142 142

ECMWFFLT2_250_spd_042.txt.gz
Wind_Speed
120 120 121 122 125 127 128 130 131 132 133 133 132 133 133 131 130 129 127 125 125 123 122 120 118 115 112 109 106 104 102 100 99 97 96 95 93 93 92 92 92 91 90 89 88 87 87 86 85 83 83 82
117 117 117 118 120 124 126 128 130 131 132 132 131 132 133 132 132 131 130 129 128 128 126 125 123 120 117 114 112 109 107 104 103 101 99 98 97 96 96 95 94 93 92 91 91 90 89 89 88 87 86 85
113 112 112 112 114 117 122 125 128 129 130 131 131 132 133 133 133 132 131 131 131 130 130 128 127 124 121 119 116 114 112 109 107 105 103 101 100 100 99 98 97 95 94 93 92 92 91 91 90 90 89 88
114 112 110 109 108 110 114 119 123 127 129 130 130 132 133 133 133 133 133 132 132 132 131 130 129 128 126 123 120 118 116 114 112 110 108 106 105 104 102 101 100 98 97 96 95 94 93 93 92 92 92 91
117 115 113 111 108 105 106 110 115 121 125 127 129 131 133 134 134 133 134 133 133 133 132 132 131 130 129 127 125 122 120 119 117 115 113 111 109 107 106 105 104 102 101 100 98 96 95 94 94 95 95 94
116 117 117 115 112 108 104 103 107 112 117 122 125 129 132 133 134 134 134 134 134 133 133 133 133 132 131 130 128 126 124 123 121 119 117 115 113 111 110 109 107 106 105 103 101 100 98 96 96 96 97 97
112 116 118 117 116 114 110 105 103 106 110 114 118 123 128 131 133 133 134 135 135 135 134 134 134 134 133 132 130 128 127 126 125 123 121 119 117 115 114 113 112 110 109 107 105 104 102 100 99 98 97 98
105 111 116 118 119 118 116 112 108 105 106 109 112 117 122 127 130 131 133 134 136 136 135 135 134 134 134 133 132 130 129 128 128 126 124 122 120 119 118 117 116 114 113 111 109 108 106 104 102 100 99 99
99 104 110 115 119 120 120 120 116 111 108 108 110 113 117 121 125 128 130 132 134 136 136 135 134 134 134 134 133 132 131 131 131 129 128 126 124 122 121 120 120 118 117 115 113 111 110 107 105 104 102 101
96 100 105 110 115 119 121 122 122 119 115 112 112 113 115 118 121 124 126 129 132 134 135 136 134 133 134 134 134 133 133 133 132 132 130 129 127 125 124 123 123 122 121 119 117 115 114 111 109 107 106 105
91 96 100 105 110 115 119 122 123 122 119 117 115 116 117 118 119 120 123 125 128 130 132 134 134 133 132 133 134 134 134 134 134 134 133 131 130 128 127 126 126 125 124 123 121 119 118 115 113 112 109 108
83 90 95 99 104 109 114 118 122 123 122 120 118 117 118 120 120 120 121 123 124 126 128 131 133 132 131 130 132 134 135 135 135 135 135 133 132 131 130 129 129 128 128 126 125 123 121 119 118 116 114 112
77 82 88 93 98 102 107 112 117 121 123 123 121 119 118 119 121 121 121 123 124 125 126 128 129 131 130 129 130 133 135 136 136 137 137 136 134 133 132 132 132 131 131 129 128 127 124 122 121 120 118 115
72 76 81 86 91 95 99 104 109 115 120 123 123 122 120 118 119 121 122 123 124 125 126 127 127 129 130 129 128 131 134 136 137 137 138 137 136 135 135 135 134 134 133 133 131 130 128 126 125 124 122 119
68 72 76 80 84 88 92 95 100 106 113 118 122 123 122 120 118 119 121 123 125 126 127 128 128 128 129 129 128 128 132 135 137 138 139 139 138 137 137 137 137 137 136 135 134 132 130 129 128 127 126 123
64 67 71 75 78 82 85 88 92 97 103 110 115 119 121 121 119 118 120 122 124 126 127 128 129 129 129 129 129 128 129 132 135 138 139 139 139 139 139 140 139 139 138 138 137 135 133 133 132 131 129 126
61 63 66 70 73 76 79 82 85 89 94 100 106 111 116 118 119 119 120 121 123 125 127 128 129 131 131 130 129 129 129 130 133 136 139 140 140 141 141 141 141 141 141 140 139 138 137 136 135 134 132 129
59 60 62 65 68 71 74 77 80 83 87 92 97 103 107 112 115 117 119 121 122 124 126 127 129 130 131 131 131 130 130 130 131 134 137 139 140 141 142 143 143 143 143 142 141 141 140 140 139 137 135 132
55 57 59 61 63 67 70 73 76 79 82 86 90 95 100 104 109 112 116 119 121 123 125 126 128 129 130 131 132 131 131 131 131 132 135 138 140 142 143 144 145 145 144 144 144 143 143 142 141 140 138 136
51 53 56 59 61 63 66 69 73 76 79 81 85 90 94 98 102 107 111 115 118 121 123 125 126 128 129 130 131 132 132 132 133 133 134 136 138 141 143 144 146 146 146 146 146 146 145 145 144 142 141 139
49 50 53 56 59 61 63 66 69 73 76 78 81 85 89 93 97 101 105 109 113 117 120 122 125 126 128 129 130 132 133 133 134 134 135 136 137 139 141 144 146 147 147 148 148 148 148 147 146 145 144 142
46 47 50 53 56 58 61 62 65 69 73 75 78 81 84 88 91 95 100 104 108 112 115 118 121 125 127 128 129 131 132 134 134 135 135 136 137 138 140 142 144 146 148 148 149 150 150 149 149 147 146 145
44 44 46 49 53 56 58 60 62 65 69 72 75 77 79 83 86 90 94 99 103 107 111 114 117 121 124 127 128 129 131 133 134 135 136 136 137 138 139 141 143 144 146 148 149 151 152 152 151 149 148 147
48 46 45 46 49 53 55 58 59 61 65 68 71 74 76 78 82 85 89 94 98 102 106 110 113 116 120 123 126 128 130 132 134 135 136 137 138 138 139 140 142 143 144 146 148 150 152 153 153 152 151 150
51 48 47 46 46 48 52 55 57 59 61 63 66 70 73 75 78 81 85 89 93 97 101 105 108 111 114 118 122 125 128 130 132 134 136 137 138 139 139 140 142 143 143 144 146 148 150 153 154 154 153 153
54 50 47 47 47 47 48 51 54 57 58 60 62 65 69 72 74 77 80 84 88 92 96 100 104 107 110 114 118 122 125 128 131 133 135 137 139 140 140 141 142 143 144 144 145 147 148 151 153 155 155 155
57 52 47 45 45 46 47 47 50 53 55 56 58 60 63 67 70 73 76 80 83 88 92 96 100 103 107 111 114 118 122 126 129 131 134 136 138 140 141 142 142 143 144 145 145 146 147 149 152 154 155 156
59 54 49 44 42 43 45 46 46 48 51 53 54 56 58 61 65 68 71 74 79 83 87 91 95 99 103 107 110 114 118 122 126 129 132 135 137 139 141 142 143 144 145 145 146 146 147 148 150 152 154 155
61 57 52 46 42 40 41 43 43 44 47 49 50 52 54 57 60 64 67 70 73 78 83 87 91 95 99 103 107 110 113 117 122 126 130 133 135 138 140 142 144 145 146 146 146 147 148 148 149 150 152 154
62 59 55 50 44 39 38 39 41 41 43 45 47 48 50 53 56 60 64 66 69 73 78 83 87 91 95 99 103 106 110 114 117 122 126 130 133 136 138 141 144 146 147 147 147 148 149 149 149 150 151 152
64 59 55 52 47 43 38 37 38 39 40 42 44 45 47 49 52 56 61 64 67 69 73 77 82 87 91 95 99 103 106 110 113 117 121 126 130 133 136 139 142 145 147 148 148 149 149 150 150 150 151 152

ECMWFFLT2_250_spd_048.txt.gz
Wind_Speed
95 97 98 99 100 100 99 99 100 100 101 102 102 103 104 105 106 106 105 103 101 103 108 113 115 116 117 117 116 116 115 115 116 117 115 113 112 112 111 110 108 103 99 97 94 91 91 90 89 88 87 87
94 96 97 98 98 98 98 97 97 98 98 99 100 101 102 104 105 106 105 105 103 100 102 109 113 115 117 117 117 117 116 116 117 117 117 116 115 115 115 113 111 109 106 103 99 96 94 93 92 91 91 89
92 94 95 96 96 96 95 95 94 94 95 96 98 99 100 102 105 107 106 105 106 103 100 104 109 113 115 117 117 117 117 117 117 118 118 117 117 118 118 116 114 113 112 110 106 102 99 96 93 92 93 93
89 91 92 93 93 93 92 91 90 90 91 93 94 95 97 99 102 105 107 107 107 107 105 103 106 110 113 115 116 118 119 117 117 118 119 118 118 119 119 118 117 117 116 115 112 108 105 100 96 94 95 95
87 89 90 90 91 90 89 87 87 86 87 88 90 91 93 95 98 101 105 107 108 110 110 108 107 108 111 113 114 117 119 119 118 118 120 120 119 120 120 120 120 119 120 119 117 114 110 106 100 97 97 96
85 87 88 89 89 88 87 85 84 83 84 85 87 89 91 93 96 99 102 105 107 109 112 113 111 109 110 112 113 114 118 120 119 119 120 120 121 121 122 122 122 122 122 121 119 117 115 112 107 103 101 99
85 86 87 87 87 87 86 84 83 82 82 83 85 87 89 91 93 97 100 103 105 107 109 114 115 112 111 113 113 114 116 119 121 121 121 121 122 123 123 124 124 124 123 122 121 119 118 117 113 109 106 104
84 85 86 86 86 85 85 83 82 80 80 81 82 84 86 88 90 93 97 101 104 106 107 111 115 115 113 115 115 115 115 117 120 122 122 122 123 124 125 126 126 126 124 123 122 120 119 119 118 114 111 109
83 84 84 84 84 84 83 83 82 80 80 80 80 82 84 86 88 90 93 98 102 105 107 109 112 115 115 116 117 117 117 118 120 122 124 124 124 125 127 128 129 128 126 125 123 122 121 120 120 118 116 114
83 84 83 84 84 83 83 83 82 81 80 80 79 80 81 83 85 87 89 94 99 102 105 107 110 113 115 116 117 119 119 119 121 122 124 126 125 126 128 129 130 129 128 126 124 123 122 121 120 120 119 118
83 83 83 84 85 84 84 84 83 81 79 78 77 77 77 78 81 84 86 89 95 99 102 105 107 110 113 115 117 120 120 120 122 123 124 126 127 127 129 130 131 131 129 128 127 125 124 123 122 121 121 121
82 83 84 85 86 86 86 85 84 82 79 76 74 74 74 75 76 80 83 86 91 96 100 103 105 108 111 114 117 120 122 121 122 124 125 126 127 129 129 130 131 132 131 130 129 128 127 125 124 123 123 123
81 83 84 85 86 87 87 87 86 84 81 78 74 72 71 72 73 75 79 83 88 93 99 102 104 107 110 113 117 120 123 123 123 125 127 127 127 129 130 131 132 133 132 132 131 131 130 128 126 125 125 124
80 82 83 84 86 87 87 87 87 87 85 82 78 73 69 69 70 71 74 79 84 90 97 101 103 105 109 112 117 120 123 125 125 126 128 129 128 129 131 132 134 134 134 133 132 132 133 132 130 128 127 126
79 80 81 82 84 85 86 87 87 87 86 84 81 77 71 66 66 68 70 74 79 86 93 99 103 105 108 112 116 120 123 126 127 127 129 130 131 131 132 133 135 135 135 134 133 133 134 135 134 132 130 129
78 79 80 81 82 84 85 85 85 86 86 85 82 78 73 66 62 64 68 70 74 80 87 94 100 105 108 111 116 120 123 126 129 129 129 131 133 134 134 135 136 136 135 134 134 135 135 136 137 136 134 133
78 79 80 80 81 82 83 83 83 84 84 84 82 78 74 68 61 60 64 68 70 74 81 88 95 102 106 110 114 119 123 126 129 131 131 132 133 136 136 137 136 136 135 133 133 135 137 138 139 139 138 137
78 78 79 80 80 81 81 82 81 81 81 81 80 77 73 69 63 58 60 65 67 69 74 82 89 96 102 106 111 116 122 126 129 132 133 133 134 136 138 138 137 136 134 133 134 135 137 139 141 141 141 140
78 78 79 79 80 80 80 80 80 79 79 79 78 75 71 68 64 59 57 60 65 66 68 74 82 90 96 102 106 111 117 123 127 131 134 135 135 136 138 139 138 136 135 133 134 136 138 139 142 143 144 143
78 78 79 79 79 79 79 78 78 77 76 76 75 73 69 66 62 60 57 57 61 65 65 68 75 83 90 96 101 105 111 117 123 129 133 135 135 136 137 139 139 137 135 134 135 136 137 139 142 145 146 146
79 79 78 78 78 78 78 77 76 75 74 73 73 71 68 64 61 59 57 55 57 62 63 64 68 76 83 90 96 101 105 111 117 124 130 133 135 136 137 138 138 137 136 135 136 136 137 139 141 144 147 148
79 79 78 78 78 78 77 77 75 73 72 71 70 70 67 63 59 57 56 54 53 57 60 62 64 70 77 84 90 96 100 105 111 117 124 130 133 134 136 137 137 137 137 136 137 137 137 139 142 144 147 149
79 79 79 78 77 77 77 77 75 73 71 68 67 68 66 61 57 54 54 54 52 52 55 59 61 65 71 79 84 90 96 100 105 111 118 125 129 132 134 136 136 136 137 137 138 138 138 139 142 144 147 148
79 79 79 78 77 78 77 77 76 74 71 68 66 66 65 61 56 53 51 51 52 51 51 54 58 62 67 73 79 85 91 96 101 105 112 119 125 129 132 135 136 136 136 138 139 140 140 140 142 144 147 148
79 79 78 78 78 78 78 77 77 75 72 69 65 64 64 61 55 51 49 48 50 51 50 50 54 59 63 68 74 80 85 91 96 101 106 112 119 125 130 133 136 136 137 138 140 141 142 142 142 144 147 148
80 79 79 79 78 78 78 78 77 76 74 70 66 64 63 61 56 51 48 46 46 49 50 49 50 54 60 64 69 76 81 86 91 96 100 105 112 120 126 131 134 136 138 139 140 142 144 145 144 145 146 147
81 81 80 79 79 78 78 78 77 77 75 72 68 64 62 61 57 52 47 45 44 45 48 49 49 50 55 61 65 70 76 81 86 91 96 100 105 112 120 126 131 134 137 140 141 142 145 146 146 146 146 146
84 83 82 81 80 79 78 78 78 77 75 73 69 65 62 61 58 53 48 45 43 43 44 47 49 49 51 56 62 66 71 77 82 87 92 96 101 106 113 120 126 131 136 139 141 142 145 147 148 148 147 146
87 87 85 83 82 80 79 78 77 77 76 73 70 66 62 60 58 55 50 45 43 42 42 44 47 48 49 52 57 62 67 72 77 82 87 92 97 102 107 114 121 127 132 138 142 144 145 147 149 149 148 146
90 90 88 86 84 82 81 79 78 77 76 73 69 66 62 60 58 55 52 47 43 41 41 41 43 46 48 50 54 58 63 67 72 78 83 88 93 98 103 108 114 121 127 134 141 145 146 146 149 151 150 149
93 93 91 89 87 85 82 81 79 77 76 74 70 66 62 59 57 55 52 49 45 41 40 40 41 43 46 49 51 55 59 64 68 73 79 84 90 95 99 104 109 116 122 128 136 143 147 147 148 151 153 152

ECMWFFLT2_250_spd_054.txt.gz
Wind_Speed
76 76 77 77 77 77 77 78 78 79 80 81 82 83 84 86 88 90 91 91 92 92 92 93 94 95 95 95 94 93 92 92 93 95 96 99 103 104 103 103 104 104 106 106 105 105 106 106 106 105 103 100
77 77 77 77 77 77 78 78 78 79 79 80 81 82 84 86 88 89 90 91 92 92 92 93 94 96 96 96 95 94 94 94 93 93 94 95 99 103 103 103 106 108 108 108 108 108 109 110 109 108 107 105
77 77 77 77 77 77 78 78 79 79 79 80 80 82 83 85 86 88 89 89 90 91 92 93 94 95 96 96 96 95 95 95 95 94 94 94 95 98 101 102 105 110 111 111 112 111 112 112 112 111 110 109
78 77 77 77 77 77 77 78 78 78 78 79 79 81 82 83 84 85 86 87 88 89 91 92 93 94 94 94 94 94 93 95 95 94 94 95 95 94 97 100 102 108 113 114 114 115 114 115 115 114 113 112
77 77 76 76 76 76 76 77 77 77 77 78 79 80 81 81 82 83 84 85 87 88 89 91 92 94 94 93 92 92 92 93 94 95 95 95 96 95 94 97 100 105 112 116 117 117 117 117 118 118 116 115
76 75 75 74 74 74 74 74 74 75 75 76 77 78 79 80 81 82 83 84 85 87 88 90 92 93 93 93 92 91 91 92 93 95 96 95 96 96 95 95 98 102 108 115 118 118 118 120 121 121 119 118
73 72 71 71 71 70 70 69 69 70 71 72 74 75 76 77 78 80 81 83 85 86 88 90 91 93 93 93 91 90 89 90 92 94 96 97 96 97 97 95 96 100 104 111 118 120 119 121 123 124 123 121
68 67 67 66 65 64 63 62 63 64 66 68 69 71 73 75 76 78 80 82 84 86 87 89 90 92 92 92 91 89 87 88 90 92 95 97 97 97 98 97 95 98 103 108 115 120 121 121 124 125 126 124
63 62 62 60 59 57 57 57 58 61 63 65 67 69 72 74 76 78 80 82 84 86 87 88 89 90 91 91 90 88 86 85 87 90 94 97 98 97 98 98 96 97 101 106 111 117 121 121 123 126 128 127
58 57 55 53 52 52 53 55 57 59 62 64 67 69 72 75 77 79 81 83 85 86 87 88 89 89 89 89 89 88 85 83 84 86 90 95 98 99 99 99 98 97 99 103 109 115 120 122 123 126 128 129
53 51 49 49 50 51 54 56 58 61 63 66 68 71 73 76 78 80 82 84 86 87 87 88 88 87 87 87 86 85 83 81 81 82 86 91 96 99 99 100 100 98 98 101 106 112 118 121 122 124 128 130
46 46 46 48 50 53 55 58 60 63 65 67 70 72 74 77 79 81 83 84 86 87 88 87 87 86 86 85 84 82 81 79 78 78 81 86 92 97 99 100 101 100 98 99 103 109 115 120 121 123 127 130
43 45 47 50 52 55 57 59 62 64 67 69 71 74 75 77 79 81 83 84 86 87 88 88 87 86 85 84 83 82 80 77 75 75 77 82 88 94 98 100 101 101 100 99 101 106 112 118 121 122 126 129
44 46 49 52 55 57 59 62 64 66 69 70 72 74 76 78 79 81 83 85 86 87 88 88 87 86 85 84 84 82 80 77 74 73 74 77 83 90 95 98 101 102 101 100 100 103 108 114 119 122 124 128
47 50 52 55 57 60 62 64 66 68 69 71 73 75 76 78 79 81 83 85 86 88 89 89 88 87 86 84 84 82 80 77 73 72 72 74 79 86 93 96 99 102 103 101 100 101 105 110 117 121 123 126
51 53 56 58 60 62 63 65 67 68 70 72 73 75 76 77 78 80 82 85 87 88 90 90 89 88 86 84 83 82 80 77 73 71 71 72 75 82 89 93 97 100 103 103 101 101 103 108 113 119 122 125
54 56 58 60 61 63 65 66 68 69 70 72 73 74 76 76 77 79 82 85 88 89 90 90 89 87 85 83 82 81 80 78 74 71 70 71 72 77 85 90 94 98 102 104 103 102 103 106 111 116 120 123
56 58 60 61 63 64 66 67 68 69 70 71 73 74 75 76 77 78 82 85 88 90 91 90 89 86 84 82 81 81 80 78 75 72 70 70 71 74 81 87 91 96 101 104 106 105 105 106 109 114 119 122
57 59 61 63 64 65 66 67 67 68 70 71 72 74 75 76 76 78 81 84 87 89 91 90 88 86 83 80 79 79 79 78 76 74 71 70 70 72 77 83 87 93 99 103 106 108 108 109 110 113 117 122
59 61 62 63 64 65 66 66 67 68 70 71 73 75 76 76 76 78 80 83 86 88 90 90 88 86 82 79 78 78 78 77 76 74 73 70 69 70 74 80 84 89 96 102 106 110 111 111 113 114 117 122
60 61 62 63 64 65 66 67 68 69 70 72 74 75 76 76 77 78 80 82 84 87 89 90 88 86 82 78 76 77 77 76 76 75 73 71 69 69 71 76 81 86 92 100 105 110 113 114 116 117 118 121
61 62 63 64 65 66 67 68 69 70 71 73 74 76 76 76 77 78 79 81 83 85 88 89 89 86 82 79 76 75 75 75 75 75 73 71 69 68 70 74 79 83 89 97 103 109 114 116 118 120 121 122
63 64 65 66 67 68 69 70 70 71 72 74 75 76 77 77 77 77 78 80 81 83 86 87 88 87 83 79 76 75 74 73 73 73 73 71 69 67 68 71 76 82 86 93 100 106 112 117 120 122 123 124
66 67 68 69 69 70 71 72 73 74 74 75 76 77 77 78 78 77 78 79 80 82 84 86 87 87 84 80 76 74 73 72 72 72 71 70 68 67 67 69 74 80 84 89 96 102 109 116 121 124 126 127
68 70 71 71 72 73 74 75 76 76 76 77 78 78 78 78 78 78 78 78 80 81 83 85 86 86 84 80 76 73 71 71 70 70 70 69 68 66 67 67 71 78 82 85 91 98 105 113 121 126 128 129
71 72 73 74 75 76 77 78 79 79 78 79 79 79 79 79 79 78 78 79 79 81 82 84 84 85 83 80 75 72 70 69 69 69 68 68 66 66 66 66 69 75 79 81 87 94 100 109 118 125 129 132
74 75 77 78 79 80 81 81 82 82 81 81 80 79 79 79 79 79 79 79 80 80 81 82 83 83 82 79 75 71 68 67 67 67 67 66 65 65 65 65 66 71 76 78 83 90 96 103 112 121 127 132
76 78 80 82 83 84 85 85 85 85 84 84 83 81 80 80 79 80 80 80 80 80 81 81 81 81 80 77 73 70 67 66 66 66 66 65 64 63 64 65 64 68 73 76 80 86 92 98 106 114 123 130
79 81 83 85 86 87 88 89 89 88 88 86 85 84 82 81 81 80 80 80 80 80 81 80 79 79 78 75 72 68 65 64 64 64 64 64 62 62 63 64 63 65 69 73 78 82 88 94 101 108 117 126
83 85 86 88 89 90 91 92 92 91 91 89 87 86 85 84 83 82 81 81 81 80 80 80 78 77 76 73 70 67 64 62 62 62 63 62 61 60 61 63 62 63 66 70 75 79 84 90 96 104 112 120
88 89 90 92 93 94 94 95 94 94 93 92 90 89 87 86 84 83 82 81 81 81 80 79 77 75 74 71 67 65 63 61 60 60 62 62 60 59 59 61 61 61 63 67 72 76 81 86 92 100 107 115

ECMWFFLT2_250_spd_057.txt.gz
Wind_Speed
80 81 81 82 82 82 83 84 84 84 85 85 85 85 85 85 85 85 85 85 85 86 86 87 88 88 88 88 88 87 88 89 90 91 93 94 96 97 100 102 104 106 105 105 106 105 104 102 102 103 103 103
82 82 82 83 84 84 84 85 85 85 85 86 86 86 86 86 86 85 85 85 85 86 86 87 88 88 89 89 89 89 88 89 89 90 91 93 95 96 98 101 104 107 108 108 108 108 108 107 106 106 107 107
82 82 83 83 83 84 84 84 84 84 84 84 85 84 84 84 85 85 85 85 85 85 86 87 87 88 88 89 89 90 90 90 90 90 91 92 93 95 97 99 102 105 108 110 111 111 111 111 110 109 110 110
80 81 81 81 82 82 82 82 82 82 82 82 82 82 82 82 82 82 83 83 84 84 85 86 87 87 87 88 89 90 91 91 92 91 91 92 92 93 95 97 100 103 106 110 112 113 113 114 115 114 113 113
78 79 79 79 79 79 79 79 79 79 78 78 79 79 79 79 79 80 81 82 83 83 84 85 86 87 87 88 89 90 91 92 93 93 93 93 93 93 94 95 97 101 104 107 111 114 115 116 118 118 117 116
76 76 76 75 74 74 74 73 73 73 73 73 74 74 74 75 75 77 78 79 79 80 82 83 85 86 87 88 89 90 91 92 93 94 93 93 93 93 93 94 95 97 101 104 108 112 115 117 119 121 121 119
73 72 71 71 70 69 68 68 67 67 67 67 67 68 68 70 71 72 73 73 74 75 77 79 81 83 85 86 88 90 91 92 94 94 94 93 93 92 93 93 94 95 97 101 104 108 113 116 119 121 124 123
69 68 67 67 66 65 64 64 63 62 62 62 63 63 64 64 65 65 65 66 68 69 70 72 75 77 80 83 86 88 90 92 94 95 94 93 93 92 91 92 92 93 95 98 101 105 108 114 118 120 123 126
66 65 64 63 62 61 60 60 59 59 58 58 59 59 58 58 58 59 60 61 63 64 66 69 71 74 77 81 84 86 89 91 94 95 94 93 92 91 90 90 91 91 92 94 97 101 105 109 115 119 122 125
63 62 60 59 58 57 57 56 55 54 53 53 53 53 54 54 55 57 59 61 63 65 67 70 72 75 78 81 84 86 89 91 94 95 95 93 92 90 88 88 89 90 91 92 94 97 102 105 111 116 120 123
59 58 56 55 53 52 50 49 48 48 48 48 49 51 53 55 57 59 61 63 66 68 70 72 75 77 80 82 85 87 90 92 94 96 97 95 93 90 88 87 87 88 89 91 93 95 98 102 107 112 118 121
52 50 48 46 44 43 43 43 44 45 47 49 51 53 56 58 60 62 64 66 69 71 72 74 77 79 81 83 85 88 90 93 95 97 98 97 95 92 90 88 87 87 88 89 91 93 96 100 104 108 114 119
41 39 39 39 39 40 42 44 46 48 50 52 54 56 59 61 62 64 66 68 71 73 74 76 78 80 81 83 85 87 90 92 95 97 98 98 96 94 92 90 90 89 89 89 90 92 95 98 102 105 110 116
36 37 38 40 42 43 45 47 49 51 53 54 56 58 61 63 64 66 68 70 72 74 76 77 79 80 82 83 85 86 88 91 93 96 97 97 96 94 92 90 90 90 90 91 92 92 95 97 101 104 108 112
39 40 42 44 45 47 48 50 51 53 55 56 58 60 62 64 66 68 70 72 74 76 77 78 80 81 82 83 84 86 87 89 92 94 95 95 94 92 90 89 88 89 90 92 93 93 95 97 100 104 107 110
42 43 44 46 47 49 50 51 52 54 56 58 60 62 64 66 68 69 71 73 75 77 78 80 81 82 83 84 85 86 87 88 91 93 94 94 92 90 88 86 85 86 89 91 92 93 95 97 101 104 107 109
44 45 46 48 49 50 51 52 54 55 57 59 61 63 66 68 69 71 72 73 74 76 78 79 81 82 83 84 85 86 87 88 90 93 94 93 90 87 85 83 82 83 86 89 91 92 94 96 100 104 107 109
46 47 48 49 50 51 52 54 55 57 59 61 63 65 67 69 70 71 72 72 74 75 77 79 80 81 83 84 85 86 87 88 90 92 93 93 90 85 82 80 79 80 83 87 89 91 92 95 98 103 107 109
48 49 50 51 52 53 55 57 58 59 61 63 65 66 67 69 70 71 71 73 74 75 77 78 80 81 82 83 85 85 86 88 89 91 93 93 90 85 82 79 77 77 80 84 87 89 91 93 96 101 106 110
50 51 52 53 55 57 58 60 61 63 64 66 67 68 69 70 71 72 73 74 75 76 77 79 80 81 82 83 84 85 86 87 89 90 92 93 91 86 82 79 76 75 78 82 85 87 89 90 94 100 105 109
53 54 55 56 58 60 62 63 65 66 68 69 69 70 71 72 73 74 75 75 77 77 78 79 80 80 81 82 83 84 85 86 88 89 91 93 91 87 83 80 76 74 76 79 83 85 87 88 92 98 103 108
56 57 58 60 61 63 65 66 68 69 70 71 72 73 74 75 76 77 77 77 78 79 80 80 80 81 81 81 82 83 84 86 87 88 90 92 91 88 84 81 76 74 75 78 81 83 85 87 90 95 101 106
59 60 61 63 64 66 68 69 71 72 73 74 75 76 77 78 79 79 79 80 81 81 81 82 82 82 82 82 82 83 84 86 87 87 89 91 91 89 85 82 78 74 74 77 79 82 84 85 88 94 99 104
61 62 63 65 67 69 70 72 74 76 77 78 78 79 80 82 82 82 83 83 84 84 84 84 83 83 83 83 83 83 84 85 86 87 88 89 90 89 86 83 80 75 74 76 78 80 82 84 87 92 98 102
64 66 66 68 70 72 74 76 78 80 81 82 83 84 85 86 86 86 87 87 87 87 87 87 86 85 84 84 84 84 85 86 86 87 87 89 90 89 87 84 81 76 74 75 77 79 81 82 86 91 95 99
69 70 71 73 74 75 77 79 81 83 85 86 88 89 91 91 91 90 90 90 91 90 90 89 88 87 86 85 85 85 85 86 86 87 87 88 89 89 87 85 82 78 74 74 75 77 79 81 84 89 93 97
74 75 76 78 80 81 82 84 86 88 90 90 91 93 95 95 94 94 94 94 94 94 93 92 90 89 87 86 86 85 86 86 86 87 87 88 88 88 87 85 83 79 74 73 74 75 77 79 82 86 91 94
78 79 80 82 84 86 88 90 91 93 94 95 96 97 98 98 98 97 97 97 97 97 96 95 93 91 89 87 86 86 86 86 87 87 87 87 88 88 87 85 83 80 75 73 73 74 75 77 80 84 88 92
81 82 84 85 87 90 92 94 96 97 98 99 100 101 102 101 100 100 99 99 99 99 98 97 95 93 91 89 87 86 86 86 87 87 87 87 87 87 86 84 83 80 75 73 72 72 73 75 78 82 86 90
83 85 87 89 91 93 96 98 100 102 102 102 104 105 106 105 104 103 102 101 100 100 99 98 96 95 93 91 88 86 86 86 87 87 87 87 87 87 86 84 83 80 75 72 72 71 72 73 76 81 84 88
87 89 91 93 95 98 100 102 104 105 105 106 107 108 108 109 108 106 104 103 102 101 100 99 97 96 94 92 90 87 86 86 87 87 87 87 87 86 85 83 82 79 74 72 71 71 71 71 75 79 83 86

ECMWFFLT2_250_spd_060.txt.gz
Wind_Speed
81 82 83 84 84 85 85 85 86 86 86 86 86 86 86 86 85 85 84 84 84 83 83 83 83 83 83 83 84 85 86 87 88 89 90 92 93 94 96 96 98 99 100 100 101 102 102 102 102 102 102 101
83 83 83 83 84 84 85 85 85 85 85 85 85 85 84 85 85 84 84 83 83 83 83 83 83 83 83 83 83 84 84 85 86 87 88 90 91 93 94 96 97 99 101 102 104 105 105 105 105 105 105 105
82 82 82 82 82 82 82 83 83 83 84 83 83 83 83 83 83 83 83 83 83 83 83 83 83 83 83 83 83 83 84 84 85 86 87 88 89 91 93 95 96 98 100 102 105 106 107 108 108 108 108 108
80 80 81 82 82 81 81 81 81 82 82 83 82 82 82 82 82 82 82 82 83 83 83 83 83 83 83 83 83 84 84 84 85 86 86 87 88 90 91 93 95 97 99 101 104 107 108 109 110 111 111 111
79 79 80 81 81 81 81 81 81 81 81 81 82 81 81 81 81 81 81 82 82 82 82 82 82 82 82 82 83 83 84 84 85 85 86 86 88 89 90 92 94 95 98 100 102 105 108 109 111 112 114 114
79 79 79 79 80 80 80 80 80 80 79 79 79 80 79 79 79 79 79 79 80 80 80 80 80 80 80 80 81 81 82 83 83 84 85 86 87 88 89 91 93 94 96 98 101 103 106 109 111 112 114 116
79 79 78 78 78 78 78 78 78 78 77 77 77 77 77 76 76 76 76 76 76 76 76 76 76 76 76 76 77 78 78 79 81 82 84 85 86 87 88 89 91 93 95 97 99 101 104 107 110 112 114 116
77 77 77 76 76 76 76 75 75 75 74 74 74 73 73 72 72 72 72 71 71 71 70 70 70 70 71 72 72 73 74 75 77 79 81 83 84 86 87 88 90 92 93 95 97 100 102 105 108 111 114 116
75 75 75 74 74 73 73 72 71 71 70 69 68 68 67 66 65 64 64 64 63 63 63 62 62 63 64 65 67 68 69 71 73 74 76 79 81 83 86 87 89 90 92 94 96 98 100 103 105 108 112 115
71 71 71 70 69 68 67 66 65 64 62 61 59 58 57 56 55 55 54 54 54 54 55 55 56 57 59 60 62 64 66 67 69 71 73 75 78 80 82 85 87 89 90 92 94 96 98 100 103 106 109 112
64 63 63 62 60 58 57 56 54 53 51 50 49 48 48 47 47 48 48 49 50 51 52 53 54 55 57 59 61 63 65 67 68 70 72 74 76 78 80 82 84 86 88 90 92 94 96 98 100 103 105 109
52 51 50 49 48 47 46 45 44 43 43 43 44 44 45 45 46 47 48 49 51 52 53 55 56 57 59 61 63 65 67 69 70 72 73 75 77 78 80 81 83 84 86 88 90 92 94 96 98 99 102 105
41 40 40 40 40 40 41 42 41 42 43 44 45 45 47 48 48 50 51 52 53 54 55 57 58 59 61 63 64 66 68 70 72 74 75 77 79 80 81 83 84 84 86 88 89 91 92 94 95 97 98 101
39 39 39 39 40 41 42 43 43 44 45 46 47 48 49 50 50 51 53 53 55 56 57 58 59 60 62 64 66 67 69 72 74 75 77 79 80 82 83 85 86 87 88 89 90 91 92 93 93 94 96 97
42 42 42 42 42 42 43 44 45 45 46 47 48 49 50 51 52 53 54 55 56 57 58 59 60 62 64 66 68 69 71 73 75 77 79 80 81 82 84 85 87 88 89 91 92 93 94 94 94 93 93 94
44 43 43 43 43 43 44 45 46 47 48 49 50 51 52 53 54 55 56 57 58 59 60 62 64 65 67 69 71 72 74 76 77 79 80 82 83 83 85 86 88 89 90 92 93 94 95 96 95 94 92 91
43 43 44 44 45 45 46 47 48 49 50 51 52 53 54 55 56 58 59 60 61 63 64 65 67 69 70 72 73 75 76 78 79 80 82 83 84 85 86 87 88 90 91 92 93 95 96 97 97 96 94 91
44 44 45 46 46 47 48 49 51 51 52 53 55 56 57 58 60 61 62 64 65 66 67 68 70 72 73 74 75 77 78 79 80 81 82 84 85 86 87 88 89 90 92 93 94 95 96 97 97 97 95 93
45 46 46 48 49 50 51 52 54 54 55 57 58 59 60 61 62 64 65 66 68 69 70 70 72 73 74 75 76 78 79 80 81 82 83 84 86 87 88 89 90 91 92 93 95 96 96 97 97 97 95 94
47 48 49 50 52 53 55 56 57 58 59 60 61 62 63 64 65 66 67 68 70 72 73 73 74 75 76 77 78 79 81 81 82 83 84 85 87 88 89 90 91 92 93 94 95 96 97 97 97 96 95 94
50 51 52 52 53 55 58 59 60 61 62 64 65 66 66 67 67 68 69 70 72 75 76 76 77 79 80 80 81 82 83 84 84 85 85 87 88 89 90 91 93 94 94 95 96 96 97 97 97 95 94 93
53 54 56 56 57 58 60 62 63 64 66 67 68 69 69 70 71 71 72 74 76 79 80 81 82 83 84 84 85 85 86 87 87 88 88 89 90 91 91 92 94 95 95 96 96 97 97 97 96 95 94 93
57 58 59 60 61 62 63 64 66 67 69 70 71 71 72 73 74 75 76 78 80 82 85 86 86 87 89 89 89 90 91 91 91 91 91 92 92 93 93 94 95 96 96 97 97 97 97 97 96 94 93 92
60 62 63 64 65 66 67 68 68 70 72 73 74 75 76 77 79 80 82 83 84 87 89 91 92 92 94 95 95 95 96 96 95 95 95 95 95 95 96 96 96 97 97 97 97 97 97 97 96 94 92 90
65 66 67 68 70 70 71 71 72 73 74 76 77 78 80 82 84 86 88 89 90 92 94 96 97 98 99 100 100 100 100 100 99 99 98 98 98 98 98 98 98 98 98 97 97 97 97 96 95 93 91 89
69 70 71 72 73 75 75 76 76 76 77 79 80 82 85 87 89 91 93 95 96 97 99 100 101 102 103 103 103 103 103 103 103 102 101 101 101 100 100 100 99 98 98 97 97 96 96 95 94 92 90 89
74 74 75 76 76 78 79 79 80 80 81 82 83 85 88 91 93 95 97 99 101 102 103 104 105 105 106 106 106 105 105 105 105 105 104 103 103 102 101 101 100 99 98 97 97 96 95 94 93 91 89 89
78 79 80 80 80 81 81 82 83 83 84 85 85 87 90 93 96 99 101 104 106 107 107 108 108 108 108 108 108 108 107 107 107 106 106 105 105 104 103 102 100 99 98 98 96 95 95 94 93 91 88 88
81 82 83 83 83 83 83 84 85 86 88 89 90 91 93 96 99 102 105 107 110 111 111 111 111 111 110 110 110 109 108 108 108 108 107 107 106 104 103 102 100 99 98 97 96 95 94 93 92 91 89 87
84 85 85 85 85 85 86 86 88 90 91 93 95 96 98 100 103 106 108 110 113 114 114 114 113 112 111 111 110 109 109 109 109 109 108 107 106 105 103 101 100 99 98 96 96 95 93 92 92 91 89 87
88 89 88 88 88 88 89 90 91 93 95 97 99 100 102 104 107 110 112 114 115 115 115 114 113 111 110 109 109 108 108 107 108 108 108 106 105 104 103 101 99 99 97 95 95 94 93 92 91 90 89 87

ECMWFFLT2_250_spd_063.txt.gz
Wind_Speed
83 83 83 83 84 84 84 85 85 85 85 85 85 85 86 86 86 86 87 87 87 86 86 86 87 87 87 88 88 89 90 91 92 93 94 94 95 95 96 97 97 97 97 98 98 99 99 98 97 97 98 99
82 82 82 82 82 83 83 83 84 84 85 85 85 85 85 85 85 85 85 85 85 85 85 84 85 85 85 85 86 86 87 88 89 90 91 92 93 94 95 96 97 98 98 99 100 100 101 101 100 100 100 101
81 81 81 81 81 82 82 83 83 84 84 84 84 84 84 84 84 83 83 83 83 83 83 83 83 83 82 83 83 84 84 85 86 87 88 89 91 92 93 95 96 97 98 99 101 102 102 103 103 103 103 103
80 80 80 81 81 82 82 83 83 83 84 83 83 83 82 82 82 81 81 81 81 81 80 80 80 80 80 80 80 80 81 81 82 83 84 85 87 89 91 93 94 96 97 99 100 101 102 103 104 105 106 106
79 79 80 80 81 82 82 82 82 82 82 82 82 81 81 80 80 79 79 79 78 78 78 78 78 78 78 78 77 77 78 78 78 79 81 82 83 85 88 90 92 94 95 97 99 101 102 103 105 106 107 108
78 78 79 79 80 80 80 80 80 80 80 80 80 80 80 79 78 78 77 76 76 75 75 74 74 74 75 74 74 74 74 75 75 77 78 79 80 82 84 86 88 91 93 95 97 99 101 103 104 106 107 109
77 77 77 78 78 78 78 78 78 78 78 78 78 78 77 77 76 75 74 74 73 73 72 71 71 71 71 71 71 71 71 72 73 74 75 76 78 79 81 83 85 87 90 92 94 96 99 101 103 105 106 108
75 75 75 75 75 75 74 74 74 74 74 74 74 74 74 73 72 72 71 70 70 70 69 69 68 68 68 69 69 70 70 70 71 71 73 74 76 77 79 81 83 85 87 89 92 94 96 99 101 103 105 107
72 72 72 71 71 71 70 69 67 66 66 66 66 66 66 66 65 65 65 65 64 64 64 64 64 64 65 66 66 67 68 68 69 70 71 72 74 75 77 79 81 83 85 87 89 92 94 97 99 101 104 106
70 69 68 68 67 65 62 59 57 56 55 55 54 54 54 54 54 54 54 55 55 55 56 56 56 57 58 59 60 61 63 64 65 66 67 68 70 72 73 75 77 80 82 84 87 90 92 95 97 100 102 104
68 66 65 62 59 55 52 51 50 48 47 46 45 45 45 45 45 45 45 46 47 47 48 49 49 50 51 52 54 55 57 58 59 61 62 63 65 66 69 71 73 75 78 81 83 86 89 92 95 98 100 102
63 60 58 54 51 49 48 48 47 47 46 45 44 44 44 44 44 44 44 45 45 46 46 47 48 49 49 50 51 53 54 55 56 57 59 60 61 63 65 67 69 71 73 76 79 82 85 89 92 95 98 100
52 50 48 47 47 47 48 48 48 47 47 46 46 45 45 45 45 45 46 46 47 48 48 49 49 50 50 51 52 53 54 55 56 57 58 59 60 62 64 65 67 69 71 73 75 78 81 84 88 91 94 97
43 42 43 44 46 47 47 48 48 47 46 46 45 45 45 46 46 46 47 47 48 48 49 50 50 51 51 52 53 55 56 56 58 59 60 60 61 63 64 66 67 69 70 72 74 76 78 81 84 87 90 93
41 42 43 45 46 47 47 47 47 46 45 45 45 45 46 46 47 47 47 48 48 49 50 51 52 52 53 54 55 56 57 58 59 60 61 62 63 64 65 67 68 69 71 73 74 76 78 80 82 84 86 89
43 43 44 45 46 46 46 46 46 46 46 45 46 46 47 47 48 49 49 50 51 51 52 53 54 55 56 56 57 59 60 61 62 63 64 64 65 66 67 68 70 71 72 74 75 77 78 80 82 84 85 87
44 44 45 45 45 46 46 46 47 47 46 47 48 48 49 50 51 51 52 53 53 54 55 56 57 58 59 59 60 61 62 63 64 65 66 66 67 68 69 70 72 73 74 75 77 79 80 82 84 85 86 88
45 45 45 45 45 46 46 47 48 48 49 49 50 51 52 53 54 55 55 56 56 57 58 59 60 61 62 62 63 64 65 65 66 67 68 69 70 71 72 73 74 75 77 78 80 82 83 85 87 88 89 90
45 45 45 46 47 47 48 49 50 51 51 53 53 54 55 56 57 58 59 59 60 61 61 62 63 65 65 66 66 67 68 68 69 70 71 72 73 74 75 77 78 79 80 82 83 85 86 88 90 91 92 93
46 46 47 48 49 49 50 51 52 53 54 56 56 57 59 60 61 63 64 64 64 65 65 65 66 67 68 69 70 70 71 72 73 74 75 76 77 78 80 81 82 84 85 86 87 89 90 91 93 94 95 96
48 49 49 50 51 52 53 53 55 56 57 59 60 61 62 63 65 66 68 68 69 69 69 69 70 71 72 72 73 74 74 75 77 78 78 80 81 82 83 85 87 88 89 90 91 92 94 95 96 97 99 99
51 52 52 53 53 54 56 57 58 59 61 62 63 65 66 67 69 70 71 73 73 73 74 74 74 74 75 75 76 77 78 79 81 81 82 84 86 87 88 89 91 93 93 94 95 96 98 99 99 100 101 102
53 54 55 56 57 58 59 60 61 62 64 66 67 69 70 72 73 74 75 76 77 78 78 78 77 77 78 78 79 80 81 83 84 85 87 88 89 91 92 93 95 96 97 98 98 100 101 102 103 104 105 105
55 57 58 59 60 61 62 63 64 66 67 69 71 72 74 76 77 78 79 80 81 81 81 81 81 81 81 82 82 83 85 86 88 90 91 93 94 95 96 98 99 100 100 101 102 104 105 105 106 107 108 108
59 60 61 62 64 65 66 67 68 69 70 72 73 75 77 79 80 81 83 83 83 83 83 83 83 84 84 85 86 86 88 90 92 94 96 98 99 99 101 102 104 105 105 105 106 107 108 108 110 110 110 110
62 63 64 65 67 68 69 71 72 72 74 75 76 78 80 82 83 84 85 86 85 85 85 85 86 87 88 89 89 90 92 94 96 98 100 102 103 104 105 106 108 110 110 109 110 111 111 111 112 112 112 112
65 66 67 68 69 71 72 74 75 77 78 79 80 81 83 85 86 87 87 87 87 87 88 89 89 91 92 93 94 95 96 98 100 102 104 106 107 109 109 110 112 114 114 113 113 113 113 113 114 114 113 113
68 70 71 72 73 74 75 77 79 80 82 83 83 85 86 88 88 89 89 89 89 89 90 92 93 94 96 97 99 101 102 103 105 106 108 109 111 112 113 114 116 117 117 116 115 115 114 114 114 115 114 114
71 73 74 75 76 78 79 81 83 84 85 87 88 88 89 90 90 90 90 91 91 92 93 95 96 97 99 101 103 105 107 108 109 110 112 113 114 115 116 117 118 118 118 117 116 115 114 114 114 114 114 114
75 76 78 79 81 83 84 85 87 88 90 91 92 93 94 93 92 92 92 93 94 96 97 98 100 102 103 106 108 109 110 111 113 114 115 116 117 117 118 118 118 118 119 118 116 115 115 115 114 114 114 114
78 79 81 83 85 87 88 90 91 93 95 96 97 97 98 97 95 94 94 95 97 99 101 102 104 106 107 109 111 112 113 115 116 117 118 119 119 118 118 118 117 116 117 117 115 115 115 115 113 113 113 113

ECMWFFLT2_250_spd_066.txt.gz
Wind_Speed
92 91 90 90 90 90 90 90 90 90 90 90 90 90 91 91 91 92 92 92 93 93 93 93 93 93 93 94 94 94 95 95 95 95 96 95 96 96 96 96 96 96 96 95 95 96 96 96 96 97 97 96
87 86 86 86 87 87 87 88 88 88 88 88 88 88 88 89 89 90 90 90 90 90 90 90 90 90 90 91 91 92 92 93 93 94 94 94 95 95 95 96 96 97 97 97 97 97 98 98 98 99 99 99
84 84 84 85 85 86 86 86 86 87 87 87 87 87 87 87 87 87 88 88 87 87 87 87 87 87 87 88 88 89 90 90 91 91 92 93 93 94 94 95 95 96 97 97 98 99 99 100 100 101 101 101
82 82 83 84 84 84 85 85 85 86 86 86 86 85 85 85 85 85 85 85 85 84 84 84 85 85 85 85 86 86 87 87 88 89 89 90 91 92 93 94 94 94 95 96 98 99 100 101 102 102 103 103
80 81 82 82 83 84 84 84 84 84 84 84 84 83 83 83 83 83 83 83 83 83 82 83 83 83 83 83 83 84 84 85 85 86 87 88 89 90 91 92 93 93 94 95 97 98 99 101 102 103 104 105
79 79 80 81 82 82 82 82 82 82 82 81 81 80 80 80 80 80 81 81 81 81 80 80 80 80 81 81 81 81 82 82 83 83 84 85 86 87 88 90 91 92 92 94 95 97 99 100 102 103 104 106
78 79 79 79 79 80 80 80 80 79 79 78 78 78 78 78 78 78 78 78 78 78 77 77 77 77 78 78 79 79 79 80 80 81 82 83 84 85 86 87 89 90 91 92 93 95 98 100 101 102 104 105
78 78 78 78 78 78 78 78 78 78 77 76 76 75 75 76 75 75 74 74 74 73 73 72 73 73 74 75 76 77 77 78 78 78 79 80 81 82 84 85 87 88 90 91 92 94 95 97 99 101 102 104
77 77 76 77 77 77 77 77 77 76 75 75 74 73 73 73 72 71 69 68 66 66 65 65 66 67 68 70 71 73 74 74 75 75 76 77 78 79 80 82 84 86 88 89 90 91 93 95 96 98 100 102
75 75 75 75 75 75 75 75 75 74 73 71 71 70 70 69 67 64 61 59 58 58 57 57 57 58 59 61 63 65 67 68 69 70 71 72 73 75 76 78 80 82 83 85 87 89 90 92 94 96 98 100
74 74 74 73 73 73 72 72 70 68 66 64 64 63 63 62 59 57 55 54 54 54 53 52 51 51 51 52 54 56 58 60 61 63 65 66 68 70 72 74 75 77 79 81 83 85 87 89 92 94 96 98
73 73 72 71 70 70 68 65 62 59 56 55 54 54 54 54 54 53 53 53 53 53 52 51 50 49 49 49 49 50 51 52 54 55 57 59 60 63 65 68 70 72 74 76 78 80 83 85 88 90 93 95
73 72 70 69 68 65 62 58 54 52 49 47 47 48 49 51 52 53 53 53 52 52 52 51 51 50 49 49 49 50 50 51 52 52 53 54 55 56 59 61 63 66 68 71 73 76 78 80 83 85 88 91
73 70 68 66 64 60 56 53 51 49 47 47 47 48 50 51 52 52 53 52 52 52 52 51 51 51 50 50 50 51 52 52 53 53 54 54 55 55 57 58 59 61 63 66 68 70 73 76 79 81 84 87
72 68 66 64 59 55 53 52 51 50 50 49 50 50 51 52 52 53 53 52 52 52 52 52 52 51 51 51 51 52 53 53 54 55 56 56 57 58 58 60 60 61 62 64 66 67 69 72 74 77 80 83
70 67 64 60 55 53 53 53 52 52 52 52 51 51 52 52 52 53 53 53 53 52 52 52 52 52 52 52 52 52 53 54 55 56 56 57 58 59 60 61 62 63 64 66 67 68 69 71 72 74 76 79
68 65 60 56 53 53 54 54 54 54 54 53 53 52 52 53 53 53 53 53 53 53 53 53 53 53 53 53 53 54 54 55 56 56 57 58 58 59 60 62 63 64 65 67 68 69 70 71 73 74 76 77
65 60 56 54 54 55 55 55 55 55 55 54 54 53 53 54 54 54 54 54 54 54 54 54 54 54 54 54 55 56 57 57 58 59 59 60 61 61 62 63 64 65 66 67 68 70 71 72 74 75 76 78
61 56 54 55 56 56 56 56 56 56 56 56 55 55 55 55 56 56 56 56 56 56 56 55 56 56 56 57 57 59 60 61 62 63 63 64 64 65 66 66 67 68 69 70 71 71 72 74 75 76 77 79
57 55 55 56 57 57 57 57 57 58 57 57 57 58 58 58 58 58 58 58 57 57 58 58 59 59 59 60 60 62 64 65 67 68 68 69 69 69 70 71 71 72 72 73 73 75 75 77 78 79 80 81
55 55 56 58 58 58 58 58 59 59 59 59 60 60 60 60 60 60 60 60 60 60 61 61 62 63 63 63 64 65 67 68 70 71 73 75 75 75 75 76 76 76 76 76 76 78 79 80 80 81 82 83
55 56 58 59 60 60 59 60 60 60 61 61 62 63 63 63 63 63 63 63 63 64 65 65 66 66 67 67 68 69 70 72 73 74 75 78 80 80 80 81 81 81 81 80 80 81 82 83 84 84 85 86
57 58 59 60 60 60 61 61 61 62 63 64 64 65 65 66 66 66 67 67 68 68 69 69 70 70 71 71 72 73 74 75 76 77 78 80 82 84 85 85 86 86 86 85 84 85 86 87 87 88 89 90
59 59 59 60 61 61 62 63 63 65 65 66 67 68 68 69 70 70 71 71 72 72 73 73 74 74 75 76 76 77 78 79 80 81 82 82 84 85 87 88 89 89 89 88 88 89 89 90 91 92 94 94
60 60 60 61 62 63 64 65 66 67 68 68 69 71 72 72 73 74 74 75 76 77 77 77 78 79 80 81 81 82 83 84 85 85 85 86 86 87 88 89 91 91 91 90 90 91 92 93 95 96 97 98
61 61 61 62 63 65 66 68 69 70 71 72 72 73 74 75 76 77 78 79 80 81 81 82 83 84 85 85 86 86 87 88 89 89 89 89 88 88 89 90 92 93 93 92 93 94 94 96 98 100 100 101
62 63 64 64 66 67 68 70 72 73 74 75 75 76 77 78 79 80 82 83 84 85 85 86 87 88 89 90 90 90 91 92 92 92 92 92 91 90 90 91 93 95 95 95 96 96 96 98 101 103 104 106
65 66 67 68 69 70 71 73 75 76 77 78 78 79 80 81 82 84 85 87 88 88 89 90 91 92 93 94 94 95 95 95 95 96 95 94 93 92 92 92 94 96 97 98 99 99 99 101 103 105 108 111
68 70 70 71 72 73 74 76 78 79 80 81 82 83 84 85 87 88 89 90 91 92 93 93 95 96 97 98 99 99 98 98 99 98 98 97 96 95 95 95 96 98 100 102 103 103 104 105 107 108 111 115
70 72 74 74 75 77 78 79 81 83 84 84 86 87 88 90 91 92 92 93 95 96 96 97 98 100 101 102 103 102 102 102 101 101 100 99 98 98 98 99 99 101 104 105 106 108 109 110 112 113 116 118
73 75 77 78 79 80 82 82 84 87 88 89 90 91 92 94 95 96 96 97 98 99 100 101 102 103 104 105 106 106 105 105 104 103 102 101 101 101 102 103 103 105 107 109 111 113 114 115 117 119 121 123

ECMWFFLT2_250_spd_069.txt.gz
Wind_Speed
100 100 100 101 101 102 102 102 102 102 102 102 102 103 103 103 104 104 103 103 103 103 103 103 103 103 103 103 103 103 103 103 102 101 101 100 100 99 99 99 99 98 98 98 98 99 98 98 97 97 96 95
100 100 100 100 100 100 100 100 100 99 99 99 99 99 99 100 100 100 100 100 100 99 99 99 99 99 99 100 100 101 101 101 100 100 100 99 99 98 98 98 98 98 98 98 98 99 99 99 98 98 98 97
99 99 98 98 97 97 96 96 95 95 95 95 95 95 96 96 97 97 97 97 96 96 95 95 95 95 96 96 97 97 98 98 98 99 99 98 98 98 97 97 97 97 98 98 98 99 99 99 99 98 98 99
97 96 95 94 93 93 92 92 91 91 91 92 93 93 94 95 95 95 95 95 94 93 92 92 91 91 91 92 92 93 94 95 95 96 96 97 97 97 97 97 97 96 97 97 98 98 99 99 99 99 99 99
93 92 91 91 90 89 89 88 88 88 89 90 91 92 92 92 93 93 93 92 92 91 90 89 88 88 88 88 89 90 90 91 91 92 93 93 94 95 95 96 96 96 96 97 97 98 99 99 100 100 100 100
89 88 87 87 86 86 86 86 86 87 87 88 89 89 89 89 89 89 89 88 88 88 88 87 86 86 86 86 87 87 87 88 88 89 89 90 91 92 92 93 94 94 95 95 96 97 98 99 100 100 100 101
84 84 84 84 84 84 84 84 85 85 85 86 86 86 86 86 85 85 85 85 86 86 86 85 84 84 84 84 85 85 85 85 85 86 86 87 88 89 90 91 92 92 93 94 94 96 97 98 99 100 101 101
82 82 82 83 83 83 84 84 84 84 84 85 85 84 84 83 82 82 83 83 84 83 84 83 83 83 83 83 83 84 83 83 83 83 83 84 85 86 87 88 89 90 91 92 93 94 95 97 98 99 100 102
82 83 83 83 83 84 84 84 84 84 84 84 84 83 81 80 80 81 82 82 82 82 82 82 81 81 82 82 82 82 81 81 81 80 80 81 82 83 84 85 87 88 89 90 91 92 93 95 96 98 99 101
83 83 83 83 84 84 84 84 84 84 85 84 83 81 79 79 79 80 80 80 80 79 79 79 78 78 79 79 79 79 79 78 78 77 77 77 77 79 80 82 83 85 86 87 88 90 91 93 94 96 97 99
84 84 84 84 84 84 84 84 84 84 84 83 81 79 78 77 78 78 78 78 77 76 75 74 73 73 74 75 75 75 74 74 73 72 71 71 71 72 74 77 79 81 83 85 86 87 88 89 91 93 95 97
85 85 85 84 84 83 83 83 84 84 83 82 80 78 77 77 77 76 76 75 74 71 69 67 67 67 67 68 68 68 68 67 67 66 65 65 65 65 67 69 72 76 78 80 82 84 85 86 88 90 92 94
86 86 85 84 84 83 83 83 83 83 82 82 80 78 76 75 75 74 73 72 69 66 63 61 60 60 60 61 61 61 61 62 62 62 62 62 61 61 61 62 64 67 71 74 77 79 81 83 85 86 88 90
87 86 85 84 83 83 82 82 82 82 82 81 79 77 75 74 73 73 71 69 66 62 60 58 56 56 56 56 56 57 59 59 60 60 60 60 60 59 58 58 58 60 62 65 68 72 75 78 80 82 84 86
88 87 85 84 83 82 81 82 82 82 81 80 78 76 75 74 73 72 70 67 64 61 59 57 56 56 55 56 56 57 58 59 59 59 59 59 58 58 58 58 57 57 58 60 61 64 67 70 74 77 79 82
88 86 85 83 82 81 81 82 82 81 80 79 77 75 74 74 73 71 69 66 63 61 60 59 58 58 57 57 57 58 59 59 59 59 59 58 58 58 58 58 57 57 58 59 59 60 61 63 66 69 72 76
88 86 84 82 81 81 81 82 81 80 79 78 76 74 74 73 72 70 67 65 63 62 62 61 60 60 59 59 59 59 59 59 59 59 59 58 58 58 58 58 58 57 58 59 59 59 60 61 63 64 66 69
88 86 84 82 81 80 80 81 80 79 78 77 74 73 73 72 70 68 66 65 64 63 63 63 62 62 61 60 60 60 60 60 61 60 60 60 59 59 59 59 59 59 59 60 60 60 60 61 63 63 65 66
88 86 84 83 81 80 80 80 79 77 77 75 73 72 72 70 69 67 66 65 65 64 64 64 64 64 63 62 61 62 62 62 62 62 62 62 61 61 61 60 61 61 60 61 61 61 61 62 63 64 66 67
88 86 84 82 81 79 79 79 78 77 76 74 71 71 70 69 68 67 67 66 65 65 65 65 65 65 64 63 63 63 64 64 64 64 64 65 64 64 64 63 63 63 63 62 63 63 64 64 65 66 67 68
87 85 84 82 80 79 78 79 78 77 76 73 71 70 70 69 68 68 67 67 67 66 67 67 67 67 67 66 66 66 66 66 66 66 66 67 67 66 66 67 67 67 66 65 65 66 66 67 68 68 69 70
86 84 83 81 79 78 78 79 78 77 76 73 70 69 69 69 68 68 68 68 68 68 68 69 69 70 70 69 69 69 69 69 69 68 68 69 70 69 69 70 70 71 70 69 68 69 70 70 70 71 72 73
84 82 81 80 79 79 79 79 78 76 75 72 69 68 68 69 69 69 70 70 70 70 70 71 71 72 72 72 72 72 72 73 72 72 72 72 72 72 72 72 73 74 74 73 73 73 74 74 74 74 75 76
82 81 80 79 78 77 77 77 75 74 73 71 69 68 69 69 70 71 71 72 72 72 73 73 74 74 75 75 75 75 75 76 76 76 76 75 75 76 76 76 76 77 76 76 76 77 77 77 78 78 79 79
81 79 78 76 75 73 73 73 71 71 71 70 69 68 69 71 71 72 73 73 74 74 75 76 77 77 78 78 78 78 79 80 80 80 80 80 79 79 80 80 81 81 80 79 80 80 81 81 82 82 82 83
78 76 73 71 70 69 69 69 68 68 69 68 68 69 70 72 73 73 74 75 76 77 78 79 80 80 81 81 81 81 82 83 84 84 84 84 84 84 83 84 86 86 84 84 84 85 84 85 86 87 87 87
74 71 69 67 66 66 67 67 67 67 67 68 68 70 72 73 74 75 76 77 78 80 81 82 83 84 84 85 85 85 86 87 87 87 88 87 87 87 87 88 89 90 89 88 89 88 88 88 90 91 92 92
70 68 67 66 65 65 65 66 66 67 68 68 69 72 75 76 77 77 78 80 81 83 84 86 87 87 88 89 89 89 89 90 91 91 91 91 90 90 91 91 92 93 94 93 93 93 92 93 94 95 97 97
70 69 68 67 67 67 67 66 67 68 69 70 72 74 77 79 81 82 82 83 85 86 88 89 90 91 92 92 93 93 93 94 95 95 95 95 95 95 95 95 96 97 98 99 98 98 97 98 98 98 100 101
72 71 71 70 69 69 69 69 69 70 71 73 75 77 80 83 85 86 87 88 89 90 91 93 94 95 96 96 97 97 98 98 99 100 101 101 101 101 101 100 100 102 103 104 104 104 103 103 102 102 104 105
75 75 75 75 74 73 72 72 72 74 75 76 78 80 83 85 88 90 91 92 93 94 95 97 98 99 100 101 101 102 102 103 104 105 106 106 106 106 106 106 105 106 108 109 109 109 109 108 107 107 108 108

ECMWFFLT2_250_spd_072.txt.gz
Wind_Speed
98 98 98 99 99 99 100 101 101 102 103 104 104 105 106 106 107 107 108 108 108 108 109 109 109 108 108 108 107 106 106 105 104 103 102 102 102 101 101 101 101 101 101 101 101 101 101 100 100 100 99 98
99 99 99 99 99 100 101 102 103 104 105 106 106 106 107 107 108 108 108 108 108 108 108 107 107 107 106 106 105 104 103 102 101 101 100 99 99 99 99 99 99 99 100 100 100 100 100 100 100 100 100 99
99 98 99 99 101 102 104 105 105 106 106 106 106 106 106 106 106 106 106 106 105 105 105 105 104 104 103 103 102 101 100 99 99 98 98 97 97 96 96 97 97 97 98 99 99 99 99 99 100 100 100 99
99 99 100 102 103 105 105 106 105 105 104 104 104 104 103 103 102 102 101 101 101 101 101 101 100 100 100 99 98 98 97 97 97 96 96 96 96 95 95 95 95 96 96 97 98 99 99 99 99 99 99 99
100 101 103 104 105 105 105 104 103 101 100 100 99 98 97 97 96 95 95 95 96 96 96 97 97 97 96 96 96 95 95 95 95 95 95 95 95 95 94 94 94 94 95 96 97 98 98 99 98 98 98 98
102 103 104 104 104 103 101 100 98 96 95 94 94 92 91 91 90 90 90 91 92 93 93 94 94 94 94 94 93 94 94 94 94 94 94 93 93 93 93 93 93 93 93 94 95 97 98 98 98 98 98 98
102 102 102 101 100 98 97 95 93 92 90 90 89 88 87 87 87 88 89 90 90 91 92 93 93 92 92 92 92 92 92 92 92 92 92 91 91 91 92 92 92 92 92 92 93 94 96 97 98 98 98 99
100 99 98 97 96 94 93 92 91 89 88 87 86 86 85 86 86 87 88 89 90 91 91 91 91 90 90 90 90 90 90 90 90 90 89 89 89 89 90 91 91 91 91 90 90 91 93 94 96 97 98 98
96 95 94 93 92 92 91 90 90 88 87 86 85 85 85 86 87 87 88 89 90 90 90 90 90 89 88 88 88 88 88 88 88 87 88 88 88 88 89 89 90 90 90 90 89 89 90 91 93 95 96 97
93 93 92 92 91 91 90 90 89 88 87 86 86 86 86 86 87 88 88 89 89 90 89 89 88 87 86 86 86 86 86 86 86 86 86 86 86 87 87 87 88 89 89 89 88 88 88 89 90 92 94 95
92 92 91 91 91 90 90 90 90 89 88 87 87 87 87 87 88 88 89 89 89 89 89 88 86 85 84 84 84 84 84 84 84 84 84 84 84 84 84 85 85 86 87 87 87 87 86 87 88 90 91 93
91 91 91 91 91 91 90 90 90 89 89 88 88 87 87 88 88 89 89 90 89 89 88 87 85 84 83 83 82 82 83 83 83 83 82 82 81 81 80 81 82 83 84 85 85 85 85 85 85 87 89 91
90 90 90 90 91 91 91 91 91 90 89 88 89 89 89 89 89 89 90 90 89 89 88 86 84 83 82 81 81 81 81 81 81 80 80 79 78 77 76 76 77 79 80 82 82 83 83 83 83 84 85 88
90 90 90 91 91 91 91 91 91 90 89 90 90 91 91 90 90 90 90 89 89 89 88 86 84 82 82 81 80 79 79 79 78 78 78 76 75 73 72 71 72 73 75 77 78 78 79 79 79 80 81 84
90 90 91 91 91 91 92 92 91 91 91 92 93 93 92 92 91 90 89 89 89 88 88 86 84 82 81 80 79 78 78 77 76 77 76 74 71 69 68 67 67 67 69 71 72 72 73 73 74 74 76 78
90 91 91 91 92 92 93 92 92 93 93 94 94 94 93 92 91 90 89 88 88 88 87 86 84 82 81 79 78 77 77 76 75 75 75 72 69 66 64 64 64 64 65 67 67 68 68 69 70 70 71 73
92 92 92 93 93 93 93 93 94 95 95 96 96 95 94 93 91 90 89 88 88 87 86 85 83 81 79 78 77 76 76 75 74 74 73 71 68 65 63 63 63 62 63 64 65 65 65 66 67 67 68 69
93 93 94 94 95 94 94 95 96 96 97 97 97 96 94 92 91 89 88 87 86 86 85 84 82 79 78 76 75 75 75 74 73 73 72 71 68 66 65 64 64 64 63 64 65 64 64 65 66 66 66 67
95 95 95 96 95 95 95 96 97 98 98 98 97 95 93 91 89 88 86 85 85 85 84 82 80 78 76 75 74 74 74 73 72 72 72 71 69 68 67 66 66 66 65 65 65 65 65 65 66 66 66 66
96 96 96 96 96 96 97 97 98 99 99 98 96 94 92 90 87 86 84 84 83 83 83 81 79 77 75 74 73 73 73 72 71 71 71 71 70 69 69 68 68 68 67 67 67 67 66 66 66 66 66 67
97 97 97 97 97 97 98 99 99 99 98 97 95 93 91 89 86 84 83 83 82 82 82 81 79 77 75 74 73 72 72 72 71 71 72 72 72 70 70 70 70 70 69 68 68 68 68 68 68 67 68 68
97 97 97 98 98 99 99 99 99 98 96 95 94 92 90 87 85 83 82 82 82 81 80 79 78 77 75 74 73 72 71 72 72 72 73 73 73 72 72 72 72 72 71 70 70 70 71 70 70 70 70 70
97 98 98 99 99 99 99 98 97 95 94 93 91 89 87 85 83 81 81 80 79 78 77 76 76 75 74 73 73 72 71 72 72 73 74 74 75 74 74 74 75 74 74 72 72 73 73 73 73 73 73 73
98 99 99 99 99 99 98 96 94 93 90 87 85 83 82 80 79 78 78 77 76 75 74 74 74 74 73 73 73 72 72 72 73 74 75 75 76 76 76 76 77 77 76 76 75 76 76 76 76 76 76 76
99 100 100 99 98 97 95 94 91 88 85 82 80 78 76 75 75 74 75 75 74 73 73 72 73 73 73 73 73 73 72 73 75 76 76 76 77 78 78 79 80 80 79 79 79 79 79 79 80 80 80 80
100 100 99 98 96 94 93 91 87 83 81 80 78 76 74 73 73 72 72 73 73 73 73 73 72 72 72 73 74 74 74 75 77 78 78 78 79 80 80 81 83 83 83 82 82 83 82 83 84 84 84 84
100 99 98 96 94 92 89 86 83 81 80 79 78 77 75 74 74 73 73 73 73 73 73 73 73 73 72 73 74 75 76 78 79 80 81 81 81 82 83 84 85 86 86 86 86 86 86 86 87 88 88 88
99 97 95 93 91 87 84 82 82 82 81 80 80 79 79 78 77 76 75 75 75 74 74 74 74 75 75 75 75 77 78 81 82 83 84 84 85 85 85 86 88 89 90 90 89 89 89 90 90 91 92 92
97 95 93 90 87 84 83 82 82 83 83 83 82 82 82 82 82 81 79 78 78 77 77 76 76 77 78 78 78 79 81 83 86 87 88 88 88 88 88 89 90 92 93 94 93 92 92 93 93 93 95 95
94 91 89 87 85 85 84 84 85 85 85 85 85 86 86 86 86 85 85 84 83 82 81 80 80 80 80 81 82 83 84 86 89 91 92 92 92 91 92 92 92 94 96 97 96 96 96 96 96 96 98 99
91 89 88 88 87 87 87 87 87 88 89 89 89 90 90 90 90 90 90 89 88 87 86 85 85 85 84 85 86 87 88 90 92 94 95 96 96 95 95 95 95 97 99 100 100 101 101 100 99 100 100 102

ECMWFFLT2_250_spd_075.txt.gz
Wind_Speed
85 86 87 88 89 91 92 94 96 97 99 100 101 101 101 101 100 100 100 101 101 102 102 103 104 105 105 106 107 107 107 107 107 106 106 106 106 105 105 105 104 103 102 102 101 100 100 100 100 100 99 98
88 89 90 91 93 94 96 97 99 100 101 101 101 101 100 100 100 100 101 102 103 104 105 105 105 106 106 107 107 107 107 107 106 106 106 105 105 105 105 104 104 103 102 101 100 100 99 99 99 99 99 98
92 92 93 95 96 97 98 99 100 100 101 100 100 99 99 100 101 102 103 104 105 105 106 106 106 106 106 106 106 106 106 105 105 105 105 105 104 104 104 103 102 101 100 99 99 98 98 98 97 98 98 98
95 96 96 97 98 98 99 99 99 99 99 99 99 100 101 102 104 104 105 105 105 105 105 105 105 105 104 104 104 104 104 104 103 103 104 103 103 103 102 101 100 99 98 97 97 96 96 96 96 96 96 96
97 98 98 98 98 98 98 98 98 99 99 100 101 102 103 104 105 105 105 104 104 103 103 103 103 102 102 101 101 101 101 102 101 101 101 101 101 101 100 99 98 97 96 96 95 94 94 94 94 94 94 95
99 99 98 98 98 98 98 99 99 100 102 103 103 104 104 104 104 104 103 102 102 101 101 100 100 99 99 98 98 98 99 99 99 99 98 98 98 98 98 97 97 96 95 94 94 93 93 92 92 93 93 93
99 98 98 98 98 99 100 101 102 103 103 104 104 104 103 103 102 101 100 100 99 98 98 97 97 96 95 95 95 96 97 97 97 96 96 95 95 95 95 95 95 95 94 94 94 94 93 92 92 92 92 93
99 99 99 99 100 101 102 103 103 103 103 103 102 102 101 100 99 99 98 97 96 96 95 94 94 94 94 94 94 95 95 95 95 95 94 94 94 94 94 94 94 94 94 94 94 94 93 93 93 92 92 93
100 100 100 101 102 102 103 103 103 102 102 101 100 99 99 98 97 96 95 94 94 93 93 93 93 93 93 93 93 93 93 93 93 94 94 93 93 93 93 93 93 93 93 93 93 93 93 93 93 93 92 93
101 101 101 102 102 102 102 102 101 101 100 99 98 97 96 95 94 93 93 92 92 92 92 92 93 92 92 92 92 92 92 92 92 93 93 93 93 92 92 91 91 92 92 92 92 91 91 91 92 92 92 92
102 102 102 102 102 101 101 100 100 99 98 97 95 94 93 93 93 92 92 92 92 92 92 92 92 92 92 92 91 91 91 91 92 92 92 92 92 91 91 90 90 90 90 90 90 90 89 89 90 91 91 92
101 101 101 101 101 100 100 99 98 97 96 94 93 93 92 92 92 92 92 92 92 92 92 92 92 92 92 92 91 91 91 91 91 91 91 91 91 90 90 89 88 87 87 88 88 88 87 87 87 89 90 91
101 101 101 100 100 100 99 98 97 95 94 93 93 93 93 92 92 92 93 93 93 92 92 92 92 92 92 92 92 92 91 91 91 91 91 90 90 89 89 88 87 86 85 85 86 86 86 85 85 87 88 89
101 101 101 101 100 99 98 97 96 94 94 94 94 93 93 93 93 93 93 93 93 93 93 93 93 93 93 92 92 92 92 91 91 91 90 89 89 88 88 88 86 85 83 84 84 84 84 84 84 85 86 87
102 102 101 101 100 99 97 96 95 95 95 95 94 94 93 94 94 94 94 94 94 93 93 93 93 93 93 93 92 92 92 92 91 90 90 89 88 87 87 87 86 84 83 83 83 83 83 83 83 83 84 85
102 101 101 100 99 98 97 97 96 96 96 95 95 95 95 95 95 95 94 94 94 94 94 94 94 93 93 93 93 93 92 92 91 90 89 88 87 87 87 87 86 84 82 82 82 82 81 82 82 82 82 83
102 101 101 100 99 99 98 98 98 97 97 97 96 96 96 96 95 95 95 95 94 94 94 94 94 94 94 94 93 93 93 92 91 90 89 87 86 85 85 85 85 83 82 81 81 81 80 80 81 80 80 80
102 102 102 102 101 101 100 100 99 99 99 99 98 98 97 97 97 96 96 95 95 94 94 94 94 94 94 94 94 93 92 91 90 89 87 86 85 84 83 83 83 82 81 81 81 80 79 79 79 79 78 77
104 104 104 103 103 103 102 102 102 101 101 101 100 99 99 98 98 97 96 95 95 95 95 95 95 95 95 94 93 92 91 90 89 87 86 84 83 82 81 80 81 81 80 80 80 80 79 78 78 77 76 76
106 106 105 105 105 105 105 104 104 103 103 102 101 101 100 99 98 97 96 96 96 96 95 95 95 95 94 92 91 90 89 88 87 85 84 82 81 79 79 78 79 79 79 79 80 79 78 78 77 76 75 75
106 106 106 106 106 106 106 105 105 104 104 103 102 101 100 98 97 97 97 97 96 96 96 96 95 94 92 90 88 86 85 83 82 81 80 79 78 77 77 77 77 78 78 78 79 79 78 77 77 76 75 75
106 105 105 105 105 105 105 105 104 104 103 102 101 100 99 98 97 97 98 97 97 96 96 96 95 93 90 87 84 82 80 79 78 77 76 76 75 74 73 74 76 77 77 77 79 79 79 77 76 76 76 76
104 104 104 104 103 103 103 103 102 102 101 100 100 99 98 98 98 99 99 99 98 97 96 95 93 90 87 84 80 78 77 76 75 74 73 72 72 72 71 71 73 75 76 77 78 79 79 78 77 77 77 77
102 102 101 101 101 100 100 100 100 100 99 99 99 99 99 99 100 100 100 99 98 97 95 93 91 88 85 81 78 77 76 75 74 73 72 71 70 70 70 70 71 73 74 76 77 79 79 79 79 79 78 79
98 98 98 98 98 98 99 99 99 100 100 100 100 101 101 101 101 101 101 99 98 95 93 90 88 85 82 80 78 77 76 75 75 74 72 71 70 70 70 70 70 71 73 75 77 79 79 80 81 81 81 81
97 97 98 98 99 100 100 101 101 101 102 103 103 103 102 102 102 101 100 98 96 93 90 88 85 83 81 80 79 78 77 76 76 76 75 73 71 71 70 71 71 71 72 74 77 79 80 81 83 83 83 83
99 100 100 101 101 102 103 103 104 104 105 105 105 104 104 103 101 100 98 95 93 90 87 85 83 83 82 82 81 79 78 77 77 77 77 76 74 73 71 72 72 72 72 74 76 79 80 81 84 85 86 86
101 102 102 103 103 103 104 105 105 106 106 105 105 104 103 101 99 97 95 92 90 87 86 85 84 84 84 84 83 82 80 80 79 79 78 78 77 76 75 74 74 74 74 75 77 78 80 83 85 87 88 88
99 99 100 100 100 100 101 101 101 102 102 102 102 101 99 98 96 94 92 91 89 88 87 87 86 86 86 86 86 85 83 82 82 82 81 80 79 79 78 77 76 76 76 76 78 79 81 84 87 89 91 91
95 95 96 96 96 96 97 97 97 97 97 97 97 97 96 95 94 93 92 92 91 91 91 90 90 90 89 89 89 89 87 86 86 85 85 84 82 81 81 81 80 80 79 78 79 80 82 85 88 91 93 93
96 96 97 97 97 98 98 98 98 98 98 98 97 97 97 97 97 96 96 96 96 96 95 95 95 94 94 94 94 93 93 92 91 90 89 89 87 86 84 83 83 83 84 82 81 82 84 86 89 93 95 96

ECMWFFLT2_250_spd_081.txt.gz
Wind_Speed
82 82 82 82 83 83 83 83 84 85 85 86 87 87 88 89 91 92 92 91 90 89 89 89 89 90 90 91 91 92 92 93 93 94 94 95 95 96 96 97 97 98 98 99 100 100 100 100 100 100 100 100
84 84 84 85 85 86 86 87 88 88 88 88 89 89 91 92 93 93 93 92 92 92 91 91 92 92 93 94 94 95 96 97 97 98 98 99 99 100 100 100 101 101 102 102 103 103 103 103 102 102 102 102
86 86 86 86 87 88 88 89 90 90 90 90 91 92 94 95 95 95 94 94 94 94 94 95 95 96 97 97 98 99 100 101 101 102 102 103 103 103 103 104 104 104 104 105 105 105 105 104 104 104 104 103
87 87 88 88 89 89 90 91 91 92 93 94 95 96 98 98 97 97 97 97 98 98 98 99 99 100 100 101 102 103 103 104 105 105 106 106 106 106 106 106 106 106 106 106 106 106 106 106 105 105 105 104
90 90 91 92 93 93 94 94 95 95 96 97 98 100 100 100 99 100 101 101 101 102 102 102 102 103 103 104 106 106 107 107 107 108 107 107 107 107 107 107 107 107 107 107 107 107 107 107 106 106 106 105
94 94 95 96 97 97 97 98 98 99 100 101 102 103 103 103 103 104 104 104 104 103 103 104 105 106 107 108 109 109 110 110 109 109 109 109 109 109 109 108 108 108 108 108 108 108 108 108 108 108 107 107
97 97 98 99 99 100 100 101 102 102 103 104 105 105 106 106 106 106 105 105 105 105 106 107 108 109 110 111 112 112 112 112 111 111 110 110 110 110 110 110 110 110 110 110 110 110 110 109 109 109 108 108
99 100 101 101 102 103 104 104 105 105 106 106 107 107 108 108 108 107 107 107 108 109 110 111 113 113 114 114 114 114 114 113 113 112 112 112 111 111 111 112 112 112 112 112 112 111 111 111 110 110 109 108
102 103 104 105 105 106 107 107 107 107 108 108 109 109 109 109 109 109 109 110 112 114 115 116 116 116 116 116 116 116 115 115 114 114 114 113 113 113 113 113 113 114 114 113 113 113 112 111 111 110 109 108
106 106 107 108 109 109 109 109 109 109 110 110 111 111 111 111 112 113 114 116 117 118 119 119 119 119 118 118 118 117 117 116 116 116 115 115 115 115 115 115 115 115 115 115 114 113 112 112 110 109 108 107
109 110 110 111 111 111 111 111 111 112 112 113 113 114 115 116 117 118 120 120 121 121 121 121 121 120 120 119 119 119 118 118 118 117 117 117 117 117 117 117 116 116 115 115 114 113 112 111 110 109 107 106
112 112 113 113 113 113 113 113 114 115 115 116 117 119 120 122 123 123 124 124 124 124 124 123 122 122 121 121 120 120 120 119 119 119 118 118 118 118 117 117 116 115 114 113 113 111 110 109 109 108 107 106
114 114 115 115 115 116 116 117 118 119 120 122 123 125 126 127 127 127 127 126 126 125 125 125 124 123 123 122 122 121 121 120 120 119 118 118 118 117 116 115 114 113 113 112 111 110 109 109 108 107 106 105
117 117 117 118 119 120 121 122 123 125 126 127 128 129 130 130 129 129 128 127 127 126 126 125 125 124 124 123 122 121 120 120 119 118 117 117 116 115 114 114 113 112 111 111 110 109 109 108 108 107 106 105
121 121 122 123 124 125 127 128 129 130 130 131 131 131 131 131 130 129 129 128 127 126 126 125 124 123 123 122 121 120 119 118 118 117 116 116 115 114 113 113 112 111 111 110 110 109 108 108 108 107 107 106
126 127 128 129 130 130 131 132 132 132 132 132 131 131 130 130 129 128 127 127 126 125 124 123 122 121 121 120 119 119 118 117 117 116 116 115 115 114 113 112 112 111 111 111 110 109 109 109 108 108 108 107
131 132 132 133 133 133 133 133 133 132 132 131 130 129 129 128 127 126 125 124 123 123 122 121 120 120 120 119 119 118 118 117 117 116 116 115 115 114 113 112 112 112 111 111 110 110 109 109 109 109 108 108
133 133 133 133 132 132 131 131 130 130 129 128 127 126 125 125 124 123 122 122 122 121 121 120 120 120 119 119 119 119 118 117 117 117 116 115 115 114 113 113 112 112 111 111 110 110 110 110 109 109 109 109
131 130 130 129 128 128 128 127 127 126 126 125 124 124 123 122 122 122 121 121 121 121 121 121 120 120 120 120 120 119 119 118 118 117 116 115 115 114 113 112 112 111 111 111 110 110 110 109 109 108 108 108
126 126 126 125 125 125 125 125 124 124 123 123 123 122 122 122 122 122 122 122 122 122 122 122 121 121 121 120 120 120 119 118 118 117 116 115 114 113 112 111 111 110 110 109 109 109 108 108 108 107 107 107
124 124 124 124 124 124 124 124 123 123 123 123 123 123 123 123 123 123 123 123 123 122 122 122 121 121 120 120 120 119 118 117 117 116 115 114 113 112 111 110 110 109 109 108 107 107 107 106 106 105 104 104
124 124 124 124 124 124 124 124 124 123 123 123 122 122 122 121 121 121 121 121 121 120 120 120 119 119 118 118 118 117 117 116 115 114 113 113 112 111 110 109 109 108 108 107 106 105 105 104 103 103 102 102
124 125 125 125 124 123 123 122 121 120 120 119 118 118 117 117 117 117 117 117 117 117 117 117 116 116 116 116 116 116 115 115 114 113 113 112 111 110 109 109 108 107 107 106 105 104 103 102 102 101 100 100
123 123 122 121 120 119 118 117 116 116 115 114 114 114 113 114 114 114 114 114 114 115 115 115 115 115 115 115 115 115 115 114 114 113 112 111 110 109 109 108 107 107 106 105 104 104 102 101 101 100 100 99
119 119 118 117 117 116 115 114 114 114 113 113 113 113 113 113 113 114 114 114 114 114 114 114 114 114 114 114 114 114 114 114 113 113 112 111 110 109 108 108 108 107 106 105 104 104 103 102 101 101 100 99
117 117 117 116 116 116 116 115 115 115 115 115 115 115 115 115 115 115 115 115 115 115 115 115 114 114 114 114 114 114 114 114 113 113 112 112 111 110 109 109 108 108 107 106 105 105 104 103 102 102 101 101
116 116 116 116 116 116 116 115 115 115 115 116 116 116 116 116 117 117 117 117 117 117 117 116 116 116 116 116 116 116 116 116 115 115 114 113 112 112 111 110 109 109 108 108 107 106 105 104 103 103 102 102
115 115 115 114 114 114 114 114 113 113 114 114 114 114 114 114 115 115 115 116 116 116 116 117 117 117 117 117 117 118 117 117 117 116 115 115 114 113 112 111 110 110 109 108 107 106 104 102 101 101 101 100
114 114 114 114 114 113 113 114 114 114 113 114 114 114 114 114 114 114 114 114 114 114 114 114 115 115 115 116 116 117 117 117 117 116 115 114 113 112 110 109 108 107 106 105 104 102 100 99 97 96 96 96
115 115 115 115 115 115 115 115 115 115 115 115 115 115 115 116 116 115 115 115 115 115 114 114 115 114 114 114 114 115 115 114 114 113 112 111 110 109 108 106 105 104 104 103 102 101 99 98 97 95 95 95
118 118 118 118 118 118 118 118 118 118 117 117 117 117 117 117 118 118 117 117 117 117 117 117 117 117 117 117 117 116 116 116 115 114 112 111 110 109 108 107 106 105 105 105 104 103 102 101 100 99 97 97

ECMWFFLT2_250_spd_087.txt.gz
Wind_Speed
83 84 84 85 85 85 86 85 85 85 84 84 84 85 85 85 86 86 87 87 87 88 88 88 89 89 89 89 89 89 89 89 89 89 90 90 90 90 90 90 89 89 88 88 88 88 88 88 87 87 86 86
85 86 86 86 86 86 87 87 87 87 87 88 88 88 88 89 89 89 90 90 90 90 90 91 91 91 91 91 91 91 91 91 91 91 92 91 91 91 91 91 91 90 90 90 89 89 89 89 89 89 89 88
88 88 88 89 89 89 90 90 90 90 91 91 91 91 91 91 91 92 92 92 92 92 93 93 93 93 93 93 93 93 93 93 93 93 93 93 93 93 92 92 92 92 92 92 92 92 92 91 91 91 92 91
90 91 91 91 92 92 93 93 93 93 93 93 93 93 93 93 93 94 94 94 94 94 94 95 95 95 95 95 95 95 95 95 95 95 95 95 95 94 94 94 94 94 94 95 95 95 95 95 94 94 94 94
93 93 93 94 95 96 96 95 96 96 96 95 95 95 95 95 95 96 96 96 95 96 96 97 97 97 97 97 97 97 97 97 97 96 96 96 96 96 96 96 96 96 96 97 97 97 97 97 97 96 96 96
96 96 96 97 98 98 98 97 97 97 97 97 97 97 97 97 98 98 98 98 98 98 99 99 99 99 99 99 99 99 98 98 98 98 98 98 99 99 99 99 98 98 98 98 98 98 98 98 99 99 99 99
97 97 98 99 99 99 99 99 99 99 100 100 100 100 100 100 100 100 101 101 101 101 101 101 101 101 101 101 101 101 101 101 101 101 102 102 102 102 102 102 101 101 101 101 101 101 101 101 101 102 102 102
98 99 100 101 102 102 102 102 102 102 103 103 103 103 103 103 103 103 103 103 103 103 103 103 103 103 103 104 104 104 104 104 104 105 105 105 105 105 105 105 105 104 104 104 104 104 104 104 105 105 105 105
100 101 103 104 105 105 106 106 105 105 105 105 105 105 105 105 105 105 105 105 106 106 107 107 107 107 107 107 107 107 106 106 106 106 106 106 106 106 106 106 107 107 107 107 107 107 107 107 108 108 108 108
103 104 106 107 108 108 108 107 107 107 107 107 108 108 108 107 107 108 108 108 109 110 110 110 110 110 110 109 109 109 108 108 108 108 108 108 108 108 109 109 109 110 110 110 110 111 111 111 111 111 112 112
105 107 109 109 110 110 110 109 108 108 109 110 111 111 111 111 111 111 112 112 112 113 113 113 113 113 113 113 112 112 111 111 110 111 111 111 111 112 112 112 113 113 113 114 114 114 114 114 115 115 115 115
109 111 112 112 112 112 112 111 111 111 112 113 114 114 114 114 115 115 115 116 116 116 116 116 116 116 116 116 116 115 115 114 115 115 116 116 115 116 116 116 116 116 117 117 117 117 118 118 118 118 119 119
113 114 115 116 116 115 115 115 115 115 116 116 117 118 118 118 118 118 118 118 118 118 118 118 118 118 118 118 118 118 118 119 119 120 120 120 120 120 120 120 120 120 120 120 120 121 121 121 121 121 121 121
116 118 119 119 119 119 118 118 119 119 119 120 120 121 121 121 120 120 120 119 120 120 120 121 121 121 121 121 121 121 122 123 124 124 124 124 124 124 124 124 124 124 124 124 124 124 124 124 124 124 124 123
119 120 121 122 122 122 122 122 121 121 121 122 122 122 122 122 122 122 122 122 122 123 124 124 125 125 125 125 125 126 127 127 128 128 128 128 128 128 128 128 128 127 127 127 127 127 127 127 127 126 126 126
122 122 123 123 123 123 123 122 122 122 121 122 122 123 124 124 125 126 127 127 127 128 128 129 130 130 130 130 131 131 132 132 132 132 132 132 132 132 132 132 131 131 130 130 130 130 130 130 130 129 130 130
121 122 122 122 122 122 123 123 123 123 123 124 126 127 128 128 129 131 132 132 132 133 133 134 134 135 135 135 136 136 137 136 136 136 136 136 136 135 135 135 134 134 134 133 133 133 133 133 133 133 133 133
122 123 123 124 125 126 127 128 128 129 129 130 131 132 133 134 134 135 136 136 137 137 137 138 138 139 139 139 139 140 140 140 140 140 139 139 139 138 138 138 137 137 137 137 137 137 137 137 137 137 138 138
127 128 129 130 131 133 134 135 135 135 136 137 137 138 139 139 140 140 141 141 141 142 142 142 142 142 142 142 142 143 143 143 143 143 142 142 142 142 141 141 141 141 141 141 141 142 142 142 142 142 142 142
134 135 137 138 138 139 140 140 141 141 142 142 143 143 143 143 144 144 145 145 145 146 146 146 146 146 145 145 146 146 146 147 147 146 146 146 146 145 145 145 145 145 145 145 146 146 146 146 145 145 145 144
141 142 143 143 144 144 145 145 145 145 145 146 146 147 147 147 147 148 148 148 149 149 150 150 149 149 149 149 150 150 151 151 151 150 150 150 150 149 149 149 149 149 149 148 148 148 147 147 147 146 145 144
145 146 146 147 147 148 148 148 148 148 149 149 150 150 150 150 151 152 152 152 153 153 154 154 154 154 154 154 154 154 155 155 154 154 153 153 152 152 151 150 150 149 149 148 147 147 146 146 145 145 144 143
150 150 151 151 152 152 152 153 153 153 153 153 154 155 155 155 155 155 156 156 156 156 157 157 156 156 156 156 155 155 155 154 154 154 153 152 151 151 150 149 148 148 147 146 145 144 144 143 143 143 142 141
151 151 152 152 152 153 153 153 153 153 153 153 154 154 154 154 154 155 155 155 155 155 155 155 155 154 154 154 153 153 152 152 151 151 150 150 149 148 147 147 146 146 145 144 143 142 142 142 142 141 140 140
147 147 148 148 148 148 149 149 149 149 149 149 149 150 150 150 150 150 151 151 151 151 151 151 151 151 151 151 151 150 150 150 150 149 149 148 147 146 146 146 146 146 145 143 143 142 142 141 141 141 140 139
143 143 144 144 144 144 145 145 145 145 145 145 145 146 146 147 147 147 147 148 148 148 148 148 148 149 149 150 150 149 149 149 149 149 148 147 147 146 146 146 146 146 145 144 143 142 142 141 141 140 140 139
138 138 139 139 140 140 140 140 141 141 141 141 141 141 141 142 142 142 143 143 144 144 144 144 144 145 146 146 146 146 146 146 146 146 146 145 145 145 144 144 144 144 143 142 141 140 139 138 138 138 137 136
135 135 136 136 137 137 137 138 138 138 138 138 138 138 138 138 139 138 139 139 139 139 139 139 139 140 141 142 142 141 141 141 141 141 141 141 141 140 140 140 140 140 140 139 138 136 135 135 134 134 134 133
134 135 135 136 136 137 137 137 137 137 137 138 138 138 138 138 138 138 137 137 138 137 137 137 137 137 138 139 139 138 138 137 138 138 138 138 137 137 136 136 136 137 137 137 136 134 134 133 132 132 132 132
135 136 136 136 137 137 137 138 138 138 138 138 139 139 139 139 139 139 138 138 138 138 138 137 137 138 138 139 139 138 137 137 137 137 137 136 136 136 135 134 134 134 135 135 134 133 132 131 131 130 130 130
136 136 137 137 137 137 138 138 138 139 139 139 139 140 140 140 140 140 140 140 140 140 139 139 139 140 140 140 140 140 139 139 138 138 138 137 137 136 136 135 134 134 134 135 134 133 132 131 130 129 128 128

ECMWFFLT2_250_spd_090.txt.gz
Wind_Speed
77 78 78 79 79 80 80 81 81 82 82 83 83 84 85 85 86 87 88 89 90 91 91 92 92 92 92 92 93 93 93 93 92 92 91 90 90 89 88 88 88 88 88 88 88 88 88 88 87 87 87 87
82 83 83 83 83 83 83 84 84 85 85 86 87 88 89 90 92 92 93 93 94 94 94 94 95 95 95 95 95 95 95 95 94 93 93 92 91 91 91 91 91 91 91 91 91 91 90 90 90 90 89 89
87 88 88 88 88 88 88 88 88 88 88 89 89 89 91 92 94 95 95 95 96 96 96 96 96 96 96 96 96 95 95 95 94 94 94 93 94 94 94 95 94 94 94 93 93 93 93 93 93 92 92 91
90 90 91 91 92 92 93 93 93 93 94 94 94 94 94 95 95 96 96 96 97 97 97 97 97 97 97 97 96 96 96 96 96 96 96 97 97 98 98 98 98 97 97 96 96 95 95 95 95 95 94 94
91 92 92 93 93 94 95 96 97 98 98 99 98 98 98 98 98 98 98 98 98 98 99 99 99 99 98 98 98 98 99 99 100 100 100 100 100 101 101 100 100 100 99 99 98 98 97 97 97 97 96 96
94 95 95 96 96 97 97 99 100 101 101 101 101 101 101 101 101 101 101 100 100 100 100 100 101 101 101 101 102 102 102 103 103 103 103 103 103 103 103 103 102 102 101 101 100 100 99 99 98 98 98 98
97 99 99 99 100 100 101 101 102 103 103 103 103 103 103 103 103 103 103 103 103 103 103 103 103 104 104 105 105 105 105 106 106 106 106 106 106 106 106 105 105 104 103 103 103 102 102 101 101 100 100 100
101 102 102 103 103 104 104 105 105 106 106 105 105 105 105 105 105 105 105 105 106 106 107 107 107 107 108 108 109 109 109 109 109 109 109 109 108 108 108 107 107 106 106 106 105 105 105 104 104 103 103 102
103 104 105 106 106 107 107 108 108 109 109 109 108 108 107 107 107 107 108 108 109 110 110 110 111 111 111 111 112 112 112 111 111 111 111 111 111 110 110 110 109 109 109 108 108 108 108 107 107 106 105 105
106 107 107 108 108 109 109 110 110 110 111 111 111 110 110 110 110 110 110 111 112 113 113 113 113 113 113 113 113 114 114 114 114 114 114 114 114 114 113 113 113 112 112 111 111 111 110 110 109 108 107 106
108 109 109 109 110 110 111 111 112 112 112 113 113 112 112 112 112 113 113 114 114 115 115 115 116 116 116 116 116 116 116 117 117 117 117 117 117 116 116 115 115 114 114 113 113 113 112 112 111 110 109 109
111 111 111 112 112 113 113 113 114 114 114 115 115 115 115 115 115 115 116 116 116 117 117 118 118 119 118 118 118 118 119 119 119 119 119 119 118 117 117 117 117 116 116 115 115 115 115 114 114 113 112 112
113 114 114 115 115 115 116 116 117 117 118 118 118 118 118 118 118 119 119 119 120 120 120 121 121 121 121 121 121 121 121 121 121 121 121 121 121 120 119 119 119 119 119 119 118 118 118 117 117 116 116 115
116 117 118 118 118 119 119 120 120 121 122 122 122 122 123 123 123 123 123 123 123 124 124 124 124 124 124 125 125 125 125 125 124 125 124 124 124 124 123 123 123 123 123 122 122 122 121 121 120 119 119 118
120 121 122 122 123 123 123 124 124 125 126 126 126 127 127 128 128 128 128 128 128 128 128 128 128 128 128 129 129 129 129 129 129 128 128 128 127 127 127 126 126 126 126 126 126 125 124 124 123 123 122 121
125 126 126 127 127 128 128 128 129 129 130 130 131 131 132 132 132 132 132 132 132 132 133 133 133 132 132 133 133 133 133 133 133 132 132 132 131 131 130 130 130 130 129 129 129 128 127 127 126 126 125 124
128 129 129 130 130 131 131 132 132 133 133 134 134 135 135 135 135 136 136 136 136 136 136 136 136 136 136 136 137 137 137 137 136 136 135 135 135 134 134 134 133 133 132 131 131 131 130 129 128 128 127 127
131 131 132 132 133 133 134 134 135 136 136 137 137 138 138 138 139 139 139 139 139 139 139 139 139 139 139 139 140 140 140 140 139 139 139 138 137 137 136 136 136 135 134 134 133 132 132 131 131 130 130 130
133 134 134 135 135 136 136 137 137 138 139 139 140 140 140 141 141 141 141 141 141 141 141 141 140 140 140 141 141 142 142 142 141 141 141 140 139 139 138 138 138 137 137 136 135 135 135 134 134 134 134 134
134 135 136 136 137 137 137 138 138 139 140 140 140 141 141 142 142 142 142 142 142 143 142 142 142 141 141 141 141 142 142 142 142 142 141 141 141 141 141 141 140 140 140 140 139 139 139 138 138 138 138 138
138 139 139 140 140 141 141 141 142 142 143 143 143 144 144 144 144 145 145 145 145 145 145 144 144 144 144 144 144 144 144 144 144 144 144 145 145 145 145 145 145 145 145 145 145 144 144 144 143 143 143 143
143 144 145 145 146 146 146 146 147 147 148 148 148 149 149 149 150 150 150 150 150 150 150 150 150 149 149 149 149 149 150 150 150 150 150 150 151 151 151 151 152 152 151 151 150 150 149 149 148 148 148 148
148 149 150 150 151 151 151 152 152 152 153 153 154 154 154 154 155 155 155 155 156 156 156 156 156 156 156 156 156 156 156 156 157 157 157 157 157 158 157 157 157 157 157 156 155 154 154 154 153 153 152 152
150 151 151 152 153 153 154 155 155 155 156 156 157 158 158 159 159 159 160 160 160 161 161 161 161 161 161 162 162 162 162 162 162 162 162 162 162 162 162 162 161 161 160 160 159 158 158 157 157 156 156 155
147 148 149 150 150 151 152 153 154 154 155 156 157 158 159 159 160 161 161 162 163 164 164 164 165 165 166 166 166 166 166 166 166 166 166 166 165 165 165 165 165 164 164 163 162 161 161 160 160 160 159 159
142 143 144 145 146 147 148 149 150 150 151 152 153 154 155 156 156 157 158 159 161 162 163 163 164 165 166 167 168 168 169 169 169 169 169 169 169 169 168 168 169 168 167 166 165 165 164 163 163 163 162 162
137 138 139 140 141 142 143 144 145 146 147 148 149 149 150 151 152 152 153 154 155 156 158 159 160 161 162 164 165 165 166 166 167 167 168 168 168 168 168 168 169 169 169 168 167 166 165 164 164 164 163 162
135 137 138 139 139 140 141 142 143 144 145 145 146 147 148 148 149 149 150 150 151 152 153 153 154 156 157 158 159 160 161 161 162 162 163 164 164 164 164 165 165 166 166 166 165 164 162 162 161 161 161 160
133 134 135 136 137 139 140 141 141 142 143 144 145 145 146 147 148 148 148 149 149 150 150 151 151 152 153 154 155 156 156 156 157 157 158 158 159 159 159 159 160 161 162 162 162 161 160 159 158 157 158 157
128 129 130 132 133 134 135 136 137 138 139 140 142 143 144 145 146 146 147 148 148 149 149 150 151 152 152 153 154 154 154 154 154 155 155 155 155 155 155 155 155 155 157 157 157 157 156 155 154 153 154 153
123 125 126 127 129 130 131 132 133 134 135 135 136 138 139 140 142 143 143 144 146 147 148 149 150 151 152 153 154 154 154 154 154 154 154 154 154 154 154 153 153 153 153 154 154 154 153 152 151 150 149 149

ECMWFFLT2_250_spd_093.txt.gz
Wind_Speed
80 81 82 83 83 84 84 84 84 84 84 84 85 85 86 85 85 84 84 84 85 86 87 88 88 89 89 90 91 91 92 92 92 92 93 93 93 93 92 92 91 91 90 90 90 89 89 88 89 89 89 89
83 84 85 85 86 86 86 86 87 87 87 87 87 87 87 87 86 86 85 85 86 87 87 88 89 89 90 91 92 93 93 94 94 94 94 94 94 94 94 93 93 93 93 93 93 93 92 92 92 93 93 93
86 87 87 88 88 88 88 88 88 88 88 88 88 88 89 88 88 87 87 87 87 88 88 89 89 90 90 91 92 93 94 95 95 95 95 95 95 95 95 95 95 96 96 97 97 96 96 96 97 97 96 95
87 88 89 89 89 90 90 90 89 89 89 89 89 89 89 90 90 90 89 89 90 90 91 91 91 92 92 93 94 95 96 96 97 97 97 97 97 98 98 98 98 99 99 100 100 100 100 101 101 100 99 97
89 89 90 90 90 91 92 92 92 92 93 93 93 92 92 92 91 91 91 92 92 93 93 94 95 95 96 96 97 98 99 99 100 100 100 100 101 101 102 102 103 103 104 104 104 104 104 104 103 102 101 100
92 92 92 93 93 94 95 95 96 96 96 97 97 97 97 97 96 95 95 95 95 95 96 97 98 99 100 100 101 102 103 103 104 104 105 105 105 106 106 107 107 108 108 108 107 107 106 105 105 104 103 102
95 96 96 96 97 97 98 99 99 100 100 100 100 101 101 101 101 101 101 101 100 100 100 101 101 102 102 103 104 105 106 107 108 109 109 110 110 110 111 111 111 111 111 111 110 109 109 108 107 106 105 104
98 98 99 99 100 101 102 102 103 104 104 105 105 105 105 105 105 106 106 106 107 107 107 107 107 107 107 107 108 108 109 110 110 111 112 112 113 113 113 114 114 114 114 113 112 112 111 110 109 108 107 106
99 100 100 101 102 103 103 104 105 106 107 107 108 108 108 108 109 109 109 110 110 110 111 111 111 112 112 113 113 113 113 113 114 114 114 114 114 114 115 115 115 115 115 115 115 114 114 113 111 110 109 109
101 102 102 103 104 105 105 106 107 108 108 109 109 109 110 110 110 111 111 111 112 112 113 113 114 114 115 116 116 117 117 118 118 118 118 118 118 118 118 117 117 117 117 117 117 116 116 115 114 113 112 112
104 105 105 105 106 106 107 108 109 110 111 112 112 113 113 113 113 113 114 114 114 115 115 116 117 117 118 118 119 119 120 120 121 121 121 121 122 122 121 121 120 120 119 119 118 118 118 117 117 116 116 115
108 108 109 109 110 110 110 111 112 113 114 115 116 116 117 117 117 118 118 118 118 119 119 120 120 121 122 122 122 123 123 123 123 124 124 124 124 124 124 124 124 123 123 122 121 121 120 120 119 119 119 118
111 111 112 113 114 114 115 115 116 117 118 119 120 121 121 121 121 122 122 122 122 123 123 123 123 124 125 126 126 127 127 127 127 127 127 127 127 127 127 127 127 126 126 126 125 124 124 123 123 122 122 121
114 115 116 116 117 118 119 119 120 120 121 122 123 124 125 125 126 126 126 126 127 127 127 127 127 127 128 128 129 130 130 130 130 130 130 130 129 129 129 129 129 129 128 128 128 127 127 127 126 126 125 124
117 118 119 119 120 121 122 123 123 124 125 125 126 126 127 128 128 129 129 130 130 130 131 131 131 131 131 131 131 132 132 132 132 132 132 132 131 131 131 131 131 130 130 130 130 130 130 130 129 129 128 127
120 121 121 122 123 124 125 126 127 128 128 129 130 130 131 131 131 132 132 133 133 133 133 134 134 134 134 134 135 135 135 135 135 134 134 134 134 133 133 133 133 133 132 132 132 132 131 131 131 131 130 130
125 125 126 127 127 128 129 130 131 131 132 133 133 134 135 135 136 136 137 137 137 137 137 137 137 137 138 138 138 138 138 138 138 138 138 137 137 137 136 136 136 136 135 135 135 134 134 134 133 133 133 132
130 130 131 132 132 133 133 134 135 135 136 136 137 138 139 139 140 141 141 142 142 142 142 142 142 142 142 142 142 142 142 142 142 142 142 142 141 141 141 140 140 140 139 139 139 138 138 137 137 137 136 136
133 134 135 135 136 137 138 138 139 139 140 140 141 141 142 142 143 144 145 145 146 146 147 147 147 147 147 147 147 147 147 147 147 147 147 146 146 146 145 145 145 145 144 144 143 143 143 142 141 141 140 140
135 136 137 138 139 140 141 141 142 143 144 144 145 145 145 146 147 147 148 148 149 149 150 150 151 151 151 151 152 152 152 152 151 151 151 151 151 150 150 150 149 149 148 148 147 147 147 146 146 145 144 144
137 138 139 140 141 141 142 143 144 145 146 147 148 148 149 149 150 150 151 151 152 152 152 153 153 154 154 154 155 155 155 155 155 155 154 154 154 154 153 153 153 153 152 152 151 151 150 150 149 149 148 147
140 141 142 143 144 145 145 146 147 148 149 150 151 152 152 153 153 154 154 154 155 155 155 156 156 156 156 157 157 157 158 158 158 158 157 157 157 157 157 156 156 156 155 155 154 154 153 153 153 152 151 151
141 142 144 145 146 147 148 150 151 152 153 154 155 156 156 157 157 158 158 158 158 159 159 159 159 159 160 160 160 160 160 160 160 160 159 159 159 160 159 159 159 158 158 157 156 156 156 156 155 155 155 154
138 139 141 142 143 145 147 148 150 151 153 154 155 157 158 159 160 160 161 162 162 163 163 163 164 164 164 164 164 164 164 164 163 163 162 162 161 161 161 161 161 160 160 159 158 158 157 157 157 157 157 156
132 134 135 136 138 139 141 143 144 146 148 149 151 152 154 156 157 159 160 161 162 164 165 166 166 167 168 168 168 169 169 169 168 168 167 167 166 165 165 165 165 164 163 162 161 160 160 159 159 159 158 158
128 130 131 132 133 135 136 138 140 141 142 144 145 147 148 150 152 154 155 157 158 160 161 163 165 166 168 169 170 171 172 172 172 172 172 172 171 171 170 170 170 169 168 166 165 164 164 164 163 163 162 161
125 126 128 129 131 132 134 135 137 138 139 141 142 143 145 146 148 149 150 152 153 154 156 158 159 161 163 165 166 168 170 171 172 173 173 174 174 174 174 174 174 174 173 172 170 169 168 168 168 168 168 167
119 120 122 123 125 127 128 131 132 134 135 137 139 140 142 143 145 146 147 148 149 150 152 153 155 156 158 160 161 163 164 166 167 168 170 171 172 173 174 175 175 176 176 176 175 174 173 172 172 172 172 172
112 114 115 117 118 120 122 124 126 127 129 131 132 134 136 138 140 142 143 144 145 147 148 149 151 153 155 156 158 159 160 161 162 163 165 166 167 168 170 171 173 174 175 176 176 176 175 175 174 174 175 176
106 108 109 111 113 115 117 119 120 122 123 125 127 129 130 132 134 136 138 139 140 141 143 144 146 148 150 152 154 155 157 158 159 161 162 163 163 164 165 166 167 169 171 173 174 174 174 174 174 174 175 176
100 102 103 105 107 109 111 113 115 116 118 120 121 123 125 127 129 131 133 134 134 135 136 138 139 142 144 146 148 150 152 154 156 158 159 160 161 162 163 163 164 165 167 169 170 171 171 171 172 172 173 174

ECMWFFLT2_250_spd_096.txt.gz
Wind_Speed
76 76 77 77 78 78 79 79 80 81 82 83 84 85 85 85 86 87 87 87 87 87 87 87 87 87 87 87 87 87 87 87 88 88 88 88 88 88 88 88 89 89 89 89 90 90 90 90 90 90 89 89
78 79 80 80 81 81 82 83 83 84 85 86 87 88 89 89 90 91 91 91 91 91 91 91 91 91 91 91 91 91 91 91 91 91 91 91 92 92 91 91 91 92 93 93 93 93 94 94 94 94 94 93
81 82 83 83 84 84 85 85 86 87 87 88 89 90 91 91 92 93 94 94 94 94 95 95 95 94 95 95 95 95 94 94 94 94 95 95 95 95 95 95 94 95 96 96 95 95 96 96 97 97 97 97
84 85 85 86 87 87 87 88 88 89 90 90 91 92 93 93 94 95 96 96 96 97 97 97 97 97 97 97 97 98 98 98 98 98 98 98 98 99 99 98 98 98 98 98 98 98 98 98 98 98 99 99
87 87 88 89 89 90 90 91 91 91 92 93 93 94 94 95 96 97 97 98 98 99 99 99 99 99 99 100 100 100 101 101 101 101 101 101 101 102 101 101 101 101 101 101 101 101 100 100 100 100 100 101
89 90 91 92 92 93 93 94 94 94 95 95 96 96 97 97 98 99 99 100 101 101 102 102 102 102 102 102 102 103 103 103 103 103 103 103 104 104 103 104 104 103 103 103 103 103 103 103 102 102 102 102
90 91 92 93 94 95 96 97 97 98 98 99 99 99 100 100 101 101 102 102 103 104 104 105 105 106 106 106 106 106 106 106 106 105 105 105 105 105 105 105 105 105 105 105 105 104 105 104 104 104 104 104
91 92 92 93 95 96 97 98 99 100 100 101 102 102 103 103 103 104 104 104 105 105 106 106 107 107 107 107 107 107 107 106 106 106 106 106 106 106 106 106 106 106 106 106 106 106 105 105 106 106 106 106
94 95 95 95 96 97 98 99 100 101 102 103 103 104 105 105 106 106 107 107 107 107 107 108 108 108 108 108 109 109 108 108 108 107 107 107 107 107 107 107 108 108 108 108 108 108 108 108 108 108 108 108
98 98 98 99 100 100 101 102 103 103 104 105 106 107 107 108 109 109 110 110 111 111 111 111 111 111 111 111 112 112 112 112 112 112 112 111 111 110 110 110 110 110 110 110 111 111 111 111 111 111 111 111
100 101 102 102 103 103 104 105 106 107 107 108 109 110 110 111 112 112 113 113 114 114 114 115 115 115 115 115 115 116 116 116 117 117 117 117 116 116 115 115 114 114 114 114 114 114 114 114 115 115 115 115
103 104 104 105 106 107 107 108 109 109 110 111 111 112 113 113 114 115 115 116 116 117 117 118 118 119 119 119 119 120 120 120 120 120 121 121 121 121 121 120 120 119 119 119 118 118 117 117 117 117 118 118
106 106 107 108 109 110 110 111 112 112 113 113 114 114 115 115 116 117 117 118 118 119 119 120 120 121 122 122 123 123 124 124 124 124 124 124 125 125 125 125 125 125 124 124 123 123 123 122 121 121 121 121
110 110 111 112 112 113 114 114 115 116 117 117 118 118 119 119 120 120 121 121 121 122 122 122 123 123 123 124 124 125 126 126 127 127 128 128 128 128 129 129 129 129 129 129 129 128 128 128 127 127 126 125
114 115 115 116 117 117 118 119 119 120 121 122 122 123 123 124 124 125 125 125 126 126 126 126 126 127 127 127 127 127 127 128 128 129 130 130 131 131 131 131 131 132 132 132 132 132 131 131 131 130 130 130
117 118 119 120 120 121 122 123 123 124 125 126 126 127 128 128 129 129 130 130 130 131 131 131 131 131 131 131 131 131 131 131 131 131 132 132 132 133 133 133 133 133 133 134 134 134 133 133 133 133 132 132
121 122 122 123 124 125 125 126 127 128 129 130 130 131 132 132 133 133 134 134 135 135 135 136 136 136 136 135 135 135 136 136 136 136 136 136 135 136 136 136 136 136 136 136 137 137 137 136 136 135 135 135
125 126 127 127 128 129 129 130 131 131 132 133 134 135 135 136 137 137 138 138 138 139 139 140 140 140 140 140 140 140 140 140 140 140 140 140 140 140 140 140 140 140 140 140 140 141 141 140 140 140 139 139
129 129 130 131 132 133 133 134 135 136 136 137 138 139 139 140 141 141 141 142 143 143 144 144 144 144 145 145 145 145 145 145 145 144 144 144 144 144 144 144 144 144 144 144 144 144 144 144 144 144 143 143
131 132 133 134 135 136 136 137 138 139 140 141 142 143 143 144 145 145 146 146 147 147 148 148 149 149 149 150 150 150 150 150 150 149 149 149 149 148 148 149 148 148 148 148 148 148 148 148 148 148 148 147
134 135 136 137 137 138 139 140 141 142 143 144 145 145 146 147 148 149 149 150 151 152 152 153 153 154 154 154 155 155 155 155 155 155 154 154 154 153 153 153 153 153 152 152 151 151 152 152 152 152 151 151
135 136 137 139 140 141 142 143 144 145 146 147 148 149 149 150 151 151 152 153 154 155 156 156 157 158 159 159 159 160 160 160 160 160 160 159 159 159 159 158 158 157 157 156 156 155 156 156 156 156 155 155
130 132 133 135 136 138 139 141 142 144 146 147 149 150 151 152 153 154 155 156 157 158 158 159 160 160 161 162 163 164 164 165 165 165 165 165 164 164 164 164 163 163 162 161 161 160 160 160 160 160 160 160
123 125 126 128 129 131 132 134 136 137 139 141 143 145 146 148 150 152 154 156 157 159 160 161 162 163 164 165 166 166 167 168 168 169 169 169 169 169 169 169 169 168 167 166 165 165 164 164 164 165 165 164
118 119 121 123 124 126 127 129 130 132 133 135 136 138 139 141 143 145 147 149 151 153 155 157 159 162 164 166 167 169 170 171 171 172 172 172 173 173 173 173 173 173 172 170 169 169 168 168 168 169 169 168
112 113 115 117 119 120 122 123 125 127 128 130 131 133 134 136 137 139 141 142 144 146 147 149 152 154 157 159 162 164 167 169 171 173 174 175 175 176 176 176 176 176 176 175 173 173 172 172 172 172 172 171
105 107 109 111 112 114 116 117 119 120 122 123 125 126 127 129 131 133 135 137 138 140 142 144 146 148 150 152 154 157 159 162 164 167 169 172 173 175 177 178 179 179 179 178 177 176 175 175 176 176 176 175
99 100 102 104 106 108 110 111 113 115 117 118 119 120 121 122 124 126 128 129 131 133 134 137 139 141 144 146 148 150 152 155 157 159 161 164 166 168 170 173 175 177 179 180 180 180 179 179 179 179 179 179
97 98 98 100 101 102 103 105 107 109 110 112 114 115 116 117 119 121 123 124 126 127 128 130 132 134 137 139 142 144 146 148 151 153 155 157 159 161 162 164 167 170 172 174 175 177 178 179 180 181 182 183
97 98 98 99 100 101 101 102 103 104 105 107 108 109 110 112 113 115 118 120 121 122 123 125 127 129 131 133 136 138 140 142 144 146 148 150 152 154 156 157 159 162 164 167 168 170 171 173 175 177 179 180
97 98 98 99 100 100 101 102 103 103 104 105 106 106 107 108 109 111 113 114 116 117 118 120 122 124 126 128 130 133 135 137 139 141 143 144 146 147 149 151 152 154 157 160 162 163 165 166 168 170 172 174

ECMWFFLT2_250_spd_099.txt.gz
Wind_Speed
75 75 76 76 77 77 77 77 77 78 78 78 79 79 80 80 80 81 81 82 82 82 83 83 85 86 88 89 89 88 88 87 87 87 87 87 87 87 87 87 88 88 88 89 89 89 89 89 88 88 87 87
78 78 78 79 79 80 80 80 80 80 80 80 80 81 81 81 82 82 83 84 84 85 85 85 86 87 89 90 91 91 91 91 91 91 91 91 91 91 91 91 91 91 92 92 92 92 92 92 92 92 91 91
81 81 82 82 82 83 83 83 83 83 83 83 83 83 83 84 84 84 85 85 86 87 87 88 88 89 90 91 93 93 94 94 94 94 94 94 94 94 94 94 94 94 95 95 95 95 95 95 95 95 95 94
83 84 84 85 85 85 85 85 85 86 86 86 86 86 86 86 87 87 87 88 88 89 89 90 90 91 92 93 94 95 95 96 96 96 96 97 97 97 98 98 97 97 97 98 98 98 98 98 98 98 98 97
86 86 87 87 88 88 88 88 89 89 89 89 89 89 89 89 90 90 91 91 91 92 92 92 93 93 94 95 95 96 96 97 98 98 99 99 100 100 101 101 101 101 101 101 101 101 101 101 100 100 100 100
88 88 89 90 90 91 91 92 92 92 92 92 92 92 92 93 93 93 94 94 94 95 95 96 96 96 97 98 98 99 99 100 100 101 102 103 103 104 104 105 105 105 105 104 104 104 104 104 103 103 103 103
90 90 91 92 93 94 94 95 95 96 96 96 96 96 96 96 96 97 97 97 98 98 99 99 100 100 101 102 103 103 104 105 106 106 107 107 108 108 108 108 108 108 108 108 107 107 107 107 107 106 106 106
92 93 94 94 95 96 97 97 98 99 99 99 100 100 100 100 100 100 101 101 101 102 102 102 103 103 104 105 106 107 108 108 109 110 111 111 112 112 112 112 112 112 112 112 111 111 111 111 111 110 110 109
94 95 96 96 97 98 99 99 100 101 101 102 102 103 103 104 104 104 104 104 105 105 106 106 106 107 107 108 108 109 110 111 111 112 113 113 114 114 115 115 116 116 116 116 115 115 114 114 114 114 114 113
96 97 98 98 99 100 100 101 102 103 103 104 105 105 106 106 107 107 107 108 108 109 109 110 110 110 111 111 111 112 112 113 114 114 115 115 116 116 117 117 118 118 118 118 118 118 118 117 117 117 117 117
98 99 100 101 101 102 103 103 104 105 105 106 107 107 108 108 109 109 110 110 111 112 112 113 114 114 114 115 115 115 116 116 117 117 117 118 118 119 119 120 120 120 121 121 121 121 121 120 120 120 120 120
100 101 102 103 103 104 105 106 107 107 108 109 109 110 110 111 111 112 112 113 113 114 114 115 116 116 117 118 118 119 119 120 120 120 121 121 121 122 122 122 122 123 123 123 124 124 124 124 123 123 123 123
102 103 103 104 105 106 107 108 109 109 110 111 112 113 113 114 114 115 115 115 116 116 117 117 117 118 119 120 121 121 122 122 123 123 124 124 124 125 125 125 125 125 126 126 126 126 127 127 127 127 126 126
104 104 105 106 107 108 109 110 111 111 112 113 114 115 116 116 117 117 118 118 119 119 119 120 120 121 121 122 123 123 124 124 125 125 126 126 127 127 128 128 128 128 128 128 128 128 129 129 129 129 129 129
106 107 108 109 110 111 112 113 114 114 115 116 117 117 118 119 119 120 120 121 121 122 122 122 123 123 124 124 125 125 126 126 127 127 128 128 129 129 130 130 130 130 130 131 131 131 131 131 131 131 131 130
110 111 112 113 114 115 116 117 117 118 119 120 121 121 122 123 123 124 124 124 125 125 125 126 126 126 127 127 127 128 128 129 129 129 130 131 131 131 132 132 133 133 133 133 134 134 134 134 134 134 134 133
114 115 116 117 118 119 120 121 122 123 123 124 125 126 126 127 128 128 129 129 129 129 130 130 130 131 131 131 131 132 132 132 132 132 133 133 133 134 134 135 135 135 135 136 136 137 137 137 137 137 137 137
117 119 120 121 122 123 124 125 126 127 128 128 129 130 131 132 132 133 133 134 134 134 135 135 135 135 136 136 136 136 136 136 136 136 136 137 137 137 137 137 137 137 138 138 139 139 139 140 140 140 141 141
120 121 122 123 124 126 127 128 129 130 131 132 133 134 135 136 137 137 138 138 139 139 140 140 141 141 141 141 141 141 141 141 141 141 141 141 141 141 141 141 141 141 141 141 142 142 142 142 142 143 143 143
122 123 124 125 126 128 129 130 131 132 133 134 135 136 137 138 139 140 141 142 143 143 144 145 146 146 146 147 147 147 147 147 146 146 146 146 146 146 146 146 146 146 146 146 146 146 146 146 146 146 146 146
124 125 127 128 129 130 131 132 133 134 135 136 138 139 140 141 142 143 143 144 145 146 147 148 149 149 150 151 151 152 152 152 152 152 152 152 152 151 151 151 151 150 150 150 150 150 151 150 150 150 150 150
125 126 127 128 129 130 131 132 133 134 135 136 137 139 140 141 142 143 144 145 147 148 149 150 151 152 153 154 154 155 156 156 157 157 157 157 157 157 157 156 156 156 155 155 155 155 155 155 155 155 155 154
122 123 124 124 125 126 126 127 128 128 129 130 132 133 134 136 137 138 140 141 143 145 146 148 150 152 153 155 156 157 158 158 159 160 160 161 161 162 162 162 162 161 161 161 160 160 160 160 160 160 159 159
117 117 118 119 119 120 121 121 122 123 123 124 126 127 128 130 131 132 133 135 136 138 140 142 144 147 149 151 153 155 157 158 160 161 162 163 163 164 165 165 165 165 165 165 165 166 166 166 165 165 164 164
112 113 113 114 115 116 117 118 119 119 120 121 123 124 125 126 127 128 129 130 131 133 135 137 139 141 144 146 148 150 152 154 156 158 159 161 163 164 165 167 168 168 168 168 168 169 170 170 170 170 170 170
111 112 112 113 114 115 117 118 119 119 120 122 123 124 124 125 126 126 127 127 128 129 131 133 134 137 139 141 143 145 147 149 151 153 154 156 158 160 162 164 166 168 169 169 170 170 171 172 173 174 174 174
111 112 113 114 115 116 117 119 120 120 122 122 123 124 125 126 126 127 127 127 128 128 129 130 131 133 134 136 137 139 142 144 146 148 150 151 153 155 157 159 161 163 165 166 167 169 170 172 174 175 176 176
112 113 114 115 116 117 118 119 120 121 122 123 124 125 125 126 127 127 127 128 128 128 129 130 130 131 132 133 134 135 136 138 140 142 144 146 148 150 152 154 156 158 160 161 163 165 166 168 170 172 174 176
111 112 113 113 114 115 116 117 117 118 118 120 120 121 122 122 123 124 125 126 126 127 128 128 129 130 131 132 133 133 134 135 136 137 139 140 142 144 146 148 150 153 155 157 159 160 162 164 165 166 169 171
106 107 108 109 109 109 110 110 110 110 110 111 112 113 113 115 116 117 119 120 121 122 123 124 125 127 128 130 130 131 132 133 134 135 136 137 138 139 141 142 144 146 149 151 153 155 157 159 161 162 164 165
100 101 102 102 102 102 102 102 102 102 102 103 104 104 105 106 108 109 111 112 113 115 116 117 119 121 123 124 125 127 128 129 131 133 134 135 136 137 138 139 140 141 144 146 148 150 152 154 155 156 158 160

ECMWFFLT2_250_spd_105.txt.gz
Wind_Speed
73 74 75 76 76 76 77 77 78 79 79 79 79 79 80 80 80 80 81 81 81 81 82 82 82 82 82 82 82 82 82 82 82 82 82 82 82 83 84 84 85 85 85 85 85 86 86 85 84 83 83 82
73 74 75 77 77 78 78 79 80 80 81 82 82 82 83 83 83 83 83 84 84 84 84 85 85 85 85 85 85 85 85 85 85 85 85 85 85 85 86 86 87 87 88 88 88 88 88 88 88 87 87 86
75 75 76 77 78 79 79 80 81 82 83 84 84 85 85 86 86 87 87 87 87 87 88 88 88 88 88 88 88 88 88 88 88 88 88 87 88 88 88 88 88 89 89 90 90 91 91 91 90 90 90 89
77 78 78 79 79 80 81 81 82 83 84 85 86 87 87 88 88 89 90 90 90 90 91 91 91 91 91 91 91 91 91 91 91 91 90 90 90 90 91 91 91 91 92 92 92 93 93 93 93 93 92 92
80 81 81 81 82 83 83 83 84 84 85 86 86 87 88 89 90 91 91 92 92 92 93 93 93 93 94 94 94 94 94 94 93 93 93 93 93 93 93 94 94 94 95 95 95 95 95 95 96 95 95 95
84 84 84 85 85 86 86 86 87 87 87 88 88 89 89 90 91 92 93 93 94 94 95 95 95 96 96 96 96 96 96 96 96 96 96 96 96 96 96 96 97 97 97 97 97 97 97 97 98 98 98 97
87 87 88 88 89 89 89 90 90 90 90 91 91 91 91 92 92 93 94 94 95 96 97 97 98 98 98 98 99 99 99 99 99 99 99 99 100 100 100 100 100 100 100 100 100 100 100 100 100 100 100 100
89 90 91 92 92 93 93 93 94 94 95 95 95 95 95 95 96 96 96 97 97 98 98 99 99 100 100 101 101 102 102 102 102 102 103 103 103 103 103 103 103 104 104 104 103 103 103 103 103 103 103 104
90 91 92 93 94 94 95 96 97 97 98 98 99 99 99 100 100 100 100 100 101 101 101 102 102 102 102 103 103 104 104 105 105 105 106 106 106 106 106 106 106 107 107 107 107 107 106 106 106 107 107 107
91 92 93 94 95 96 96 97 98 99 100 100 101 102 102 103 103 104 104 104 105 105 105 105 106 106 106 107 107 107 107 107 108 108 108 108 108 109 109 109 109 110 110 110 110 110 110 110 110 110 110 110
92 93 94 95 96 97 97 98 99 100 101 102 103 103 104 105 106 106 107 107 108 108 108 109 109 110 110 110 111 111 112 112 112 112 112 112 112 112 112 112 112 113 113 113 113 113 114 114 114 114 114 114
92 93 94 95 96 97 97 98 99 100 101 102 103 104 105 106 107 108 109 110 110 111 111 112 112 113 113 113 114 114 115 116 116 116 117 117 116 116 116 116 116 116 116 116 117 117 117 117 117 117 117 118
93 94 95 96 96 97 98 98 99 100 101 102 103 104 105 106 107 108 109 110 111 112 113 113 114 115 115 116 116 117 118 118 119 119 120 120 120 121 121 121 121 121 121 121 121 121 121 121 121 121 121 121
95 95 96 97 98 99 99 100 101 102 102 103 104 105 106 107 108 109 110 111 112 112 113 114 115 116 117 117 118 119 119 120 121 121 122 122 123 123 124 124 124 125 125 125 125 125 125 125 125 125 125 125
96 97 98 99 100 101 102 103 103 104 105 106 107 108 109 110 111 112 113 113 114 115 116 117 117 118 119 119 120 121 122 122 123 123 124 124 125 125 126 126 127 127 127 128 128 128 128 128 128 128 128 128
98 99 100 101 102 103 104 105 106 107 108 109 110 111 113 114 115 115 116 117 118 118 119 120 121 121 122 122 123 124 124 125 125 126 126 127 127 128 128 129 129 129 130 130 130 131 131 131 131 131 131 131
100 101 102 103 104 105 106 107 108 109 110 111 113 114 115 116 117 118 119 120 121 122 122 123 124 125 125 126 127 127 128 128 129 129 130 130 130 131 131 132 132 132 133 133 133 133 134 134 134 134 135 135
102 103 104 105 106 107 108 109 110 111 113 114 115 116 117 119 120 121 122 123 124 124 125 126 127 128 129 129 130 131 131 132 133 133 133 134 134 134 135 135 135 136 136 136 136 136 137 137 137 137 137 138
105 106 107 108 109 110 111 112 114 115 116 117 118 120 121 122 123 124 125 126 127 128 129 129 130 131 132 133 133 134 135 135 136 137 137 138 138 139 139 139 139 140 140 140 140 140 140 140 140 140 140 140
108 109 110 111 112 113 114 115 117 118 120 121 122 123 124 125 126 128 129 130 131 132 133 133 134 135 136 137 137 138 139 139 140 140 141 141 142 142 142 143 143 143 144 144 144 144 145 145 144 144 144 144
110 111 112 113 114 115 117 118 119 121 122 123 124 125 127 128 129 131 132 133 134 135 136 137 137 138 139 140 141 142 143 143 144 145 145 145 146 146 146 146 146 147 147 147 148 148 148 148 148 148 149 149
112 113 114 115 116 118 119 120 121 123 124 125 126 127 129 130 131 133 134 135 136 137 138 139 139 140 141 142 143 144 145 146 147 148 148 148 149 149 150 150 150 150 151 151 151 151 151 152 152 152 152 152
113 114 116 117 118 119 120 121 122 122 123 124 125 126 127 128 129 130 132 133 134 135 136 137 138 139 140 141 143 144 145 146 148 149 150 150 151 152 152 152 153 153 153 154 154 154 155 155 155 155 155 155
111 112 113 113 113 114 115 115 116 117 117 118 119 120 120 121 122 124 125 126 127 128 129 130 132 133 135 136 138 139 141 142 144 145 147 148 149 151 152 152 153 154 155 155 156 156 157 158 158 158 158 158
103 104 104 105 105 106 107 108 109 110 111 112 113 114 115 116 117 119 120 122 123 124 125 126 127 129 130 132 133 134 135 137 138 139 141 143 144 145 147 148 149 151 152 153 154 156 157 158 159 159 160 160
97 98 99 100 101 102 103 105 106 107 108 109 110 111 112 113 115 117 118 119 121 122 123 124 125 127 128 130 131 131 132 133 134 136 137 138 139 140 142 143 144 145 147 148 149 151 152 154 156 157 158 159
93 94 95 96 98 99 100 101 102 103 104 105 106 107 108 109 111 113 114 116 117 119 120 121 123 124 126 127 128 129 130 131 132 134 135 136 137 138 139 139 140 141 143 144 145 146 147 149 150 152 154 154
88 89 90 91 92 93 94 95 95 97 98 99 100 101 102 104 106 107 109 111 113 115 116 118 120 121 123 124 126 127 128 129 130 131 132 133 134 135 136 137 137 138 139 141 143 143 144 145 146 148 149 150
82 83 83 84 86 87 88 88 89 91 92 93 94 95 96 98 100 102 104 106 108 109 111 114 116 118 120 121 123 124 126 126 127 128 130 131 131 132 133 134 134 135 135 137 139 141 141 142 143 144 146 147
77 77 78 79 80 82 83 84 86 87 88 88 88 90 91 92 95 97 98 100 102 103 106 109 111 114 115 117 118 120 122 123 124 125 126 127 128 129 130 131 131 132 132 133 134 137 138 139 140 141 142 143
74 75 75 75 77 79 80 82 83 84 84 84 85 86 88 89 90 92 93 95 96 98 100 102 105 108 110 112 113 115 117 119 120 121 122 124 125 125 126 127 128 128 129 130 131 132 134 136 137 137 138 139

ECMWFFLT2_250_spd_108.txt.gz
Wind_Speed
70 71 73 74 75 76 77 78 78 78 77 77 77 78 78 78 78 78 78 79 79 79 80 80 81 81 81 81 81 81 80 81 81 80 80 80 80 80 80 80 81 81 81 82 82 82 83 83 82 81 81 81
70 71 72 74 75 76 77 78 79 80 80 80 79 79 80 81 81 81 81 82 82 82 82 82 83 83 83 84 84 84 84 84 84 84 84 83 83 83 83 83 83 84 84 84 84 84 84 84 85 84 84 83
70 71 72 74 75 76 77 78 79 80 81 81 81 81 82 82 83 83 84 84 84 85 85 85 85 86 86 86 87 87 87 87 87 87 87 87 86 86 86 85 86 86 86 86 86 86 86 86 86 86 87 87
72 73 73 74 75 76 77 78 79 80 81 82 82 83 83 83 84 84 85 86 86 87 87 87 88 88 88 89 89 90 90 90 90 90 90 90 90 89 89 89 88 88 88 88 88 88 88 88 88 88 88 89
74 75 75 76 77 77 78 78 79 80 81 82 83 84 84 85 85 86 86 87 87 88 89 89 90 90 90 91 91 91 92 92 92 93 93 93 93 93 92 92 91 91 91 91 90 90 90 90 90 90 90 90
76 77 77 78 79 79 80 80 81 81 82 82 83 84 84 85 86 87 88 88 89 89 90 91 91 92 92 93 93 93 94 94 94 95 95 95 95 95 95 95 95 94 94 94 94 94 93 93 93 93 93 93
78 79 79 80 81 82 83 83 83 84 84 85 85 86 86 86 87 88 88 89 90 90 91 92 93 93 94 95 95 96 96 96 97 97 97 97 97 98 98 98 98 98 97 97 97 97 97 97 97 96 96 96
79 80 81 82 83 84 85 86 86 87 87 88 89 89 89 90 90 90 91 91 92 92 93 93 94 95 95 96 96 97 98 98 99 99 100 100 100 101 101 101 101 101 101 101 101 101 101 100 100 100 100 100
81 82 83 84 84 86 87 88 89 89 90 91 92 92 93 93 94 94 95 95 95 95 96 96 96 97 97 98 98 98 99 99 100 101 101 102 103 103 104 105 105 105 105 105 105 105 105 104 104 104 104 103
83 84 84 85 86 87 88 89 90 91 92 93 94 95 96 96 97 98 98 99 99 100 100 100 100 101 101 101 101 102 102 102 102 102 103 103 104 105 106 106 107 108 108 109 109 109 108 108 108 108 107 107
85 86 86 87 88 89 89 90 91 92 93 94 95 96 97 98 99 100 101 102 103 103 104 104 105 105 106 106 106 106 106 106 106 106 106 106 106 107 107 107 108 109 109 110 111 111 111 111 111 111 110 110
88 89 89 90 90 91 92 93 93 94 95 96 97 98 98 99 101 101 102 103 104 105 106 107 108 109 109 110 110 111 111 111 111 111 111 111 111 110 111 110 111 111 111 112 112 113 113 114 114 114 114 113
90 91 91 92 92 93 93 94 95 96 97 98 98 99 100 101 102 103 104 105 106 107 108 108 109 110 111 112 113 114 114 115 115 115 115 115 115 115 115 115 115 115 115 115 115 115 115 116 116 116 116 117
90 91 92 92 93 94 94 95 96 97 98 99 100 100 101 102 103 104 105 106 107 107 108 109 110 111 112 113 114 115 116 117 118 118 119 119 120 120 120 120 120 120 120 120 120 119 119 119 119 119 119 119
91 92 93 94 94 95 96 96 97 98 99 100 101 102 102 103 104 105 106 107 108 108 109 110 111 112 112 113 114 115 116 118 119 120 121 121 122 123 124 124 125 125 125 125 125 124 124 124 124 124 123 123
93 94 95 96 96 97 98 98 99 100 101 102 103 104 104 105 106 107 108 109 109 110 111 112 113 113 114 115 115 116 117 118 119 120 121 122 123 124 125 126 127 128 129 129 129 130 129 129 129 129 128 128
95 96 97 98 98 100 100 100 101 102 103 104 105 106 107 108 109 109 110 111 112 113 114 114 115 116 117 117 118 119 119 120 121 121 122 123 124 125 126 127 128 129 130 131 132 133 133 134 134 134 134 134
97 98 99 100 101 102 102 102 103 104 105 106 107 108 109 110 111 112 113 114 115 116 116 117 118 119 120 121 121 122 123 123 124 124 125 126 126 127 128 128 129 130 131 132 133 134 135 136 136 137 137 138
100 101 102 102 103 104 104 105 106 106 108 108 110 111 112 113 114 115 116 117 117 118 119 120 121 122 123 124 125 125 126 127 127 128 128 129 130 130 131 132 132 133 133 134 135 135 136 137 137 138 139 140
103 104 105 105 106 107 107 107 108 109 111 112 113 114 115 116 116 117 118 119 120 121 122 123 124 125 126 127 127 128 129 130 130 131 132 133 133 134 134 135 136 137 137 138 138 138 139 139 140 140 140 141
106 107 108 109 109 110 111 111 112 113 114 115 116 117 118 119 120 121 121 122 123 124 125 126 127 128 129 130 131 131 132 133 134 135 135 136 137 137 138 139 139 140 141 141 142 142 143 143 143 143 143 144
110 111 112 112 113 114 114 115 116 117 117 118 119 120 121 122 123 124 125 125 126 127 128 129 130 132 132 133 134 135 136 137 137 138 139 139 140 141 141 142 143 144 144 145 145 146 146 147 147 147 147 147
113 114 114 115 115 116 117 118 118 119 119 120 121 121 123 124 125 125 126 127 128 129 130 131 132 133 134 135 135 136 137 138 139 140 140 141 142 143 143 144 145 146 147 148 148 149 150 150 151 151 151 151
112 113 113 114 115 116 116 117 117 117 118 118 119 119 120 121 121 122 122 123 123 124 125 126 127 127 128 129 130 131 132 133 134 135 136 137 139 140 141 142 143 145 146 147 148 150 151 152 152 153 153 154
105 106 106 107 107 108 108 108 108 109 109 110 110 110 111 111 111 112 112 113 113 114 115 116 117 118 119 120 121 122 123 124 125 127 128 129 131 133 134 135 137 139 140 142 144 145 147 149 151 152 153 154
94 94 95 95 95 95 96 97 98 98 99 100 100 101 102 102 102 103 104 105 106 107 108 109 109 111 112 113 114 115 116 118 119 120 122 123 125 126 127 129 130 132 134 136 137 139 141 143 145 147 148 149
86 87 87 87 87 88 88 89 91 92 93 94 94 95 96 96 96 97 99 100 101 102 102 103 104 105 106 107 109 110 111 112 114 115 117 119 120 121 123 124 125 127 129 131 133 135 136 138 140 142 143 144
81 82 82 83 83 83 83 85 85 86 88 89 89 90 91 91 92 92 94 95 96 97 98 99 99 101 102 103 104 106 107 108 110 112 114 115 117 118 119 120 121 123 125 127 129 131 132 134 135 137 139 140
77 78 78 79 79 79 80 81 81 82 84 85 85 86 87 87 88 89 91 92 93 94 95 96 97 98 99 100 101 103 104 105 107 109 111 113 115 115 117 118 119 120 122 124 126 128 129 131 132 133 134 136
75 75 75 76 76 77 77 78 79 80 81 82 83 84 85 86 87 88 90 91 92 93 94 95 95 96 97 98 99 101 102 103 105 106 108 110 112 113 114 116 117 118 120 121 123 125 127 129 130 130 131 132
73 73 74 74 74 75 77 78 79 80 80 80 81 83 84 85 87 88 90 91 92 92 93 93 94 95 95 96 98 99 100 102 103 105 106 108 110 111 112 113 114 116 118 119 119 121 123 126 128 129 129 129

ECMWFFLT2_250_spd_111.txt.gz
Wind_Speed
66 68 69 70 71 72 72 73 73 74 75 75 75 75 74 74 74 74 74 75 75 75 75 76 76 77 78 78 79 79 79 80 80 81 81 82 82 82 81 81 80 80 79 79 78 77 76 76 75 75 75 75
66 67 68 70 70 71 72 73 74 75 75 76 77 77 78 77 77 77 77 77 77 77 77 77 77 78 78 79 80 80 81 81 82 82 83 83 84 84 83 83 82 82 82 81 81 80 80 79 78 78 78 78
67 67 68 70 71 71 72 73 74 75 75 76 77 78 79 80 80 80 80 80 80 80 80 79 79 79 80 80 80 81 81 82 83 83 84 85 85 86 86 85 85 84 84 83 83 83 83 82 82 81 81 80
67 68 69 70 71 72 73 73 74 74 75 77 78 79 80 80 81 82 82 83 83 83 83 83 83 82 82 82 82 83 83 83 84 84 85 85 86 87 87 87 87 86 86 86 85 85 85 85 85 85 84 83
68 69 70 71 72 73 74 74 75 75 76 76 77 78 79 80 81 82 83 84 84 85 85 85 85 85 85 86 86 86 86 86 86 86 86 86 87 87 88 88 89 89 89 89 88 88 87 88 88 88 87 87
70 70 71 72 73 74 75 75 76 77 77 78 78 79 79 80 81 82 83 84 85 85 86 86 86 87 87 87 88 88 88 89 89 89 89 89 89 89 89 90 90 91 92 92 91 91 90 90 90 90 90 90
70 71 72 73 74 75 76 77 77 78 79 80 80 80 81 81 82 82 83 84 84 85 86 87 87 88 88 88 89 89 90 90 91 92 92 92 93 93 92 92 92 93 93 94 94 95 94 94 93 93 93 93
71 72 73 74 75 76 77 78 78 79 80 81 82 83 83 84 84 84 85 85 85 86 87 87 88 89 89 90 90 90 91 91 92 92 93 94 95 95 96 96 96 96 96 96 96 97 97 98 98 98 97 97
73 74 75 76 76 77 78 78 79 80 81 82 83 84 85 86 87 87 88 88 88 89 89 89 90 90 91 91 91 92 92 92 93 93 94 95 96 97 97 98 98 99 99 99 99 100 100 100 100 101 101 101
77 77 78 78 78 79 80 80 81 81 82 83 84 85 86 87 88 89 90 91 91 92 92 93 93 93 93 94 94 94 94 95 95 95 96 96 97 97 98 99 100 100 101 101 102 102 102 103 103 103 103 104
80 80 81 81 81 82 82 83 83 84 84 85 86 86 87 88 89 90 91 92 93 94 95 95 96 96 97 97 98 98 98 98 98 99 99 99 99 99 100 100 101 102 103 103 104 104 104 105 105 106 106 106
82 83 83 83 84 84 84 85 86 86 87 87 88 88 89 90 91 92 92 93 94 95 96 97 98 99 99 100 101 101 102 102 103 103 103 103 103 103 103 104 104 104 105 106 106 106 107 107 107 108 108 109
84 85 85 85 86 86 86 87 88 88 89 89 90 90 91 92 93 94 94 95 96 97 97 98 99 100 101 102 102 103 104 105 105 106 106 107 107 108 108 108 108 108 109 109 109 110 110 110 110 110 111 111
86 87 87 87 88 88 89 90 90 91 92 92 92 92 93 94 95 95 96 97 98 98 99 100 101 102 102 103 104 105 106 107 107 108 109 109 110 111 111 112 112 113 113 113 113 114 114 114 114 114 114 114
87 88 88 89 89 90 91 92 92 93 94 94 94 94 95 96 97 97 98 98 99 100 100 101 102 103 104 105 106 107 107 108 109 110 110 111 112 113 113 114 115 116 116 117 117 118 118 118 118 118 118 118
89 89 90 90 91 92 93 94 94 95 96 97 97 96 97 98 99 99 100 100 101 101 102 103 104 105 105 106 107 108 109 110 110 111 112 112 113 114 115 116 117 118 118 119 120 121 121 122 122 123 123 123
92 92 93 93 94 94 95 96 96 97 98 99 99 99 99 100 101 101 102 102 103 104 104 105 106 107 107 108 109 110 110 111 112 112 113 114 115 116 116 117 118 119 120 121 121 122 123 124 125 126 126 127
96 97 97 97 97 98 98 98 98 99 100 101 101 101 102 102 103 103 104 104 105 106 107 108 109 110 110 111 112 112 113 113 114 115 115 116 117 118 118 119 120 121 121 122 123 124 125 125 126 127 128 129
98 99 100 100 100 101 101 101 101 101 102 103 104 104 104 105 105 105 106 106 107 108 110 110 111 112 113 114 114 115 116 116 117 118 118 119 119 120 121 122 122 123 123 124 125 125 126 127 127 128 129 130
99 100 101 101 102 103 104 104 104 104 105 106 107 107 107 107 108 108 109 109 110 111 112 113 114 115 116 116 117 118 118 119 120 120 121 122 122 123 124 125 125 126 126 127 127 128 129 129 129 130 131 131
101 102 102 103 104 105 106 106 106 106 107 109 110 111 111 110 111 111 112 113 113 114 115 116 117 117 118 119 120 121 121 122 123 123 124 125 125 126 127 128 128 129 129 130 131 131 132 132 133 133 133 134
103 105 105 106 107 108 109 109 109 109 111 112 113 114 114 114 114 115 116 116 117 117 118 120 120 121 122 122 123 124 124 125 125 126 127 128 128 129 130 130 131 132 132 133 134 134 135 136 136 136 137 137
107 108 109 110 111 112 112 112 113 113 114 115 116 117 118 118 119 119 119 120 121 122 123 124 125 125 126 127 127 128 128 129 129 130 130 131 132 132 133 133 134 135 135 136 137 137 138 139 139 139 140 140
111 111 113 114 114 115 116 116 116 117 117 118 119 120 121 122 122 122 122 123 124 124 126 127 128 128 129 129 130 130 131 131 132 133 133 133 134 134 135 135 136 137 137 138 139 139 140 141 141 141 142 143
110 111 112 113 113 114 114 114 114 114 115 115 116 116 117 119 119 118 118 118 119 119 120 121 122 123 123 124 124 125 125 126 126 127 127 128 128 128 128 129 130 131 132 133 134 135 136 137 138 139 140 141
105 105 105 106 106 106 106 106 106 106 106 106 107 107 108 109 109 109 108 108 108 109 109 110 111 111 111 112 112 113 113 114 114 115 116 116 117 117 118 118 120 121 122 123 124 125 127 128 130 131 132 133
98 98 98 98 98 98 98 98 99 98 98 99 99 99 100 100 101 100 100 100 100 100 101 102 102 103 103 103 103 104 104 105 106 106 107 108 108 109 110 111 112 114 115 116 117 118 119 121 123 124 126 127
91 91 91 91 91 91 91 92 92 92 93 93 93 93 93 94 95 95 95 95 94 95 96 97 97 98 98 98 99 99 100 100 101 101 102 103 103 104 105 106 107 109 110 111 112 113 114 116 118 119 122 123
84 84 85 86 86 86 86 86 87 88 89 89 88 88 89 90 90 91 91 91 91 91 91 93 94 94 95 95 95 95 96 96 97 98 98 99 100 101 102 102 104 105 107 108 109 110 111 112 114 115 117 119
80 80 81 81 82 82 82 83 84 85 85 84 84 85 86 87 88 88 89 89 89 88 89 90 91 92 93 93 93 93 94 95 95 96 97 98 99 101 101 102 103 104 105 107 108 109 110 111 113 113 115 116
77 77 78 79 79 79 80 81 82 83 82 82 82 83 84 85 86 87 88 88 88 88 89 89 90 92 92 93 93 94 94 95 96 97 98 99 100 101 102 102 103 104 105 106 108 109 110 111 112 113 114 115

ECMWFFLT2_250_spd_114.txt.gz
Wind_Speed
62 63 64 65 66 67 68 69 70 72 73 73 73 72 72 71 71 72 71 71 71 71 72 73 74 74 75 75 75 76 76 77 78 78 79 79 80 81 81 81 81 81 81 81 81 82 82 82 81 81 81 80
64 64 65 64 65 66 67 69 70 71 73 74 75 75 75 75 74 74 74 74 74 74 73 73 74 74 74 75 75 75 76 76 77 78 78 79 79 80 81 81 82 82 82 82 83 83 83 83 83 83 83 82
67 67 66 64 64 64 66 68 70 71 72 74 75 76 77 77 77 77 77 77 77 77 76 76 76 76 76 76 76 76 77 77 77 78 78 79 79 80 81 81 82 82 83 83 84 84 84 84 84 84 84 84
70 70 69 67 67 67 67 68 70 71 72 73 74 76 77 78 79 79 80 80 80 80 80 79 79 79 79 79 78 78 79 79 79 79 79 80 80 81 81 82 82 83 83 84 84 85 85 85 85 85 85 85
72 73 73 72 72 72 72 71 71 72 72 73 74 75 76 77 78 79 80 81 81 82 82 82 82 82 82 82 81 81 81 81 82 81 81 82 82 82 82 83 83 84 84 85 85 86 86 86 86 86 86 87
72 74 75 75 75 74 74 73 73 73 74 74 75 76 77 78 78 79 80 81 82 82 83 83 84 84 84 84 85 85 84 85 85 84 85 85 84 85 85 85 85 85 85 86 86 87 87 87 88 88 88 88
72 73 74 75 76 75 75 75 75 75 76 76 76 77 78 79 80 81 81 82 82 83 83 84 84 85 85 86 86 87 87 87 87 87 87 88 88 88 88 88 88 88 87 87 88 88 88 88 89 90 90 90
73 73 74 75 76 76 76 76 76 77 78 78 78 79 80 81 81 82 83 83 84 84 85 85 85 86 86 87 87 88 88 89 89 89 90 90 90 90 90 90 91 91 91 91 90 90 90 90 91 91 91 92
74 75 76 76 76 77 77 77 78 78 79 79 80 80 81 82 83 83 84 85 85 86 86 87 87 87 88 88 89 89 90 90 91 91 91 92 92 92 92 93 93 93 93 93 93 93 93 93 93 93 93 93
75 76 76 76 77 78 77 78 78 78 79 80 80 81 81 82 83 84 85 86 86 87 88 88 89 89 90 90 90 91 91 92 92 93 93 94 94 94 95 95 95 95 95 95 95 95 95 95 95 95 95 96
77 77 77 78 78 78 79 79 79 79 79 80 80 81 82 82 83 84 85 86 87 88 89 89 90 91 91 92 92 93 93 94 94 95 95 95 96 96 97 97 97 97 97 97 97 98 98 98 98 98 98 98
79 79 79 80 80 80 81 81 81 81 81 81 82 82 83 83 84 84 85 86 87 88 89 90 90 91 92 93 94 94 95 96 96 97 97 97 98 98 99 99 100 100 100 100 100 100 100 100 100 100 100 100
80 81 81 81 82 82 83 83 83 84 84 85 85 85 86 86 86 86 87 88 88 89 90 90 91 91 92 93 94 95 96 97 98 98 99 100 100 101 101 102 102 102 103 103 103 103 103 103 103 103 103 103
83 83 83 83 84 84 85 85 86 87 87 88 88 88 89 89 89 89 90 90 91 91 91 92 92 93 93 94 95 96 97 98 99 100 101 101 102 103 103 104 104 105 105 105 106 106 106 106 107 107 107 107
87 86 86 86 86 87 87 88 88 89 90 90 90 91 91 92 92 92 92 93 93 93 93 94 94 94 95 96 96 97 98 99 99 100 101 102 103 104 105 106 107 107 108 108 108 109 109 110 110 110 110 111
88 89 89 89 89 89 90 90 91 91 92 92 92 93 93 94 94 94 94 95 95 95 95 96 96 96 97 97 98 99 100 100 101 101 102 103 104 105 106 107 108 108 109 110 111 111 112 112 113 113 114 114
89 90 90 90 91 92 92 93 93 94 94 95 95 95 95 96 96 96 96 97 97 97 97 97 98 98 99 100 100 101 102 102 103 103 104 104 105 106 107 108 108 109 110 111 112 113 114 115 115 116 116 117
91 91 92 92 93 94 94 95 96 96 97 97 97 97 98 99 99 99 99 99 100 100 100 100 101 101 102 102 103 104 104 105 105 106 106 107 107 108 109 109 110 111 112 113 113 114 115 116 116 117 118 118
92 93 94 95 96 96 97 98 98 99 100 100 100 100 100 101 102 102 102 102 103 103 103 104 104 105 105 106 106 107 107 108 108 109 109 110 110 111 111 112 112 113 114 114 115 116 116 117 118 118 119 120
93 95 96 97 98 99 100 101 102 102 103 104 104 104 104 104 105 106 106 106 107 107 108 108 108 108 109 110 110 111 111 111 111 112 112 113 113 114 114 115 115 116 116 117 117 118 118 119 119 120 120 121
95 97 97 98 99 100 101 102 103 104 105 106 106 107 107 108 109 109 109 110 110 111 111 112 112 113 113 114 115 115 115 115 115 115 116 116 117 117 118 118 118 119 119 120 120 121 121 122 122 123 123 124
98 99 100 101 101 102 102 103 104 104 105 106 107 108 108 109 109 110 111 111 112 112 113 113 114 115 116 117 117 118 118 118 119 119 119 120 120 121 121 121 122 122 123 123 124 124 124 125 125 126 126 127
101 102 103 104 105 105 106 106 106 106 107 109 109 110 110 110 111 111 112 112 112 113 114 115 116 116 118 119 119 120 120 121 121 122 122 123 123 124 124 125 125 126 126 126 127 127 128 128 129 129 130 130
105 105 106 107 108 109 109 109 109 110 111 112 113 113 113 114 114 114 114 114 115 115 116 117 118 119 120 121 122 122 123 123 124 124 125 126 126 127 127 128 128 129 129 130 130 131 131 131 132 132 133 133
108 109 110 111 111 112 112 113 113 114 114 115 116 117 117 118 117 117 117 118 118 119 120 121 122 122 123 124 125 125 126 126 127 128 128 129 129 130 130 131 131 131 132 132 133 134 134 134 135 135 136 136
109 110 111 112 112 114 114 115 115 115 116 117 118 119 119 120 119 119 119 120 120 121 122 122 123 123 123 124 124 125 125 125 126 126 127 127 127 128 128 128 128 129 129 130 131 131 132 132 132 133 134 134
106 107 108 109 110 111 112 112 113 114 114 115 116 116 117 117 116 116 116 116 116 116 116 117 117 117 117 117 117 118 118 118 118 118 119 119 119 120 120 120 121 121 122 122 123 124 124 125 125 125 126 127
98 99 100 101 102 103 104 104 105 105 106 107 108 108 108 108 108 108 108 108 108 107 108 108 108 108 108 108 109 109 109 110 110 110 110 111 111 111 112 113 113 114 114 115 116 116 117 118 118 118 119 119
87 88 89 89 90 91 92 93 94 95 96 97 97 97 98 98 99 99 100 100 100 100 100 100 101 101 101 101 102 103 103 104 104 104 104 105 105 105 106 107 108 108 109 110 110 111 112 113 113 113 114 114
82 82 83 83 83 84 85 86 87 89 90 89 89 90 91 92 93 94 94 95 95 95 95 95 96 96 97 97 98 98 99 100 101 101 101 101 101 102 103 104 104 105 106 106 107 109 110 110 110 110 111 111
80 80 81 81 81 82 82 83 85 87 87 86 86 87 88 89 91 91 92 92 93 93 93 93 94 94 95 95 95 96 96 97 99 99 99 99 99 100 101 101 102 104 105 105 106 107 108 108 109 109 109 110

ECMWFFLT2_250_spd_117.txt.gz
Wind_Speed
60 60 60 61 61 61 62 63 64 64 65 66 67 68 69 69 69 69 69 70 70 70 70 71 71 72 73 74 75 76 76 77 78 79 79 80 80 79 79 79 79 79 79 79 79 79 79 79 79 79 80 80
62 62 63 64 64 65 65 65 66 66 66 66 67 69 70 71 72 73 72 72 73 72 72 72 73 73 73 74 74 75 76 77 77 78 79 80 80 80 81 81 81 81 81 81 81 81 81 81 81 81 82 82
66 65 65 66 66 67 67 67 67 67 68 68 68 69 70 72 73 75 75 75 75 75 75 74 74 75 75 75 75 75 76 77 77 78 79 79 80 80 81 81 82 82 82 83 83 83 83 83 83 84 84 84
69 68 68 67 67 67 67 68 68 68 68 69 69 70 70 72 73 75 76 77 78 78 78 78 77 77 77 77 77 77 78 78 78 79 79 79 80 80 81 81 82 82 83 83 84 84 84 85 85 85 85 85
70 71 71 69 68 68 68 68 69 69 69 70 70 71 71 72 73 74 76 77 79 79 80 80 80 80 80 80 80 80 80 80 80 80 80 80 80 81 81 81 81 82 82 82 83 84 84 85 85 85 85 85
71 72 73 73 73 73 73 73 73 73 73 73 73 73 74 74 75 75 76 77 78 79 80 81 82 83 83 83 83 83 83 83 82 82 82 82 82 82 82 82 82 82 82 82 82 83 83 84 85 85 85 86
73 74 75 76 76 77 78 78 78 78 78 78 78 78 78 78 78 78 77 77 77 78 79 80 81 83 84 85 85 86 86 86 86 85 85 85 85 84 84 84 84 84 84 84 84 84 84 84 84 85 85 86
77 78 78 79 79 79 80 81 82 82 81 81 81 81 81 82 81 81 80 79 78 78 79 80 81 83 84 85 86 87 87 88 88 88 88 88 88 88 87 87 87 87 87 87 86 86 86 86 86 86 86 87
79 80 81 81 81 81 82 83 83 83 83 83 83 83 83 84 84 84 83 82 82 82 82 82 83 83 84 85 86 87 88 89 90 90 90 91 91 91 91 90 90 90 90 90 90 90 90 90 90 90 89 89
81 82 82 82 83 82 82 82 82 82 82 83 83 83 83 83 83 84 85 86 86 86 85 85 85 85 85 86 87 88 89 90 91 92 92 93 93 93 93 93 93 93 94 94 93 93 93 93 93 93 93 93
80 81 82 82 83 83 82 81 81 81 81 82 82 82 82 82 82 83 85 86 87 87 87 87 87 87 87 87 88 89 90 91 92 92 93 94 95 95 96 96 96 96 96 96 96 96 96 96 96 96 96 96
78 79 80 80 81 82 81 81 81 81 81 82 82 82 82 82 82 83 84 85 86 87 87 88 88 88 89 89 89 90 90 91 92 93 94 95 95 96 97 97 97 98 98 98 98 98 98 98 98 98 98 98
81 82 82 82 82 82 82 82 83 83 83 83 84 84 84 84 84 84 84 85 86 87 88 89 89 89 90 90 91 91 92 92 93 94 95 95 96 97 97 98 98 99 99 99 99 99 99 99 100 100 100 100
86 87 86 86 85 85 85 86 86 86 86 86 86 86 86 86 86 86 86 86 87 87 88 89 89 90 91 91 92 92 93 93 94 95 95 96 97 97 98 99 99 100 100 101 101 101 101 101 101 101 102 102
90 90 90 90 90 89 89 89 89 89 88 88 88 88 88 88 88 88 88 88 89 89 89 89 90 91 91 92 92 93 93 94 95 95 96 96 97 98 98 99 100 100 101 101 102 102 103 103 103 104 104 104
92 92 92 93 93 92 92 92 92 92 91 91 91 91 91 91 91 91 91 92 92 92 92 92 92 93 93 94 94 95 96 96 96 97 97 98 98 98 99 100 100 101 101 102 103 103 104 104 105 105 106 106
91 91 92 92 92 92 93 93 93 94 94 94 94 94 94 94 94 94 95 95 95 95 95 95 96 96 96 96 97 98 98 99 99 100 100 100 101 101 101 101 102 102 103 103 104 104 105 105 106 106 107 107
90 90 91 91 91 92 92 93 93 94 94 95 96 96 96 96 96 96 96 97 97 98 98 98 99 98 98 99 100 101 101 102 102 103 103 103 103 104 104 104 104 105 105 105 106 106 106 107 107 108 108 109
91 91 90 91 91 91 92 92 93 94 94 95 95 96 96 96 97 97 97 98 98 99 100 100 100 100 100 101 102 103 103 104 105 106 106 106 106 106 107 107 107 108 108 108 108 108 109 109 109 109 110 110
93 93 92 92 92 93 93 94 94 95 96 96 96 96 97 98 98 99 99 99 100 100 101 102 102 102 102 103 104 104 105 106 107 108 108 108 108 108 109 109 109 110 110 110 110 110 111 111 111 111 112 112
94 94 94 95 95 96 97 97 98 99 99 98 99 99 100 100 101 101 102 102 102 103 104 104 104 104 104 104 105 106 108 108 109 109 109 110 110 111 111 111 111 112 112 112 113 113 113 113 113 114 114 114
96 97 97 98 99 99 100 101 101 101 101 101 101 102 103 103 104 104 105 105 106 106 107 107 107 107 107 108 109 110 111 111 112 112 112 112 113 113 114 114 114 115 115 116 116 116 116 116 117 117 117 117
99 99 100 101 101 102 102 103 104 103 103 103 104 104 105 106 106 107 108 108 108 109 109 109 109 109 109 111 112 113 114 114 114 114 115 116 116 117 117 117 118 118 119 119 119 120 120 120 120 121 121 121
101 102 102 103 104 104 105 105 105 105 105 106 107 108 108 108 109 110 110 110 111 111 111 111 111 111 112 113 114 115 116 116 116 117 117 118 119 119 120 120 120 121 122 122 122 122 122 123 123 123 124 124
104 104 105 106 106 107 107 107 107 108 109 110 110 111 111 112 112 113 113 113 112 113 113 113 114 115 116 116 117 117 118 118 119 119 120 120 121 121 121 122 123 123 124 123 123 124 125 125 125 126 126 127
105 106 107 107 108 108 109 109 110 111 112 113 113 114 115 115 116 115 115 115 115 115 116 117 118 119 119 119 120 120 121 121 122 122 123 123 123 124 124 125 125 126 126 126 126 127 128 128 128 129 129 130
106 107 108 108 108 109 110 110 111 112 113 114 115 116 117 117 117 117 117 117 117 118 119 120 121 121 122 122 123 123 124 124 125 125 126 126 126 127 127 127 127 127 128 128 129 129 129 130 130 130 131 132
102 104 104 105 107 108 108 109 110 111 112 114 115 115 116 116 116 116 116 117 117 118 119 120 121 122 122 123 123 124 124 125 125 126 126 127 127 127 126 126 127 127 127 127 128 128 127 128 128 128 129 130
94 95 96 98 99 101 102 103 104 105 107 109 110 110 111 111 111 111 112 113 114 114 115 115 116 117 117 118 118 119 119 120 120 121 122 122 122 122 121 122 121 122 122 123 123 122 122 123 123 123 124 124
86 87 88 90 91 92 94 94 96 97 100 101 101 102 103 103 103 103 104 105 105 106 106 107 107 107 108 108 108 109 109 110 111 112 112 112 112 113 113 114 113 114 115 115 115 116 116 117 117 117 118 119
82 82 83 85 86 87 87 88 90 93 94 95 95 95 96 96 97 97 98 98 99 99 100 100 100 101 101 101 102 102 102 103 104 105 105 105 106 107 107 107 107 108 109 109 109 111 112 112 112 113 113 114

ECMWFFLT2_250_spd_123.txt.gz
Wind_Speed
63 64 65 66 64 62 61 61 60 60 61 62 62 61 61 61 61 62 62 62 63 64 65 66 66 66 67 68 69 70 71 73 73 75 75 76 77 78 78 79 80 81 82 82 83 83 83 83 83 83 82 82
65 65 66 68 68 65 64 63 63 62 61 61 62 62 61 61 62 63 64 65 66 67 67 67 67 67 67 68 68 69 69 70 71 72 73 75 76 77 77 78 79 80 81 82 82 83 83 83 83 83 83 83
67 66 67 69 71 69 67 67 67 67 66 66 65 66 66 65 65 65 67 68 69 70 70 70 70 69 69 69 69 69 69 69 70 71 72 73 74 75 76 77 77 78 79 80 80 82 82 83 84 84 84 84
67 68 67 69 71 72 72 71 70 71 71 71 71 71 71 71 71 71 71 71 71 72 73 72 72 72 72 71 71 71 70 70 70 70 70 71 72 73 74 75 76 77 77 78 79 79 80 81 82 83 84 84
66 69 70 71 71 73 74 74 74 74 74 74 74 75 75 75 76 76 76 76 75 76 76 75 75 75 75 74 74 74 73 73 72 71 71 71 71 72 72 73 74 75 76 77 78 78 78 79 80 81 82 83
66 69 71 73 74 74 74 75 75 76 77 77 77 77 78 79 80 80 80 79 79 79 79 79 79 79 78 78 77 77 77 77 76 75 74 73 73 73 73 73 74 74 75 75 76 77 78 78 79 79 80 80
68 69 71 73 75 76 77 77 77 76 77 78 78 79 80 82 83 83 83 82 82 82 81 81 82 81 81 81 81 80 80 80 80 79 78 77 76 76 76 76 76 76 76 76 76 77 77 78 79 79 79 79
71 70 70 72 74 76 78 79 79 79 79 78 78 78 79 81 83 84 85 85 84 84 83 82 82 82 82 81 81 80 80 80 80 80 80 80 79 78 78 79 79 79 79 79 78 78 78 79 79 80 80 80
75 74 73 73 74 76 77 78 79 79 80 80 80 79 79 80 81 82 83 83 84 84 83 82 81 81 80 80 79 79 79 79 79 80 80 80 80 79 79 79 80 80 81 82 82 82 82 81 81 81 82 82
79 78 77 77 77 78 78 79 79 79 80 80 80 80 80 81 81 81 81 82 83 83 83 83 83 82 81 81 80 80 79 79 79 80 80 80 80 80 80 80 80 80 81 82 83 84 85 85 85 85 84 84
81 81 80 80 81 82 82 82 82 82 81 81 82 82 82 83 83 82 82 82 83 83 84 85 85 85 84 83 82 82 81 81 81 81 81 82 82 82 82 82 82 82 82 82 83 84 85 86 86 87 87 87
84 84 84 84 84 85 85 85 85 85 84 84 85 85 85 86 86 86 85 85 85 85 85 86 86 86 86 85 85 84 83 83 83 83 83 84 84 84 84 84 84 84 84 84 84 84 85 85 86 87 87 88
86 87 87 88 88 88 88 87 87 86 86 86 87 87 87 88 88 88 88 88 88 87 87 87 87 87 87 87 86 86 86 86 86 86 87 87 87 87 87 86 86 86 86 86 86 86 86 87 87 87 87 88
88 89 89 90 91 91 90 90 89 89 88 88 88 88 88 88 89 89 90 90 89 89 89 89 89 89 89 89 89 89 89 89 89 89 90 90 90 91 91 91 90 90 90 90 90 90 90 90 90 90 90 90
91 91 91 92 92 92 92 93 92 92 91 91 91 91 90 90 91 91 91 91 91 91 91 91 91 92 92 92 92 92 92 92 92 92 92 92 93 93 93 93 94 94 94 95 95 95 95 94 94 94 94 94
93 94 94 94 94 94 94 94 94 94 94 94 94 94 93 93 94 93 93 93 93 93 93 93 93 94 94 94 94 94 94 95 95 95 95 95 95 95 96 96 96 96 97 97 97 98 98 98 97 97 96 96
93 95 96 96 96 96 95 95 95 95 96 96 96 96 96 96 96 96 96 96 96 96 96 96 96 97 96 96 97 97 97 98 98 98 99 99 99 98 98 98 98 98 98 98 98 98 98 98 98 97 97 97
93 95 97 98 98 98 98 97 97 97 97 97 97 98 98 99 99 99 100 100 100 100 100 100 100 99 99 99 100 101 101 102 102 102 102 101 101 100 100 99 98 97 97 97 97 97 97 97 96 96 96 96
91 94 96 98 99 99 99 99 100 100 100 100 101 101 101 101 102 102 103 103 104 103 103 103 103 103 102 102 103 103 104 104 104 104 103 103 102 100 99 97 97 96 97 97 97 97 97 97 97 97 98 98
89 91 94 96 99 100 100 100 100 101 102 102 103 104 105 105 105 105 106 106 106 106 107 107 106 106 105 105 104 104 104 104 104 103 103 103 102 101 99 99 99 99 100 101 101 101 100 100 100 101 101 101
89 90 91 93 95 98 100 102 103 104 104 104 104 105 106 106 107 107 107 108 108 108 108 109 108 108 108 108 107 107 106 106 105 105 104 104 103 103 103 103 104 105 105 105 105 104 104 104 104 104 104 104
92 92 92 92 93 95 97 100 103 106 107 108 108 108 108 108 108 109 109 109 110 110 111 111 111 111 111 112 112 111 111 110 110 109 108 107 107 107 108 109 110 111 111 110 109 108 107 108 108 107 107 107
94 94 94 95 95 96 96 98 100 102 105 107 108 109 110 111 112 112 112 112 113 113 114 115 115 116 116 116 116 115 115 115 115 114 112 112 111 112 113 114 115 115 115 113 112 111 111 111 110 110 110 110
98 98 98 98 99 99 100 100 101 101 101 103 104 106 108 110 111 112 113 114 115 116 117 118 118 118 118 118 118 119 119 118 118 116 114 114 114 115 117 117 118 117 116 115 114 114 113 113 112 112 112 113
100 101 101 102 102 102 103 103 103 103 103 103 104 105 106 107 108 110 111 113 114 116 117 118 118 118 118 119 119 119 119 118 117 116 115 114 115 117 118 118 118 118 117 116 115 115 114 114 114 114 114 114
98 100 103 104 105 106 106 106 106 106 107 107 108 108 108 109 110 111 112 113 114 114 115 115 115 115 116 116 116 116 116 116 115 115 114 115 116 117 117 117 117 117 116 116 115 115 114 114 115 115 115 116
95 98 101 103 104 106 107 108 109 109 110 111 111 112 112 113 114 115 115 115 115 115 114 114 114 114 115 115 115 115 115 115 115 115 115 116 116 116 117 117 117 116 116 116 115 115 115 115 115 116 116 117
89 92 95 97 100 102 104 106 108 110 111 112 114 115 116 117 118 118 118 118 117 117 116 116 117 117 117 117 118 118 118 118 118 118 118 118 118 118 118 118 118 118 118 117 118 117 117 118 118 118 119 120
85 87 88 91 93 95 98 101 104 106 109 111 114 115 117 118 119 119 119 119 119 119 120 120 120 121 121 121 121 121 121 121 121 121 121 121 121 121 121 121 121 121 121 121 122 121 121 121 122 122 123 123
84 85 86 87 88 90 92 95 97 100 103 106 109 112 113 115 116 117 118 119 119 120 121 121 122 122 123 123 123 123 123 123 123 123 123 124 124 124 124 124 124 125 125 126 125 125 124 125 125 125 126 127
84 85 85 86 87 88 89 91 92 95 98 100 102 105 106 108 110 111 113 114 116 117 118 119 120 121 121 122 122 122 123 123 123 124 124 124 124 125 125 125 125 126 127 127 127 126 126 126 126 127 127 128

ECMWFFLT2_250_spd_126.txt.gz
Wind_Speed
51 54 56 55 55 56 57 58 58 57 57 58 59 61 61 63 64 65 65 65 66 67 67 67 69 70 71 72 73 74 75 77 78 79 80 81 81 82 82 83 83 83 83 83 83 84 84 84 84 84 83 83
56 56 56 55 54 56 59 62 63 62 61 60 61 63 64 65 66 66 66 67 67 68 68 68 69 71 72 72 72 73 73 74 76 77 78 80 81 81 81 82 82 82 83 83 83 83 83 84 84 84 84 84
59 58 56 57 57 58 61 64 67 67 66 65 64 64 65 66 67 67 67 68 67 67 67 68 69 70 71 72 73 73 73 74 75 76 77 78 79 80 80 80 80 81 81 82 82 83 83 83 83 84 84 84
61 59 57 58 60 61 63 67 69 69 68 68 67 68 68 68 69 69 69 69 68 66 67 68 69 70 70 72 73 74 73 73 74 75 76 77 78 78 79 80 80 80 80 81 81 82 82 82 83 83 83 83
63 61 59 59 61 62 64 68 71 72 71 70 70 70 69 70 71 71 71 72 71 70 70 71 72 72 72 73 74 75 75 75 75 75 76 77 78 78 78 79 79 79 79 80 80 80 80 81 81 81 81 82
67 64 62 61 63 64 65 69 72 74 73 73 74 74 72 71 71 72 71 72 71 70 71 72 73 74 74 74 75 75 76 76 76 77 77 77 78 78 78 78 78 78 78 78 79 79 79 79 79 79 80 80
69 69 67 65 66 68 69 71 74 76 76 76 76 77 77 75 74 75 74 73 72 70 71 71 73 73 73 73 74 75 76 77 78 79 79 79 78 79 79 79 79 79 78 78 78 78 78 78 78 78 78 78
72 72 71 70 70 71 73 74 75 77 79 80 80 80 80 78 77 78 79 78 76 75 75 75 76 76 75 75 74 75 76 77 78 79 80 80 80 79 79 79 79 79 79 79 78 78 77 77 77 77 77 77
75 74 74 74 73 73 75 77 77 79 81 83 84 84 83 82 81 80 81 82 82 80 80 80 80 81 81 80 79 78 78 79 79 79 80 80 80 80 80 79 79 79 79 79 79 79 79 79 78 78 78 78
78 76 76 77 77 76 76 78 79 80 82 84 85 86 86 86 85 84 84 85 85 85 84 84 84 84 84 84 84 83 83 83 82 82 82 82 82 82 82 82 82 82 81 81 81 82 82 82 82 81 81 81
80 79 79 80 81 81 80 80 80 81 83 85 86 87 87 87 88 89 88 88 87 87 87 87 87 87 87 87 87 87 87 87 86 86 86 86 86 86 86 86 86 86 85 85 85 84 84 84 84 84 84 84
85 83 82 83 84 84 84 84 83 82 83 84 86 88 88 88 88 90 91 91 90 90 90 90 90 90 90 90 90 90 91 91 90 90 90 90 90 90 89 89 89 89 88 87 86 86 85 85 84 84 84 85
89 88 87 86 86 86 87 87 86 85 84 84 85 87 89 90 90 90 92 93 93 93 92 92 92 92 92 92 92 91 92 92 93 93 93 93 93 92 91 90 90 89 88 87 86 85 85 84 84 84 84 84
89 91 91 90 88 87 88 88 89 88 88 87 87 87 88 90 91 92 93 94 95 94 94 94 93 94 94 94 93 93 92 92 93 93 93 94 93 93 92 91 90 90 89 88 87 86 86 86 85 85 85 85
87 91 93 94 93 91 90 90 90 91 91 91 91 90 90 89 90 92 94 96 97 97 97 96 96 95 95 95 94 94 93 93 93 93 94 94 94 93 93 93 92 92 91 91 90 90 89 89 88 88 87 87
85 89 93 95 96 96 95 93 92 93 93 94 94 94 93 92 91 92 93 95 97 99 99 99 99 98 98 97 96 96 95 95 94 94 94 94 94 94 94 94 94 94 94 94 93 93 92 92 91 90 90 89
80 86 92 95 96 98 99 99 98 96 96 96 96 96 96 95 95 95 95 95 97 98 99 100 100 100 100 99 99 99 98 97 97 97 96 96 96 96 96 96 96 96 96 96 96 96 95 94 93 93 92 92
80 83 88 93 97 99 100 101 101 101 100 99 99 99 99 99 99 99 99 99 99 100 101 101 102 102 102 102 102 102 101 101 101 101 101 100 100 100 99 99 99 99 98 98 98 97 97 96 96 95 95 95
84 84 85 88 92 97 100 101 102 102 103 103 103 103 103 103 102 102 102 102 103 104 104 105 105 105 105 104 105 105 105 105 105 105 104 104 104 103 103 102 102 101 101 101 100 100 99 99 99 99 99 99
86 86 86 86 88 91 95 99 102 103 104 105 105 106 107 107 106 106 105 106 106 107 107 108 108 107 107 106 106 107 107 107 107 107 107 107 106 106 105 105 104 103 103 103 103 102 102 102 102 102 102 102
89 90 89 89 89 89 90 93 97 101 105 106 107 107 108 109 109 109 108 109 109 110 110 110 110 109 109 108 108 108 108 108 108 108 109 109 108 108 108 107 106 105 105 105 105 105 105 105 104 104 104 104
91 92 92 92 91 91 91 91 93 96 100 104 107 109 110 110 110 110 110 110 111 112 112 112 112 112 112 111 111 111 111 111 111 111 111 111 111 110 110 109 108 108 107 107 108 108 107 107 107 107 107 107
92 92 93 94 95 94 94 94 95 96 96 98 101 105 109 111 112 112 112 113 113 114 114 115 115 115 115 115 115 114 114 114 114 114 114 114 113 112 112 111 111 110 110 110 110 110 110 110 110 110 110 110
93 94 95 96 97 97 98 98 99 98 98 98 99 101 103 106 109 111 113 114 115 115 116 117 117 117 117 117 117 116 116 116 116 116 116 115 114 114 113 113 113 112 112 112 113 113 114 114 114 114 113 113
92 94 96 98 99 100 101 101 101 101 101 101 102 102 102 103 104 107 109 112 114 116 117 118 118 118 119 119 119 119 119 119 118 118 117 117 117 116 116 116 115 115 115 115 116 117 118 118 118 117 116 116
89 92 96 99 100 102 103 103 103 104 104 105 105 105 105 105 105 106 108 110 112 114 115 117 118 118 118 118 119 119 120 120 119 119 119 119 119 119 119 118 118 118 118 119 121 122 122 121 121 120 119 119
86 90 93 97 99 101 103 104 105 106 107 108 108 108 109 109 110 110 111 111 112 112 112 113 115 116 117 117 118 119 119 119 119 119 119 119 120 120 120 119 120 120 121 122 123 124 124 123 122 122 121 122
84 87 90 92 95 98 100 103 105 107 108 109 110 112 113 113 114 114 114 114 114 113 112 112 113 113 114 116 117 119 120 120 121 121 122 122 122 122 122 122 122 123 123 124 125 125 125 124 124 123 124 125
84 85 87 88 91 93 96 99 103 106 108 109 111 113 115 116 116 117 116 116 116 115 115 115 115 115 116 116 117 118 119 120 121 122 123 124 124 125 125 125 125 125 125 126 127 127 127 126 126 126 127 127
84 85 86 87 88 90 92 94 97 101 104 107 110 113 114 115 116 117 117 118 119 119 119 118 119 119 119 119 119 120 120 120 121 122 122 123 124 124 125 125 124 124 125 126 127 127 127 127 126 126 127 127
82 84 85 87 88 89 90 91 93 96 99 102 105 108 111 113 115 117 118 119 120 121 121 121 122 122 122 122 123 123 123 123 123 124 124 125 125 125 125 124 123 124 125 125 126 126 126 126 126 126 126 126

ECMWFFLT2_250_spd_129.txt.gz
Wind_Speed
56 57 56 52 48 45 42 43 47 50 51 49 48 48 49 48 48 49 49 50 50 51 55 56 55 54 56 60 63 67 70 73 76 78 79 81 83 85 86 88 89 90 91 91 91 91 91 91 90 90 90 89
58 58 57 53 51 48 45 45 50 54 55 53 51 49 51 52 53 54 55 54 54 53 54 57 56 56 57 60 62 65 68 71 72 74 74 76 78 80 82 83 85 87 88 88 89 89 89 89 89 89 90 89
60 61 58 55 53 50 48 49 53 55 56 55 53 51 51 53 55 57 58 57 57 56 55 56 58 59 60 61 63 66 68 70 71 72 72 73 74 76 78 80 81 83 84 85 86 87 87 87 87 88 88 89
63 63 61 57 55 54 52 54 56 55 57 57 54 54 55 56 57 58 60 60 59 60 59 58 59 61 62 63 64 65 67 69 71 73 72 72 73 74 76 77 79 80 81 82 83 84 85 86 86 86 87 87
64 65 63 59 57 57 57 58 58 56 58 60 57 58 60 60 59 59 60 62 62 62 62 62 62 63 63 64 66 67 68 69 72 74 74 73 73 74 75 76 76 77 78 79 81 82 83 83 84 85 85 86
66 67 66 62 59 60 60 61 63 60 59 62 62 63 64 64 63 62 62 64 64 65 66 66 66 67 68 68 68 69 70 72 74 76 77 76 75 75 75 76 76 76 76 77 78 79 80 81 82 83 83 84
68 70 70 65 61 61 63 65 65 64 62 64 65 66 68 69 67 65 65 66 67 68 68 69 69 70 71 72 72 72 72 72 74 76 77 76 76 76 76 77 77 78 78 78 78 78 79 79 80 80 81 82
69 71 73 70 65 62 65 68 69 68 66 66 67 68 71 73 71 69 69 69 69 70 70 71 73 73 73 74 74 75 74 74 74 75 75 75 76 76 76 77 78 79 80 80 79 79 79 79 80 80 80 81
71 73 74 75 72 68 66 68 71 71 70 69 69 70 72 74 75 73 72 72 72 72 72 73 74 76 77 76 75 75 75 75 75 76 76 75 76 77 78 78 79 79 81 82 82 82 81 81 81 80 80 81
72 76 76 77 79 76 72 71 71 72 73 73 72 72 73 75 77 78 76 75 75 75 75 75 75 76 79 80 79 79 78 77 77 78 78 78 77 79 80 81 81 81 82 83 83 84 84 84 83 83 82 82
70 76 79 80 82 81 78 77 76 74 74 75 75 74 74 76 78 80 81 81 80 79 79 78 78 78 79 80 81 83 83 82 80 80 81 81 81 82 83 84 85 86 86 86 86 86 86 86 85 85 84 83
68 74 80 83 83 83 83 81 80 81 78 77 78 78 76 77 80 82 84 85 86 85 85 84 83 82 82 81 82 84 87 87 85 84 84 84 84 84 85 85 86 87 87 87 86 85 85 85 85 85 85 84
68 71 79 84 85 85 86 85 82 83 84 83 81 82 81 80 81 83 86 88 90 91 91 90 89 88 87 86 85 85 87 89 88 87 86 86 85 84 84 84 84 84 85 84 83 82 82 83 84 85 86 86
71 71 75 82 87 88 87 88 87 84 86 87 86 85 85 85 85 85 86 89 92 94 95 95 94 93 92 91 90 89 88 89 90 88 87 88 87 86 86 85 84 84 83 83 82 82 82 83 84 85 86 86
74 74 74 78 85 90 90 90 91 88 85 87 89 89 89 88 88 89 90 91 93 96 98 99 98 98 97 97 97 95 93 92 93 92 92 92 91 91 90 89 89 89 88 88 87 87 87 88 88 88 88 88
76 76 77 77 80 86 91 93 93 92 89 87 88 91 92 92 91 92 94 95 95 96 98 100 101 101 101 101 101 100 99 97 96 96 96 96 96 95 95 94 94 95 95 95 95 94 94 93 93 93 93 92
78 78 79 80 79 82 87 92 95 96 94 92 90 91 94 95 95 95 96 97 98 98 100 101 102 104 104 104 104 104 103 102 101 100 99 99 99 99 98 98 98 98 98 99 99 99 98 98 97 97 97 97
81 81 82 82 82 82 82 86 93 98 99 98 96 94 94 95 97 98 98 98 99 100 101 102 103 104 106 106 107 106 106 105 105 104 103 102 102 102 101 101 100 100 100 100 100 101 101 101 101 101 101 100
83 84 85 85 84 84 84 84 88 95 100 102 102 100 99 97 97 99 100 101 100 100 101 102 103 105 107 108 108 109 109 108 108 108 107 106 105 105 105 104 104 103 102 101 101 102 102 102 102 102 102 102
84 85 87 87 87 87 88 88 87 90 96 101 104 105 105 103 102 101 102 103 103 103 102 103 104 105 106 108 108 109 109 110 110 110 110 110 110 110 110 109 109 108 107 106 105 104 104 104 104 103 103 103
84 86 88 90 90 91 91 91 90 90 92 95 101 105 108 109 109 107 105 105 105 105 105 106 106 106 107 107 108 109 109 109 110 111 111 112 112 112 113 113 112 112 111 110 110 109 108 107 106 105 105 104
85 86 88 90 91 92 93 93 92 93 94 94 96 100 105 110 113 113 111 109 108 107 107 108 108 108 109 110 110 110 110 109 110 111 112 113 113 114 114 114 114 114 114 114 113 112 111 111 110 109 108 107
86 87 89 90 92 93 94 95 96 96 97 97 96 97 100 106 111 114 115 114 113 111 110 110 110 111 112 112 113 113 112 111 111 112 112 112 113 113 114 114 115 116 116 116 116 115 115 114 113 112 112 111
86 88 90 91 92 93 95 97 99 100 99 99 99 99 101 103 106 109 113 116 117 116 115 114 114 114 115 115 115 116 116 116 115 115 114 114 113 113 113 114 114 115 116 116 116 116 116 116 115 114 114 113
84 87 90 92 93 93 95 97 99 101 102 102 102 103 104 104 104 105 108 112 116 118 119 119 119 119 119 119 118 119 119 119 119 118 118 117 117 116 115 115 115 115 115 116 116 116 116 116 116 116 115 115
81 84 87 90 93 95 96 97 98 100 101 103 105 106 106 106 106 106 107 109 111 114 117 120 122 124 124 123 122 122 121 121 121 121 121 121 121 120 120 119 119 118 118 118 118 119 119 118 118 118 118 118
81 83 85 87 89 93 96 97 99 100 101 102 105 107 108 109 109 109 110 111 111 112 114 116 119 123 125 125 125 124 124 123 123 123 123 123 123 123 123 122 122 122 122 122 122 122 122 122 122 121 121 121
80 83 85 86 87 89 92 94 98 100 102 103 105 107 109 111 112 113 113 114 115 114 114 113 114 117 119 121 123 124 125 126 126 127 126 126 126 126 125 125 125 126 126 126 126 125 125 125 125 124 123 123
80 81 84 86 87 88 90 91 94 97 100 103 106 108 110 112 113 114 115 116 117 116 116 115 115 116 116 117 118 120 122 124 126 128 129 129 129 128 128 128 128 128 129 128 128 128 128 128 127 127 127 128
80 81 83 85 86 88 90 91 93 95 98 100 104 108 111 113 114 114 114 115 117 118 118 118 118 119 119 118 118 118 119 120 122 125 127 129 130 130 131 131 130 130 130 130 130 130 130 130 130 130 131 131
80 82 83 84 86 87 89 90 92 95 97 98 101 104 108 111 113 114 115 116 117 118 119 120 121 121 122 122 121 121 120 120 120 122 124 125 126 128 129 130 130 130 131 132 131 131 131 131 131 131 131 131

ECMWFFLT2_250_spd_132.txt.gz
Wind_Speed
53 56 58 59 60 60 59 60 62 60 56 56 55 54 54 55 56 57 58 58 59 59 60 61 62 63 65 68 69 71 72 74 76 78 81 82 84 88 91 93 94 93 93 93 93 93 93 92 92 91 90 90
55 59 61 62 62 62 62 62 62 60 57 57 57 55 54 55 55 55 56 55 54 54 54 55 57 58 59 62 64 67 67 68 69 72 75 77 79 82 85 89 91 92 92 92 92 93 93 93 93 92 92 91
56 59 61 61 62 63 63 63 61 60 57 57 58 56 54 55 55 55 55 54 52 50 49 50 51 51 52 54 57 61 63 62 62 63 66 69 73 75 77 80 84 88 89 90 90 91 91 92 93 93 93 92
57 59 60 60 62 63 64 63 61 60 59 58 58 57 54 55 57 56 54 53 52 50 50 50 48 49 51 51 52 55 58 59 58 57 59 61 63 66 70 72 74 78 82 84 86 87 88 89 91 91 92 92
59 59 60 60 62 64 64 64 63 62 60 59 59 58 55 55 57 57 55 55 54 52 51 50 48 50 53 54 54 55 56 58 58 58 57 58 59 61 64 67 68 70 73 76 78 80 82 84 86 88 89 89
60 60 60 60 62 65 66 66 65 64 62 61 60 59 58 56 58 59 58 57 57 55 54 53 52 54 57 59 59 59 58 58 59 59 59 59 59 60 63 65 67 68 69 70 71 73 76 78 81 83 84 85
61 61 60 60 62 66 68 68 67 66 65 63 62 62 61 59 59 61 60 60 61 59 59 58 58 60 62 63 63 63 63 62 62 62 62 62 62 62 64 66 67 68 69 69 70 71 73 75 76 78 80 80
63 62 62 61 62 66 69 70 69 69 69 67 65 64 64 62 60 63 63 63 64 64 63 63 63 63 65 66 65 66 66 66 66 66 67 67 67 68 67 68 69 70 71 71 72 72 73 74 75 76 77 78
64 64 63 62 63 66 70 71 71 72 72 71 69 66 66 65 62 63 65 65 67 68 67 67 66 65 67 68 68 68 69 68 67 67 70 71 72 72 71 71 72 73 74 74 74 74 74 75 75 75 76 76
66 66 65 64 64 65 69 72 74 76 75 74 72 70 69 68 65 64 65 67 69 70 70 70 69 69 69 69 70 71 71 71 69 67 69 72 74 73 72 73 74 75 75 76 75 75 76 76 76 77 76 76
67 68 67 66 65 66 69 73 77 78 77 76 75 73 72 72 70 68 67 69 71 73 73 72 72 72 72 71 71 72 72 72 71 70 70 72 74 75 74 75 75 76 76 77 77 77 78 79 79 80 79 79
69 70 70 69 68 68 69 72 78 80 78 77 77 75 75 76 75 73 70 70 73 76 77 75 76 76 76 75 74 73 74 74 73 73 73 74 75 76 77 77 76 76 77 78 79 80 81 82 83 83 83 82
71 72 72 72 71 72 72 73 76 80 79 78 79 78 77 77 77 76 75 73 74 78 81 81 80 80 79 79 78 77 76 76 77 76 75 75 76 77 78 79 79 78 78 79 79 80 81 82 83 84 84 84
72 73 74 74 75 76 76 75 75 77 80 81 81 81 79 77 78 80 79 78 77 79 82 85 85 85 84 84 83 81 80 79 80 80 80 79 79 78 79 80 81 81 81 80 80 80 80 81 81 82 82 82
73 74 75 77 78 78 78 78 77 77 80 83 84 85 83 80 79 81 82 82 82 82 83 86 88 88 88 88 88 86 84 83 82 83 83 84 84 83 82 82 83 83 83 83 83 82 81 81 82 82 82 82
74 75 77 79 79 80 80 81 81 79 79 83 87 88 88 86 83 83 84 85 86 86 86 87 88 90 91 91 91 90 88 86 85 85 85 85 86 87 87 86 86 85 86 86 86 86 85 85 85 85 85 85
76 76 79 81 82 83 84 83 84 83 82 83 86 90 92 92 90 87 86 86 87 88 90 90 90 91 92 92 93 93 93 91 88 87 87 87 87 88 89 90 89 89 89 88 89 89 88 88 88 88 88 89
77 78 80 83 84 84 85 86 86 86 86 85 86 89 94 96 96 94 91 89 88 89 91 93 93 93 93 93 94 95 96 96 94 92 90 89 89 89 90 91 92 92 93 92 92 92 92 91 91 91 91 91
78 78 81 84 85 85 86 88 88 87 88 89 87 88 93 97 99 99 98 95 93 91 92 93 94 95 96 95 95 96 97 97 98 97 96 94 93 92 91 91 92 92 93 94 94 94 95 94 94 93 93 93
78 79 81 83 85 86 89 89 89 89 89 91 91 91 92 96 101 103 102 101 98 96 95 96 96 97 97 98 98 98 98 98 99 100 101 100 99 98 97 96 95 95 95 95 96 96 96 96 96 96 95 95
77 80 81 83 85 86 89 90 90 91 92 92 93 95 95 96 100 105 106 105 104 102 100 99 100 100 100 101 102 102 101 101 101 102 103 103 103 103 103 102 102 101 101 100 100 100 99 99 99 98 98 99
75 78 81 83 85 86 88 90 91 93 94 95 95 96 97 98 99 102 107 109 108 107 106 104 103 103 104 105 105 105 105 104 104 105 105 105 105 106 106 106 107 107 107 107 106 105 104 104 103 101 101 101
73 75 80 83 84 86 88 89 91 93 95 97 97 97 98 101 101 102 105 109 111 111 110 109 108 106 105 107 109 109 108 108 108 108 109 108 108 108 108 109 109 110 110 111 111 111 110 109 108 107 106 105
71 74 78 80 82 85 88 90 91 93 95 97 98 99 101 102 103 104 105 106 109 112 113 113 113 111 109 109 110 111 112 113 113 112 112 112 112 112 112 112 112 113 113 114 114 114 114 114 113 113 112 111
71 73 76 79 80 82 86 90 92 93 95 97 98 100 103 103 103 104 106 106 107 110 113 114 115 116 115 114 113 112 113 115 116 116 116 115 115 115 115 115 116 116 116 116 117 117 117 117 117 116 116 116
71 73 76 78 80 82 85 87 90 92 95 98 99 100 102 103 105 106 107 108 109 110 111 113 115 118 120 119 117 117 117 116 116 118 119 118 118 118 118 118 118 118 118 118 119 120 120 119 119 119 119 118
72 74 76 78 79 82 84 86 88 91 94 97 98 100 102 104 106 107 109 110 111 112 113 113 113 115 119 121 121 122 122 120 118 118 119 119 120 120 119 119 119 120 120 121 121 121 121 120 121 121 121 121
75 76 77 79 80 81 83 84 87 90 92 94 97 100 102 105 106 107 109 111 112 113 114 115 115 114 115 118 120 123 124 124 123 122 121 121 121 121 121 121 122 122 122 122 122 122 121 122 122 121 121 122
78 78 79 80 81 82 83 83 85 88 91 93 96 98 101 104 106 108 109 111 112 113 114 116 116 116 116 116 118 120 122 124 126 126 126 125 124 124 124 124 124 125 125 125 124 123 123 123 122 122 123 124
81 81 82 82 83 84 85 85 86 87 90 92 95 97 99 101 104 107 109 110 112 113 114 116 117 117 118 119 119 119 120 121 124 126 128 129 129 128 128 127 127 127 128 128 127 127 127 127 126 126 126 126
84 84 85 85 86 87 87 88 88 89 90 92 94 96 98 100 102 105 107 109 111 113 115 116 117 118 118 120 121 122 121 121 122 123 126 128 130 131 132 131 130 130 131 130 130 130 130 131 130 130 130 130

ECMWFFLT2_250_spd_135.txt.gz
Wind_Speed
49 52 53 57 58 58 61 64 66 68 68 65 63 63 63 63 64 65 66 68 67 63 63 65 65 66 68 70 70 71 71 71 74 78 80 81 83 85 87 90 92 94 96 98 100 101 102 101 99 97 96 95
50 52 55 58 62 62 64 68 70 70 71 70 70 71 70 68 68 68 68 70 70 68 66 67 68 68 70 70 70 70 71 69 70 74 77 79 81 82 84 86 89 91 93 94 95 97 98 99 99 98 96 95
52 54 58 60 62 64 66 69 70 69 71 72 72 72 71 70 70 69 69 71 72 70 69 69 70 69 69 70 69 69 70 69 68 70 72 76 79 80 82 83 85 87 88 89 90 90 92 94 96 97 96 96
54 57 61 61 62 64 66 67 68 69 71 72 72 73 72 71 70 70 71 71 71 70 69 68 68 68 68 68 68 68 69 69 68 67 68 71 75 77 79 81 82 83 84 84 85 85 87 88 90 92 93 94
57 59 61 61 62 64 66 67 67 69 70 71 72 73 74 73 72 71 70 70 70 70 68 67 66 67 67 67 67 66 66 65 65 65 66 69 72 73 75 77 78 79 80 80 80 81 83 84 85 85 87 89
58 60 61 62 63 63 65 67 67 69 70 71 71 71 72 73 72 70 68 68 68 69 68 66 66 66 66 66 65 64 63 61 61 61 63 66 69 71 72 73 74 75 75 75 76 77 78 79 79 80 81 83
60 62 62 63 63 64 65 66 67 68 69 70 71 71 72 73 72 70 68 68 67 67 67 66 64 64 65 64 63 62 60 58 57 56 58 61 63 66 69 70 70 71 70 70 70 70 71 72 73 74 76 79
61 63 64 65 65 65 66 66 68 68 68 69 70 72 72 73 73 72 70 69 69 67 67 66 64 64 64 65 63 60 58 57 55 53 55 57 59 61 64 66 68 68 67 65 65 62 62 64 66 69 71 75
63 65 66 67 67 67 67 67 68 69 69 69 70 72 73 74 74 73 71 70 70 69 69 67 65 64 65 66 65 61 59 58 57 56 58 58 59 61 62 63 65 67 68 67 66 61 58 60 63 64 66 71
65 67 67 68 69 69 68 68 69 70 70 70 71 73 75 76 75 74 72 71 71 71 71 70 68 66 67 68 66 65 64 62 62 62 63 63 62 64 65 64 64 66 69 71 71 68 64 63 66 65 63 65
66 67 68 69 71 71 71 70 71 71 71 72 73 74 77 78 77 75 74 73 73 73 73 73 72 70 70 71 68 68 68 66 66 67 66 66 65 65 67 67 66 66 68 71 73 73 71 69 70 69 66 65
67 67 69 70 72 73 74 73 73 74 74 74 76 77 78 79 79 77 76 76 75 75 77 76 75 74 73 73 73 71 71 69 69 70 70 69 69 68 67 67 67 68 68 69 71 73 73 72 73 73 72 71
68 69 70 71 73 75 76 76 76 77 78 78 79 80 80 80 80 80 79 78 78 78 79 78 76 76 75 75 76 76 75 74 73 74 73 72 73 73 72 70 68 68 69 71 72 72 73 74 75 76 77 76
68 69 71 72 74 75 76 77 78 80 82 82 82 83 83 82 81 80 80 80 80 80 80 80 78 77 77 77 78 79 79 78 77 78 78 77 77 77 76 75 73 71 71 72 73 73 75 76 77 79 80 80
68 69 71 73 75 76 77 78 79 82 84 84 85 86 86 84 81 79 81 83 82 82 82 82 82 79 79 79 79 80 81 80 81 81 82 82 81 81 79 79 78 76 74 74 74 74 76 78 80 81 82 83
67 69 71 73 75 77 79 80 81 83 85 86 87 89 88 87 85 82 81 86 88 87 85 85 85 83 82 81 81 82 82 82 83 84 84 85 84 83 82 81 82 79 76 74 74 75 76 78 82 85 85 85
66 68 70 73 75 77 79 80 82 85 87 88 89 90 91 90 88 86 83 85 90 92 90 89 89 88 86 85 85 85 85 85 86 86 86 87 87 86 84 83 83 83 80 77 74 75 76 77 80 84 87 88
66 68 70 72 75 77 79 81 83 86 88 89 90 91 93 92 91 90 87 86 89 93 95 93 92 92 90 89 87 87 87 87 88 89 90 90 89 88 87 85 84 85 85 83 80 77 76 77 78 81 85 87
66 68 70 72 73 76 79 82 84 86 89 89 90 92 93 93 92 92 91 89 89 91 95 96 95 94 92 91 91 90 90 90 90 92 93 93 93 92 91 89 88 88 87 87 86 84 81 80 79 80 82 85
64 67 70 72 73 75 78 82 84 86 89 90 91 92 92 93 94 94 93 92 91 91 93 97 99 97 95 93 93 94 94 94 94 94 95 96 96 96 95 93 92 91 91 90 89 89 88 86 84 84 84 85
64 66 69 72 74 75 78 81 85 87 89 91 92 93 94 94 95 96 95 96 95 94 93 96 100 101 99 97 96 95 96 97 97 97 97 98 98 98 98 97 95 94 93 93 93 92 92 91 90 90 89 89
65 67 69 71 73 75 78 80 83 86 89 92 93 94 95 97 97 97 97 98 98 98 97 97 99 102 103 102 100 97 97 98 99 100 100 100 100 101 101 100 99 98 96 96 95 95 95 95 94 94 94 94
68 69 70 71 72 75 77 79 81 84 88 92 95 96 97 98 99 99 99 99 100 101 101 102 101 101 103 105 105 102 100 99 100 102 102 102 102 102 103 103 102 101 101 100 98 97 97 98 97 97 96 96
69 70 72 72 73 75 77 79 81 83 86 89 93 96 99 100 100 100 101 101 103 103 103 104 104 102 103 105 107 107 105 103 102 103 104 104 104 104 105 105 105 104 104 104 104 102 100 100 99 98 98 98
71 72 73 74 74 76 79 80 81 82 85 87 91 94 98 100 101 102 103 103 105 106 105 105 105 105 106 105 106 109 111 110 107 105 105 106 106 107 108 107 107 106 106 106 107 107 105 104 102 101 100 99
74 74 74 75 76 78 80 82 82 83 84 87 89 92 95 98 100 102 104 105 106 108 108 107 107 107 108 108 107 109 113 115 114 111 109 108 109 110 111 110 109 109 108 108 109 110 109 107 105 104 104 103
77 77 77 77 78 79 81 84 85 84 85 87 89 91 93 95 98 101 103 106 108 109 110 110 110 109 109 109 109 110 111 114 117 117 115 113 112 112 112 113 113 113 112 112 112 111 110 109 109 108 107 107
80 80 80 80 80 81 82 84 86 87 87 88 89 91 92 95 97 99 101 104 107 109 110 111 111 112 111 111 111 112 113 113 116 119 121 119 117 115 115 115 115 116 116 115 114 114 113 112 112 110 109 110
82 83 83 83 83 84 84 86 87 88 89 90 91 92 93 95 96 98 100 102 104 107 110 111 112 113 114 113 113 113 114 115 115 118 121 123 123 121 119 118 118 117 117 117 117 117 116 116 114 113 113 114
85 85 85 86 86 86 87 88 89 90 91 92 93 94 94 95 97 98 100 101 103 105 107 110 112 114 115 115 115 115 115 117 118 118 119 122 124 126 125 124 122 120 119 119 120 120 120 120 119 118 118 118
89 88 88 88 89 89 89 90 91 92 92 93 95 96 97 97 98 99 100 101 103 104 106 107 110 112 114 116 117 117 117 118 119 121 121 121 123 126 129 129 127 125 124 123 123 123 124 124 123 123 122 121

ECMWFFLT2_250_spd_138.txt.gz
Wind_Speed
44 39 41 45 50 55 58 60 62 60 62 66 64 65 65 65 67 66 67 65 61 62 65 67 68 68 69 69 67 67 68 69 71 72 75 78 80 81 82 84 85 86 88 89 91 93 95 97 99 101 102 103
45 40 44 50 54 58 61 63 64 65 66 67 67 68 70 70 70 69 70 70 68 66 64 65 67 68 70 71 71 71 70 71 71 72 73 75 79 81 82 84 85 86 87 89 90 91 93 94 96 98 100 102
49 47 49 52 56 61 63 64 66 69 70 69 69 71 73 74 73 71 72 73 73 72 68 66 68 69 70 71 73 74 73 72 73 73 73 74 77 80 83 83 83 85 87 88 89 89 91 92 94 95 97 99
51 52 52 55 60 63 65 66 68 70 70 71 73 74 75 75 75 75 74 74 75 75 73 72 71 71 71 72 73 74 74 73 73 74 74 74 75 77 81 81 81 82 84 86 87 87 88 90 91 93 95 97
54 55 53 57 62 65 67 68 70 70 70 71 74 76 76 76 77 77 76 75 76 77 76 75 74 73 74 74 74 75 74 72 72 75 76 75 75 75 76 78 79 80 81 83 85 85 86 87 89 90 92 94
57 58 56 59 63 66 68 69 71 71 72 73 75 76 78 78 77 77 77 77 77 78 77 77 76 76 77 78 78 78 76 73 72 74 76 76 75 74 73 75 76 77 78 79 81 83 84 85 87 88 90 91
58 60 60 61 63 67 68 69 71 72 73 76 77 78 79 79 78 78 78 78 78 78 79 79 78 78 79 80 81 81 79 77 75 75 76 77 75 74 74 74 74 75 76 76 78 80 81 83 85 87 88 89
58 60 62 64 65 68 69 70 71 72 73 75 77 80 81 80 79 79 80 79 79 79 80 81 81 81 81 82 82 82 81 79 78 77 77 78 76 74 74 75 75 75 75 75 76 76 77 79 82 84 86 87
58 60 63 66 68 69 70 70 72 73 74 74 76 80 82 82 82 82 82 82 82 81 81 82 83 83 83 84 84 84 83 81 80 79 78 78 77 74 73 74 75 75 75 74 75 75 75 75 78 81 83 85
57 60 63 66 69 71 71 71 73 75 76 75 75 78 81 83 84 84 84 85 85 84 84 84 84 84 84 85 85 85 84 82 81 80 78 77 77 75 73 73 74 75 75 74 74 73 73 73 74 77 80 82
57 59 63 65 69 72 72 72 73 75 76 77 77 79 81 83 85 86 86 87 88 87 87 86 87 86 85 85 85 85 84 83 82 82 80 79 78 77 75 74 75 75 75 74 73 72 71 70 71 73 76 79
58 59 61 64 68 72 73 73 74 74 76 78 79 80 83 84 86 86 87 88 89 89 88 87 88 88 87 85 85 85 85 84 84 83 82 80 79 78 76 75 75 75 76 75 73 71 70 69 69 70 72 75
58 60 61 63 67 71 74 74 75 76 76 78 79 80 83 85 86 87 88 90 91 90 89 88 88 88 87 85 85 84 84 83 83 82 81 81 80 79 77 75 74 75 76 75 74 72 69 68 66 66 68 71
57 59 61 63 66 69 72 74 76 77 78 78 78 80 82 85 87 88 89 91 92 92 90 88 89 90 89 87 86 86 85 84 84 84 82 81 80 79 78 76 75 75 74 74 73 72 70 68 66 65 65 67
57 58 60 62 65 68 71 74 76 77 78 78 79 80 83 85 87 89 91 93 94 94 92 90 90 91 91 90 88 87 87 86 86 86 84 82 81 80 79 77 77 77 76 75 73 71 71 70 69 68 66 66
58 59 60 61 64 67 69 72 75 77 79 79 81 82 83 86 88 90 92 95 97 97 95 93 91 91 91 91 90 89 88 88 88 88 86 84 82 82 81 79 78 79 78 77 75 74 73 73 73 72 70 69
59 60 60 61 63 67 69 72 74 77 79 81 83 84 84 87 89 90 93 97 99 99 98 95 93 92 92 92 92 90 89 88 89 89 88 86 84 84 84 82 81 82 81 80 78 77 77 78 78 76 74 74
60 61 62 63 64 66 69 71 74 77 80 82 84 86 87 88 90 92 95 98 100 100 99 97 95 94 93 93 93 93 92 90 90 90 90 89 87 86 86 86 85 84 85 84 82 81 81 81 82 79 76 74
61 62 64 64 65 66 68 71 74 77 79 81 84 87 89 90 91 94 96 98 100 100 100 99 97 96 95 94 94 95 96 94 93 92 92 92 90 89 88 89 89 88 87 87 86 85 85 84 85 84 81 77
63 64 64 66 66 68 69 71 73 76 78 81 83 86 90 91 93 96 98 99 99 100 101 101 99 99 98 97 96 96 98 98 97 95 94 94 93 92 91 91 92 91 90 90 89 89 88 88 88 87 86 84
67 66 66 66 68 69 71 72 73 75 77 81 83 86 90 92 94 97 99 100 100 100 102 102 101 101 100 100 98 98 98 100 101 100 98 96 95 95 94 93 93 93 93 93 92 92 91 91 91 90 89 89
70 70 69 68 69 70 72 73 74 76 77 80 83 86 89 93 95 97 99 100 101 102 103 103 102 102 102 102 101 101 100 100 101 103 103 101 99 97 96 95 94 94 94 95 95 95 94 94 94 94 93 91
72 72 72 71 71 72 73 74 75 77 78 80 82 85 88 92 95 97 98 99 101 104 104 104 104 104 104 103 103 104 103 102 102 104 107 107 104 101 98 97 96 95 95 96 97 97 97 97 97 98 97 95
76 75 75 74 74 74 75 75 76 77 79 81 82 84 87 90 93 95 98 100 102 104 105 105 106 106 106 106 104 104 106 106 105 106 108 110 110 105 101 99 98 98 97 96 97 99 100 99 99 100 101 100
79 78 77 77 77 77 77 77 78 79 80 82 84 85 87 89 91 93 97 100 103 105 106 106 107 107 108 108 106 106 108 110 110 109 109 110 111 110 106 102 101 101 100 98 98 100 102 102 101 100 102 103
82 82 81 80 80 80 80 80 80 81 82 84 85 86 88 89 90 92 95 98 101 104 107 108 108 108 109 109 109 109 110 112 112 113 112 110 109 111 111 108 105 104 103 102 102 103 103 104 104 103 102 104
84 85 85 84 84 83 83 83 83 84 84 85 86 88 90 90 91 92 94 97 99 102 105 108 109 110 111 111 111 111 112 113 113 113 114 113 110 110 112 114 112 108 107 107 107 106 105 105 106 105 104 104
88 88 88 88 87 87 86 86 86 86 86 87 88 89 91 92 93 94 96 97 99 100 103 106 108 110 111 113 113 113 114 114 114 113 114 115 114 112 112 114 116 115 113 111 110 109 108 107 107 106 106 107
92 91 91 91 91 90 90 90 90 89 89 90 90 91 93 94 94 95 97 98 100 101 103 104 106 107 110 113 114 115 116 116 116 116 116 116 116 116 114 113 115 118 118 116 114 113 111 110 109 108 110 110
95 95 95 94 94 94 94 93 93 93 93 93 93 94 95 96 97 97 98 100 101 103 104 105 105 106 108 110 113 115 117 118 118 118 118 118 118 118 118 117 115 116 119 120 119 117 114 113 112 112 113 113
99 99 98 98 98 98 97 97 97 97 96 96 97 97 97 98 99 99 100 101 103 104 106 106 107 107 108 109 111 113 116 118 120 120 121 120 120 120 119 119 119 118 118 120 122 122 120 117 115 115 116 115

ECMWFFLT2_250_spd_141.txt.gz
Wind_Speed
54 54 54 49 45 45 45 50 56 58 60 60 60 61 61 62 62 64 65 66 67 66 65 63 61 62 61 62 65 66 67 70 69 69 70 71 72 74 75 75 77 78 79 80 81 82 84 86 88 91 93 96
54 53 53 51 44 44 45 49 54 55 57 61 62 62 64 66 68 70 70 70 71 71 69 67 63 61 62 63 64 65 68 71 71 70 70 71 72 73 74 75 76 78 79 80 80 81 83 85 87 89 92 94
54 52 53 51 44 43 43 46 53 54 55 60 66 67 69 71 72 75 74 72 74 75 73 70 66 62 63 64 63 66 71 73 73 72 72 73 73 73 73 74 75 76 77 78 80 81 82 83 85 88 89 92
53 52 53 50 45 44 43 48 55 59 57 59 68 73 73 74 76 79 77 75 76 77 78 76 72 68 68 68 67 67 70 74 74 74 74 74 75 74 73 73 75 76 77 77 79 81 82 82 84 86 88 90
53 52 53 51 50 51 51 56 61 66 66 63 73 78 77 78 79 82 81 78 78 79 81 81 79 77 75 74 74 71 67 69 72 74 75 75 77 76 75 74 74 75 77 78 78 80 81 82 83 84 86 88
54 53 53 53 54 55 56 62 66 69 72 74 80 82 80 81 82 84 84 82 81 82 83 84 84 83 81 79 80 78 71 65 66 72 74 75 77 77 76 76 76 76 76 78 79 79 80 81 82 83 85 87
54 54 54 54 56 58 60 64 68 71 74 78 81 82 83 85 84 85 85 85 84 85 85 86 85 85 86 84 83 83 80 73 68 70 73 75 76 76 76 78 79 78 77 78 79 80 80 80 81 82 84 85
55 55 55 56 58 61 62 64 67 71 75 78 81 82 84 86 86 85 86 86 86 86 87 88 87 87 88 88 87 86 86 84 80 75 74 76 76 75 77 79 80 80 79 79 79 80 80 80 80 80 81 83
56 55 56 57 59 60 63 66 68 71 75 78 81 83 85 87 88 87 86 87 87 87 87 88 89 88 88 89 90 90 89 89 88 85 81 80 79 77 78 79 80 80 80 80 80 80 80 80 80 78 79 80
55 56 57 57 59 60 63 66 69 71 74 77 81 83 86 89 90 89 88 88 89 89 89 90 91 91 90 90 91 92 92 91 91 91 89 86 83 80 79 80 81 81 81 80 79 80 81 81 80 78 78 78
55 56 57 58 59 61 63 65 69 72 74 77 80 83 87 89 91 90 88 89 91 92 93 93 93 93 92 91 92 93 93 93 93 93 93 92 88 85 83 84 84 83 82 81 78 79 80 81 80 79 78 78
56 55 57 59 59 61 63 65 68 71 75 78 80 82 86 89 91 91 90 90 92 94 96 96 96 95 95 94 94 95 96 95 95 95 96 95 93 91 88 88 88 87 86 84 81 80 80 81 81 80 79 79
57 56 57 59 60 62 63 64 67 71 75 78 79 81 84 87 90 92 92 92 93 95 97 98 99 98 97 98 97 97 98 97 97 97 97 96 95 93 92 91 91 90 89 88 86 83 82 83 83 83 82 81
57 57 57 58 60 62 63 65 67 70 74 77 79 81 83 86 89 90 91 93 95 96 98 99 100 100 99 100 100 100 99 99 98 98 98 96 95 94 93 93 93 93 92 91 89 87 85 85 85 86 85 83
59 58 58 59 60 61 63 66 67 69 72 76 79 82 84 86 88 89 90 93 95 96 98 100 101 102 102 102 102 102 102 101 100 99 99 98 96 95 94 95 95 95 95 95 93 90 88 86 86 86 86 85
61 60 60 60 60 61 63 66 68 70 72 74 78 81 85 88 90 90 90 92 95 96 98 100 101 103 104 105 105 105 105 104 103 101 101 100 99 97 96 96 96 97 97 97 95 93 91 88 86 86 86 86
63 63 62 61 61 61 63 66 68 70 72 74 77 80 83 87 91 92 92 93 94 96 98 99 100 102 105 107 109 109 109 108 106 104 103 102 101 100 99 98 98 97 97 98 97 95 92 90 88 86 86 86
66 64 64 63 63 62 63 66 68 70 72 74 76 79 82 85 89 91 92 93 94 95 97 99 100 101 104 107 110 111 111 110 109 107 105 104 104 103 102 101 100 98 98 98 97 96 94 93 91 88 87 86
70 68 66 66 65 65 65 66 68 69 72 74 76 78 81 84 87 90 91 93 95 97 97 99 101 102 104 106 109 111 111 110 109 109 108 106 105 105 105 105 103 102 100 99 98 97 96 95 93 90 87 86
74 72 70 69 68 67 67 68 69 70 71 74 76 78 80 83 85 88 90 92 95 98 99 99 101 103 105 106 108 109 109 108 108 109 109 109 108 107 106 106 106 105 103 101 100 98 97 95 93 91 88 86
77 76 75 73 72 70 70 71 72 72 72 74 75 77 80 82 85 88 90 91 94 96 99 101 102 104 105 106 107 108 107 106 106 108 109 109 109 108 107 107 107 106 105 103 102 100 98 96 94 91 90 88
80 79 79 78 77 75 73 73 74 74 75 75 76 78 79 81 84 87 89 91 93 95 98 101 104 105 105 106 107 108 107 106 107 108 108 108 109 110 109 108 107 106 105 104 103 101 100 98 96 94 92 90
83 82 82 81 81 79 78 77 76 76 77 78 78 79 80 81 83 86 89 91 93 95 97 100 103 104 105 105 107 109 109 108 108 109 108 108 109 110 110 109 108 108 107 106 104 103 102 101 99 97 95 93
85 85 85 85 84 83 82 81 80 79 79 80 80 81 82 83 84 86 88 91 93 95 97 99 101 102 103 105 108 110 111 111 110 110 109 109 109 109 109 110 110 110 110 108 106 105 104 103 102 100 99 97
87 87 87 88 88 87 86 85 85 83 83 83 83 83 84 85 86 87 89 91 93 95 97 98 100 101 103 106 109 111 112 112 112 112 111 110 110 109 109 110 111 112 112 110 109 108 107 105 104 102 100 99
89 89 90 90 90 91 90 89 88 88 87 87 86 86 86 87 89 90 90 92 93 95 97 98 99 101 103 106 109 111 112 113 114 113 112 111 111 111 111 111 112 114 115 113 111 111 110 108 105 103 102 101
92 92 92 93 93 93 93 93 92 91 91 91 90 89 89 90 91 92 93 94 95 95 96 97 99 100 102 104 107 110 113 114 115 115 114 113 113 113 113 112 113 115 116 116 115 114 112 109 107 105 104 103
96 96 95 95 95 95 95 96 95 95 95 95 95 93 92 93 93 94 95 96 97 98 98 98 99 100 101 103 106 108 111 114 115 116 116 116 115 115 115 114 114 116 117 118 119 117 113 110 108 107 107 107
100 100 99 99 98 98 98 98 99 99 98 98 98 97 96 96 96 96 97 97 98 100 100 100 101 101 102 103 105 107 109 112 114 115 116 117 117 116 117 118 118 118 118 119 119 118 116 112 108 106 109 111
104 104 103 103 102 102 102 101 101 102 101 101 101 100 99 99 99 99 99 99 100 101 102 103 103 104 103 104 105 106 109 110 112 113 114 115 117 117 118 120 121 119 119 119 119 118 116 115 112 109 109 111
108 107 107 106 106 105 105 104 104 104 104 104 104 103 102 102 102 103 103 102 102 103 104 105 106 106 106 105 106 107 109 110 111 111 112 113 115 116 118 121 122 122 121 121 121 119 117 116 117 115 112 111

ECMWFFLT2_250_spd_144.txt.gz
Wind_Speed
69 65 62 59 57 53 50 48 48 51 55 55 56 59 61 62 63 64 66 67 67 69 69 68 67 66 64 64 66 68 70 71 72 73 73 74 75 77 78 80 81 82 83 85 87 88 90 90 93 94 94 94
67 63 60 58 56 52 49 47 47 50 55 57 56 59 62 62 64 65 67 67 68 69 70 70 70 70 70 68 67 68 71 72 73 74 73 73 75 78 79 79 80 80 81 82 84 86 87 89 92 94 93 94
65 62 58 57 54 51 49 47 46 49 55 58 56 60 63 62 64 66 67 68 69 71 72 72 72 72 73 73 72 71 71 72 73 75 75 75 76 79 79 79 80 80 80 81 82 84 85 86 89 92 92 92
64 62 58 56 54 50 49 47 47 49 54 58 59 61 62 59 61 65 67 70 72 74 74 75 75 76 76 75 75 75 74 72 72 73 76 78 78 79 80 79 80 80 80 80 81 82 84 85 86 89 90 90
64 61 58 55 53 51 48 47 47 49 53 59 62 62 62 59 61 65 68 71 74 75 77 78 79 79 78 78 78 78 78 75 72 73 75 77 77 80 82 82 82 82 81 81 81 81 82 83 84 85 87 88
63 61 58 55 54 51 49 48 48 50 53 59 64 65 66 64 65 68 70 73 76 78 79 81 83 83 82 80 81 81 81 79 77 76 76 77 77 79 83 84 84 84 84 82 80 80 80 81 82 83 84 85
64 60 58 56 54 52 50 49 49 51 55 60 64 67 69 69 69 72 74 76 79 82 84 85 86 86 86 84 83 84 83 83 82 81 80 80 79 79 81 83 84 85 85 84 81 80 80 80 81 81 82 83
65 61 58 56 55 53 52 51 50 52 54 59 64 67 71 72 74 77 79 81 83 86 89 89 88 88 89 88 87 86 86 86 86 85 85 83 81 80 81 82 85 85 83 83 83 81 80 80 81 80 81 82
67 62 59 57 56 54 53 52 52 52 53 58 63 66 70 73 76 79 82 85 87 90 93 93 91 89 89 90 91 90 89 88 88 88 88 88 85 83 83 84 85 85 83 81 80 81 82 82 82 82 82 81
68 65 61 59 57 55 54 54 53 53 54 57 62 65 69 73 76 81 85 88 91 94 95 95 94 93 92 93 95 94 92 91 91 91 91 91 91 89 88 87 86 85 84 82 79 80 82 84 85 85 84 83
69 67 64 61 59 57 56 55 55 56 56 57 61 65 68 73 79 84 88 90 93 95 97 96 96 96 96 97 97 96 95 94 94 94 94 94 94 94 93 92 91 88 86 85 82 80 81 83 85 85 85 84
70 68 66 64 61 59 57 57 57 58 58 58 61 66 70 75 82 87 90 91 93 96 98 98 98 98 98 98 99 99 97 96 96 97 97 98 97 96 95 94 95 93 90 88 86 83 82 82 83 83 84 85
72 70 68 66 64 61 59 58 58 59 60 60 63 67 72 77 83 88 91 93 95 97 99 100 101 100 99 97 98 101 101 98 98 99 100 100 100 99 98 96 96 96 94 93 90 86 84 84 83 82 82 84
74 72 70 68 66 63 61 60 60 61 62 63 64 68 72 77 83 89 92 93 96 99 101 102 103 103 102 99 97 100 103 101 100 101 102 102 103 102 101 100 99 98 97 97 95 91 88 87 87 85 83 83
75 73 72 70 69 66 64 62 61 62 63 64 66 69 73 76 81 88 92 93 95 99 102 103 104 104 104 103 100 99 102 104 103 102 103 104 105 105 104 103 102 101 100 99 98 96 94 93 92 91 90 88
76 75 73 72 71 69 67 65 63 64 65 66 68 70 73 76 79 85 89 92 94 98 102 104 105 106 105 105 104 102 102 105 105 104 104 106 107 108 107 107 106 105 104 103 101 99 98 98 97 96 96 95
80 77 75 74 73 72 71 68 67 66 66 67 69 71 74 76 79 83 86 90 94 97 100 104 106 108 107 106 106 106 105 106 107 107 107 107 108 109 109 109 108 108 107 106 105 103 101 100 100 100 100 99
83 81 78 76 75 75 74 72 70 69 69 69 71 73 74 77 80 82 84 88 92 95 99 103 107 109 109 108 108 108 108 107 108 109 110 110 109 109 110 109 109 109 108 108 107 106 105 104 102 101 101 101
86 84 82 80 77 77 77 76 74 72 71 72 73 74 75 77 80 82 84 86 89 93 97 101 105 107 108 109 110 110 110 110 109 110 111 111 111 111 110 110 110 109 109 109 109 108 107 106 105 103 102 103
90 88 86 84 82 80 79 79 78 76 74 74 75 76 77 79 80 82 84 86 88 91 94 98 101 104 107 110 111 111 111 112 112 111 111 111 113 113 113 112 111 111 110 110 110 110 110 109 108 106 105 104
93 92 90 88 86 84 81 80 81 80 78 77 78 79 79 80 81 83 85 87 88 90 92 95 97 100 104 108 110 111 112 113 114 114 114 113 112 113 114 114 114 113 112 112 111 111 111 111 110 109 108 107
93 94 93 92 90 88 86 83 82 83 82 80 80 81 82 82 82 84 86 87 88 90 92 94 96 97 100 104 107 109 111 113 115 116 117 116 113 111 112 114 116 116 115 114 113 113 112 113 112 112 111 111
95 94 94 94 94 93 91 88 85 85 85 84 83 83 84 84 84 85 87 88 89 90 92 94 96 96 98 100 103 107 110 113 115 116 117 118 116 113 112 112 115 116 117 118 117 116 115 115 114 113 113 112
97 96 96 96 96 95 95 93 90 88 86 86 86 86 86 86 86 87 88 88 90 91 92 94 96 97 98 99 101 104 107 111 114 116 118 118 117 115 114 113 113 114 116 118 119 119 118 117 116 115 114 113
99 99 98 98 98 97 97 96 96 93 90 89 89 88 88 88 88 89 90 90 91 92 93 95 96 97 98 99 101 102 104 107 111 115 117 118 117 117 117 116 116 115 114 115 117 119 120 120 119 118 116 114
101 101 101 101 100 100 99 99 98 98 96 94 92 91 91 90 90 91 92 93 93 93 95 96 97 98 99 100 101 102 104 106 109 111 114 115 116 118 119 120 120 119 116 114 114 116 118 119 120 120 119 117
103 103 103 103 103 102 102 101 101 100 100 99 97 95 94 94 93 93 94 95 95 95 97 98 98 99 100 101 101 102 104 106 108 109 110 111 113 117 119 121 121 121 119 116 114 114 114 116 118 119 120 119
105 105 105 105 105 105 104 104 103 103 102 102 102 100 99 97 97 97 97 97 96 98 100 100 99 100 101 102 103 103 104 106 108 109 109 109 111 115 118 119 120 121 121 120 118 115 114 114 115 116 117 118
107 107 107 107 107 107 107 106 106 106 105 105 105 104 103 102 101 100 100 100 99 99 102 102 101 101 102 103 104 105 106 107 108 109 109 109 111 114 116 117 118 120 121 122 121 119 116 115 114 114 115 117
109 109 109 109 109 109 109 109 109 108 108 108 107 107 106 105 105 104 104 103 102 101 104 105 103 103 105 105 105 106 107 108 109 109 109 110 111 113 115 116 117 118 120 122 122 121 119 117 115 114 115 116
110 110 111 111 111 111 111 111 111 111 111 110 110 109 109 108 108 108 107 107 106 105 105 107 106 105 106 108 108 108 109 109 110 110 110 110 111 113 115 116 117 117 119 120 121 121 120 119 118 117 117 117